HappyWetter - St.Margarethen im Burgenland
Wetterdaten: Mittwoch, 04.01.2012
Datum Zeit Temp. A. Feuchte A. Luftdruck Regen Wind Richtung Richtung Sonnenschein ET Solar Taupunkt Windchill Windben Empfang
04.01.2012 00:00 5,8 C 82 % 1016,9 hPa 0,0 l/m 12,5 km/h (3 Bft) SO 141 0 min 0,000 mm 0 W/m 3,0 C 1,4 C 22,5 km/h (4 Bft) 100,00 %
04.01.2012 00:01 5,8 C 82 % 1016,9 hPa 0,0 l/m 7,9 km/h (2 Bft) SO 141 0 min 0,000 mm 0 W/m 3,0 C 4,5 C 14,5 km/h (3 Bft) 93,75 %
04.01.2012 00:02 5,8 C 82 % 1016,8 hPa 0,0 l/m 8,0 km/h (2 Bft) SO 141 0 min 0,000 mm 0 W/m 3,0 C 4,4 C 12,9 km/h (3 Bft) 100,00 %
04.01.2012 00:03 5,8 C 82 % 1016,7 hPa 0,0 l/m 10,0 km/h (2 Bft) SO 142 0 min 0,000 mm 0 W/m 3,0 C 3,0 C 17,7 km/h (3 Bft) 100,00 %
04.01.2012 00:04 5,8 C 82 % 1016,6 hPa 0,0 l/m 11,4 km/h (2 Bft) SO 146 0 min 0,000 mm 0 W/m 3,0 C 2,0 C 17,7 km/h (3 Bft) 100,00 %
04.01.2012 00:05 5,8 C 82 % 1016,6 hPa 0,0 l/m 9,4 km/h (2 Bft) SO 140 0 min 0,000 mm 0 W/m 3,0 C 3,4 C 17,7 km/h (3 Bft) 100,00 %
04.01.2012 00:06 5,8 C 83 % 1016,7 hPa 0,0 l/m 13,6 km/h (3 Bft) S-SO 150 0 min 0,000 mm 0 W/m 3,1 C 0,8 C 24,1 km/h (4 Bft) 100,00 %
04.01.2012 00:07 5,8 C 83 % 1016,6 hPa 0,0 l/m 9,7 km/h (2 Bft) SO 137 0 min 0,000 mm 0 W/m 3,1 C 3,2 C 20,9 km/h (4 Bft) 100,00 %
04.01.2012 00:08 5,8 C 83 % 1016,4 hPa 0,0 l/m 10,0 km/h (2 Bft) O-SO 121 0 min 0,000 mm 0 W/m 3,1 C 3,0 C 17,7 km/h (3 Bft) 100,00 %
04.01.2012 00:09 5,8 C 83 % 1016,4 hPa 0,0 l/m 13,8 km/h (3 Bft) SO 136 0 min 0,000 mm 0 W/m 3,1 C 0,7 C 17,7 km/h (3 Bft) 100,00 %
04.01.2012 00:10 5,7 C 83 % 1016,4 hPa 0,0 l/m 11,7 km/h (2 Bft) SO 144 0 min 0,000 mm 0 W/m 3,0 C 1,7 C 19,3 km/h (3 Bft) 100,00 %
04.01.2012 00:11 5,7 C 83 % 1016,6 hPa 0,0 l/m 10,3 km/h (2 Bft) SO 134 0 min 0,000 mm 0 W/m 3,0 C 2,6 C 17,7 km/h (3 Bft) 100,00 %
04.01.2012 00:12 5,7 C 83 % 1016,5 hPa 0,0 l/m 13,0 km/h (3 Bft) SO 129 0 min 0,000 mm 0 W/m 3,0 C 1,0 C 20,9 km/h (4 Bft) 100,00 %
04.01.2012 00:13 5,7 C 83 % 1016,4 hPa 0,0 l/m 11,5 km/h (2 Bft) O-SO 118 0 min 0,000 mm 0 W/m 3,0 C 1,9 C 19,3 km/h (3 Bft) 100,00 %
04.01.2012 00:14 5,7 C 83 % 1016,3 hPa 0,0 l/m 17,0 km/h (3 Bft) O-SO 119 0 min 0,000 mm 0 W/m 3,0 C -1,0 C 24,1 km/h (4 Bft) 100,00 %
04.01.2012 00:15 5,7 C 83 % 1016,2 hPa 0,0 l/m 12,7 km/h (3 Bft) SO 125 0 min 0,000 mm 0 W/m 3,0 C 1,2 C 20,9 km/h (4 Bft) 100,00 %
04.01.2012 00:16 5,7 C 83 % 1016,2 hPa 0,0 l/m 14,2 km/h (3 Bft) SO 132 0 min 0,000 mm 0 W/m 3,0 C 0,3 C 22,5 km/h (4 Bft) 100,00 %
04.01.2012 00:17 5,6 C 83 % 1016,2 hPa 0,0 l/m 13,2 km/h (3 Bft) O-SO 121 0 min 0,000 mm 0 W/m 2,9 C 0,8 C 17,7 km/h (3 Bft) 100,00 %
04.01.2012 00:18 5,6 C 83 % 1016,2 hPa 0,0 l/m 7,3 km/h (2 Bft) O-SO 117 0 min 0,000 mm 0 W/m 2,9 C 4,8 C 14,5 km/h (3 Bft) 100,00 %
04.01.2012 00:19 5,6 C 83 % 1016,2 hPa 0,0 l/m 9,7 km/h (2 Bft) SO 128 0 min 0,000 mm 0 W/m 2,9 C 2,9 C 16,1 km/h (3 Bft) 100,00 %
04.01.2012 00:20 5,6 C 83 % 1016,2 hPa 0,0 l/m 6,1 km/h (2 Bft) SO 125 0 min 0,000 mm 0 W/m 2,9 C 5,6 C 11,3 km/h (2 Bft) 100,00 %
04.01.2012 00:21 5,6 C 83 % 1016,2 hPa 0,0 l/m 6,6 km/h (2 Bft) O-SO 118 0 min 0,000 mm 0 W/m 2,9 C 5,4 C 11,3 km/h (2 Bft) 100,00 %
04.01.2012 00:22 5,6 C 83 % 1016,2 hPa 0,0 l/m 5,4 km/h (1 Bft) O-SO 119 0 min 0,000 mm 0 W/m 2,9 C 5,6 C 9,7 km/h (2 Bft) 100,00 %
04.01.2012 00:23 5,6 C 83 % 1016,0 hPa 0,0 l/m 6,2 km/h (2 Bft) SO 132 0 min 0,000 mm 0 W/m 2,9 C 5,6 C 14,5 km/h (3 Bft) 100,00 %
04.01.2012 00:24 5,6 C 83 % 1016,0 hPa 0,0 l/m 1,2 km/h (1 Bft) SO 133 0 min 0,000 mm 0 W/m 2,9 C 5,6 C 6,4 km/h (2 Bft) 100,00 %
04.01.2012 00:25 5,6 C 83 % 1015,9 hPa 0,0 l/m 1,9 km/h (1 Bft) SO 135 0 min 0,000 mm 0 W/m 2,9 C 5,6 C 11,3 km/h (2 Bft) 100,00 %
04.01.2012 00:26 5,6 C 83 % 1015,9 hPa 0,0 l/m 3,6 km/h (1 Bft) SO 131 0 min 0,000 mm 0 W/m 2,9 C 5,6 C 11,3 km/h (2 Bft) 100,00 %
04.01.2012 00:27 5,6 C 83 % 1015,9 hPa 0,0 l/m 0,0 km/h (0 Bft) SO 132 0 min 0,000 mm 0 W/m 2,9 C 5,6 C 0,0 km/h (0 Bft) 100,00 %
04.01.2012 00:28 5,5 C 83 % 1016,1 hPa 0,0 l/m 0,0 km/h (0 Bft) S-SO 153 0 min 0,000 mm 0 W/m 2,8 C 5,5 C 0,0 km/h (0 Bft) 100,00 %
04.01.2012 00:29 5,5 C 83 % 1016,1 hPa 0,0 l/m 0,0 km/h (0 Bft) S-SO 155 0 min 0,000 mm 0 W/m 2,8 C 5,5 C 0,0 km/h (0 Bft) 100,00 %
04.01.2012 00:30 5,5 C 83 % 1016,1 hPa 0,0 l/m 4,7 km/h (1 Bft) S-SW 194 0 min 0,000 mm 0 W/m 2,8 C 5,5 C 8,0 km/h (2 Bft) 100,00 %
04.01.2012 00:31 5,5 C 84 % 1016,0 hPa 0,0 l/m 7,8 km/h (2 Bft) S-SO 159 0 min 0,000 mm 0 W/m 3,0 C 4,3 C 16,1 km/h (3 Bft) 100,00 %
04.01.2012 00:32 5,5 C 84 % 1015,9 hPa 0,0 l/m 10,1 km/h (2 Bft) O-SO 107 0 min 0,000 mm 0 W/m 3,0 C 2,6 C 17,7 km/h (3 Bft) 100,00 %
04.01.2012 00:33 5,5 C 84 % 1015,8 hPa 0,0 l/m 9,0 km/h (2 Bft) S-SO 156 0 min 0,000 mm 0 W/m 3,0 C 3,3 C 16,1 km/h (3 Bft) 100,00 %
04.01.2012 00:34 5,5 C 84 % 1015,8 hPa 0,0 l/m 8,6 km/h (2 Bft) S 171 0 min 0,000 mm 0 W/m 3,0 C 3,7 C 14,5 km/h (3 Bft) 100,00 %
04.01.2012 00:35 5,5 C 84 % 1015,9 hPa 0,0 l/m 9,7 km/h (2 Bft) S 175 0 min 0,000 mm 0 W/m 3,0 C 2,8 C 16,1 km/h (3 Bft) 100,00 %
04.01.2012 00:36 5,4 C 84 % 1016,0 hPa 0,0 l/m 2,0 km/h (1 Bft) S 178 0 min 0,000 mm 0 W/m 2,9 C 5,4 C 9,7 km/h (2 Bft) 100,00 %
04.01.2012 00:37 5,5 C 84 % 1016,1 hPa 0,0 l/m 4,8 km/h (1 Bft) S 180 0 min 0,000 mm 0 W/m 3,0 C 5,5 C 9,7 km/h (2 Bft) 100,00 %
04.01.2012 00:38 5,4 C 84 % 1016,1 hPa 0,0 l/m 5,0 km/h (1 Bft) S 182 0 min 0,000 mm 0 W/m 2,9 C 5,4 C 8,0 km/h (2 Bft) 100,00 %
04.01.2012 00:39 5,4 C 84 % 1016,1 hPa 0,0 l/m 6,2 km/h (2 Bft) S 186 0 min 0,000 mm 0 W/m 2,9 C 5,4 C 9,7 km/h (2 Bft) 100,00 %
04.01.2012 00:40 5,4 C 84 % 1016,2 hPa 0,0 l/m 3,1 km/h (1 Bft) S 186 0 min 0,000 mm 0 W/m 2,9 C 5,4 C 8,0 km/h (2 Bft) 100,00 %
04.01.2012 00:41 5,4 C 84 % 1016,1 hPa 0,0 l/m 4,9 km/h (1 Bft) S-SO 164 0 min 0,000 mm 0 W/m 2,9 C 5,4 C 11,3 km/h (2 Bft) 100,00 %
04.01.2012 00:42 5,4 C 84 % 1016,0 hPa 0,0 l/m 7,5 km/h (2 Bft) S-SO 167 0 min 0,000 mm 0 W/m 2,9 C 4,4 C 16,1 km/h (3 Bft) 100,00 %
04.01.2012 00:43 5,4 C 84 % 1016,0 hPa 0,0 l/m 3,3 km/h (1 Bft) S-SO 148 0 min 0,000 mm 0 W/m 2,9 C 5,4 C 8,0 km/h (2 Bft) 100,00 %
04.01.2012 00:44 5,4 C 84 % 1016,0 hPa 0,0 l/m 7,9 km/h (2 Bft) SO 141 0 min 0,000 mm 0 W/m 2,9 C 4,1 C 11,3 km/h (2 Bft) 100,00 %
04.01.2012 00:45 5,4 C 84 % 1015,8 hPa 0,0 l/m 4,4 km/h (1 Bft) SO 142 0 min 0,000 mm 0 W/m 2,9 C 5,4 C 8,0 km/h (2 Bft) 100,00 %
04.01.2012 00:46 5,4 C 84 % 1015,7 hPa 0,0 l/m 9,6 km/h (2 Bft) SO 132 0 min 0,000 mm 0 W/m 2,9 C 2,8 C 16,1 km/h (3 Bft) 100,00 %
04.01.2012 00:47 5,4 C 84 % 1015,7 hPa 0,0 l/m 6,2 km/h (2 Bft) S-SO 156 0 min 0,000 mm 0 W/m 2,9 C 5,4 C 11,3 km/h (2 Bft) 100,00 %
04.01.2012 00:48 5,4 C 84 % 1015,9 hPa 0,0 l/m 2,3 km/h (1 Bft) S-SO 153 0 min 0,000 mm 0 W/m 2,9 C 5,4 C 8,0 km/h (2 Bft) 100,00 %
04.01.2012 00:49 5,4 C 84 % 1015,8 hPa 0,0 l/m 5,5 km/h (1 Bft) S-SO 153 0 min 0,000 mm 0 W/m 2,9 C 5,4 C 9,7 km/h (2 Bft) 100,00 %
04.01.2012 00:50 5,4 C 84 % 1015,9 hPa 0,0 l/m 5,7 km/h (1 Bft) S-SO 156 0 min 0,000 mm 0 W/m 2,9 C 5,4 C 9,7 km/h (2 Bft) 100,00 %
04.01.2012 00:51 5,4 C 84 % 1015,9 hPa 0,0 l/m 3,8 km/h (1 Bft) S-SO 150 0 min 0,000 mm 0 W/m 2,9 C 5,4 C 9,7 km/h (2 Bft) 100,00 %
04.01.2012 00:52 5,4 C 84 % 1015,9 hPa 0,0 l/m 1,3 km/h (1 Bft) S-SO 155 0 min 0,000 mm 0 W/m 2,9 C 5,4 C 4,8 km/h (1 Bft) 100,00 %
04.01.2012 00:53 5,4 C 84 % 1015,9 hPa 0,0 l/m 3,1 km/h (1 Bft) S-SO 154 0 min 0,000 mm 0 W/m 2,9 C 5,4 C 9,7 km/h (2 Bft) 100,00 %
04.01.2012 00:54 5,4 C 84 % 1015,9 hPa 0,0 l/m 1,8 km/h (1 Bft) S-SO 154 0 min 0,000 mm 0 W/m 2,9 C 5,4 C 4,8 km/h (1 Bft) 100,00 %
04.01.2012 00:55 5,4 C 84 % 1015,8 hPa 0,0 l/m 1,5 km/h (1 Bft) S-SO 152 0 min 0,000 mm 0 W/m 2,9 C 5,4 C 6,4 km/h (2 Bft) 100,00 %
04.01.2012 00:56 5,3 C 84 % 1016,1 hPa 0,0 l/m 3,3 km/h (1 Bft) S-SO 152 0 min 0,000 mm 0 W/m 2,8 C 5,3 C 6,4 km/h (2 Bft) 96,00 %
04.01.2012 00:57 5,3 C 84 % 1016,1 hPa 0,0 l/m 0,0 km/h (0 Bft) S-SO 152 0 min 0,000 mm 0 W/m 2,8 C 5,3 C 0,0 km/h (0 Bft) 100,00 %
04.01.2012 00:58 5,3 C 84 % 1015,9 hPa 0,0 l/m 0,0 km/h (0 Bft) S-SO 153 0 min 0,000 mm 0 W/m 2,8 C 5,3 C 0,0 km/h (0 Bft) 100,00 %
04.01.2012 00:59 5,3 C 84 % 1015,9 hPa 0,0 l/m 0,0 km/h (0 Bft) S-SO 153 0 min 0,000 mm 0 W/m 2,8 C 5,3 C 0,0 km/h (0 Bft) 100,00 %
04.01.2012 01:00 5,3 C 84 % 1015,9 hPa 0,0 l/m 0,0 km/h (0 Bft) S-SO 152 0 min 0,025 mm 0 W/m 2,8 C 5,3 C 0,0 km/h (0 Bft) 100,00 %
04.01.2012 01:01 5,3 C 84 % 1015,9 hPa 0,0 l/m 0,0 km/h (0 Bft) S-SO 153 0 min 0,000 mm 0 W/m 2,8 C 5,3 C 0,0 km/h (0 Bft) 95,83 %
04.01.2012 01:02 5,3 C 84 % 1015,9 hPa 0,0 l/m 0,0 km/h (0 Bft) S-SO 152 0 min 0,000 mm 0 W/m 2,8 C 5,3 C 0,0 km/h (0 Bft) 100,00 %
04.01.2012 01:03 5,3 C 84 % 1016,1 hPa 0,0 l/m 0,0 km/h (0 Bft) S-SO 152 0 min 0,000 mm 0 W/m 2,8 C 5,3 C 0,0 km/h (0 Bft) 100,00 %
04.01.2012 01:04 5,3 C 84 % 1016,0 hPa 0,0 l/m 0,0 km/h (0 Bft) S-SO 153 0 min 0,000 mm 0 W/m 2,8 C 5,3 C 0,0 km/h (0 Bft) 100,00 %
04.01.2012 01:05 5,3 C 84 % 1016,0 hPa 0,0 l/m 0,0 km/h (0 Bft) S-SO 153 0 min 0,000 mm 0 W/m 2,8 C 5,3 C 0,0 km/h (0 Bft) 100,00 %
04.01.2012 01:06 5,3 C 84 % 1015,9 hPa 0,0 l/m 0,0 km/h (0 Bft) S-SO 153 0 min 0,000 mm 0 W/m 2,8 C 5,3 C 0,0 km/h (0 Bft) 100,00 %
04.01.2012 01:07 5,3 C 84 % 1015,8 hPa 0,0 l/m 0,0 km/h (0 Bft) S-SO 153 0 min 0,000 mm 0 W/m 2,8 C 5,3 C 0,0 km/h (0 Bft) 100,00 %
04.01.2012 01:08 5,3 C 84 % 1015,7 hPa 0,0 l/m 0,0 km/h (0 Bft) S-SO 153 0 min 0,000 mm 0 W/m 2,8 C 5,3 C 0,0 km/h (0 Bft) 100,00 %
04.01.2012 01:09 5,3 C 84 % 1015,7 hPa 0,0 l/m 0,0 km/h (0 Bft) S-SO 152 0 min 0,000 mm 0 W/m 2,8 C 5,3 C 0,0 km/h (0 Bft) 100,00 %
04.01.2012 01:10 5,2 C 84 % 1015,8 hPa 0,0 l/m 0,0 km/h (0 Bft) S-SO 152 0 min 0,000 mm 0 W/m 2,7 C 5,2 C 0,0 km/h (0 Bft) 100,00 %
04.01.2012 01:11 5,2 C 84 % 1015,8 hPa 0,0 l/m 0,0 km/h (0 Bft) S-SO 153 0 min 0,000 mm 0 W/m 2,7 C 5,2 C 0,0 km/h (0 Bft) 100,00 %
04.01.2012 01:12 5,2 C 84 % 1015,9 hPa 0,0 l/m 0,0 km/h (0 Bft) S-SO 153 0 min 0,000 mm 0 W/m 2,7 C 5,2 C 0,0 km/h (0 Bft) 100,00 %
04.01.2012 01:13 5,2 C 84 % 1015,9 hPa 0,0 l/m 0,0 km/h (0 Bft) S-SO 153 0 min 0,000 mm 0 W/m 2,7 C 5,2 C 0,0 km/h (0 Bft) 100,00 %
04.01.2012 01:14 5,2 C 84 % 1015,7 hPa 0,0 l/m 0,0 km/h (0 Bft) S-SO 153 0 min 0,000 mm 0 W/m 2,7 C 5,2 C 0,0 km/h (0 Bft) 100,00 %
04.01.2012 01:15 5,2 C 84 % 1015,6 hPa 0,0 l/m 0,0 km/h (0 Bft) S-SO 153 0 min 0,000 mm 0 W/m 2,7 C 5,2 C 0,0 km/h (0 Bft) 100,00 %
04.01.2012 01:16 5,2 C 84 % 1015,5 hPa 0,0 l/m 0,1 km/h (0 Bft) S-SO 152 0 min 0,000 mm 0 W/m 2,7 C 5,2 C 1,6 km/h (1 Bft) 100,00 %
04.01.2012 01:17 5,2 C 84 % 1015,6 hPa 0,0 l/m 5,6 km/h (1 Bft) S-SO 153 0 min 0,000 mm 0 W/m 2,7 C 5,2 C 8,0 km/h (2 Bft) 100,00 %
04.01.2012 01:18 5,2 C 84 % 1015,6 hPa 0,0 l/m 1,6 km/h (1 Bft) S-SO 152 0 min 0,000 mm 0 W/m 2,7 C 5,2 C 6,4 km/h (2 Bft) 100,00 %
04.01.2012 01:19 5,2 C 84 % 1015,6 hPa 0,0 l/m 0,0 km/h (0 Bft) S-SO 152 0 min 0,000 mm 0 W/m 2,7 C 5,2 C 0,0 km/h (0 Bft) 95,83 %
04.01.2012 01:20 5,2 C 84 % 1015,6 hPa 0,0 l/m 0,0 km/h (0 Bft) S-SO 152 0 min 0,000 mm 0 W/m 2,7 C 5,2 C 0,0 km/h (0 Bft) 100,00 %
04.01.2012 01:21 5,2 C 84 % 1015,6 hPa 0,0 l/m 0,0 km/h (0 Bft) S-SO 152 0 min 0,000 mm 0 W/m 2,7 C 5,2 C 0,0 km/h (0 Bft) 100,00 %
04.01.2012 01:22 5,2 C 84 % 1015,6 hPa 0,0 l/m 0,0 km/h (0 Bft) S-SO 152 0 min 0,000 mm 0 W/m 2,7 C 5,2 C 0,0 km/h (0 Bft) 100,00 %
04.01.2012 01:23 5,1 C 84 % 1015,6 hPa 0,0 l/m 0,0 km/h (0 Bft) S-SO 152 0 min 0,000 mm 0 W/m 2,6 C 5,1 C 0,0 km/h (0 Bft) 100,00 %
04.01.2012 01:24 5,1 C 84 % 1015,6 hPa 0,0 l/m 0,0 km/h (0 Bft) S-SO 152 0 min 0,000 mm 0 W/m 2,6 C 5,1 C 0,0 km/h (0 Bft) 100,00 %
04.01.2012 01:25 5,1 C 84 % 1015,7 hPa 0,0 l/m 0,0 km/h (0 Bft) S-SO 152 0 min 0,000 mm 0 W/m 2,6 C 5,1 C 0,0 km/h (0 Bft) 100,00 %
04.01.2012 01:26 5,1 C 84 % 1015,6 hPa 0,0 l/m 0,0 km/h (0 Bft) S-SO 152 0 min 0,000 mm 0 W/m 2,6 C 5,1 C 0,0 km/h (0 Bft) 100,00 %
04.01.2012 01:27 5,1 C 84 % 1015,6 hPa 0,0 l/m 0,0 km/h (0 Bft) S-SO 152 0 min 0,000 mm 0 W/m 2,6 C 5,1 C 0,0 km/h (0 Bft) 100,00 %
04.01.2012 01:28 5,1 C 84 % 1015,6 hPa 0,0 l/m 0,0 km/h (0 Bft) S-SO 152 0 min 0,000 mm 0 W/m 2,6 C 5,1 C 0,0 km/h (0 Bft) 100,00 %
04.01.2012 01:29 5,1 C 85 % 1015,6 hPa 0,0 l/m 0,0 km/h (0 Bft) S-SO 152 0 min 0,000 mm 0 W/m 2,8 C 5,1 C 0,0 km/h (0 Bft) 100,00 %
04.01.2012 01:30 5,1 C 85 % 1015,6 hPa 0,0 l/m 0,0 km/h (0 Bft) S-SO 152 0 min 0,000 mm 0 W/m 2,8 C 5,1 C 0,0 km/h (0 Bft) 100,00 %
04.01.2012 01:31 5,1 C 85 % 1015,5 hPa 0,0 l/m 4,5 km/h (1 Bft) S-SO 152 0 min 0,000 mm 0 W/m 2,8 C 5,1 C 8,0 km/h (2 Bft) 100,00 %
04.01.2012 01:32 5,1 C 85 % 1015,4 hPa 0,0 l/m 2,6 km/h (1 Bft) S-SO 152 0 min 0,000 mm 0 W/m 2,8 C 5,1 C 6,4 km/h (2 Bft) 100,00 %
04.01.2012 01:33 5,1 C 85 % 1015,3 hPa 0,0 l/m 0,0 km/h (0 Bft) S-SO 152 0 min 0,000 mm 0 W/m 2,8 C 5,1 C 0,0 km/h (0 Bft) 100,00 %
04.01.2012 01:34 5,1 C 85 % 1015,4 hPa 0,0 l/m 0,0 km/h (0 Bft) S-SO 152 0 min 0,000 mm 0 W/m 2,8 C 5,1 C 0,0 km/h (0 Bft) 100,00 %
04.01.2012 01:35 5,1 C 85 % 1015,5 hPa 0,0 l/m 0,0 km/h (0 Bft) S-SO 152 0 min 0,000 mm 0 W/m 2,8 C 5,1 C 0,0 km/h (0 Bft) 100,00 %
04.01.2012 01:36 5,1 C 85 % 1015,5 hPa 0,0 l/m 0,0 km/h (0 Bft) S-SO 152 0 min 0,000 mm 0 W/m 2,8 C 5,1 C 0,0 km/h (0 Bft) 100,00 %
04.01.2012 01:37 5,1 C 85 % 1015,5 hPa 0,0 l/m 0,0 km/h (0 Bft) S-SO 152 0 min 0,000 mm 0 W/m 2,8 C 5,1 C 0,0 km/h (0 Bft) 100,00 %
04.01.2012 01:38 5,1 C 85 % 1015,5 hPa 0,0 l/m 0,0 km/h (0 Bft) S-SO 152 0 min 0,000 mm 0 W/m 2,8 C 5,1 C 0,0 km/h (0 Bft) 100,00 %
04.01.2012 01:39 5,1 C 85 % 1015,4 hPa 0,0 l/m 0,0 km/h (0 Bft) S-SO 152 0 min 0,000 mm 0 W/m 2,8 C 5,1 C 0,0 km/h (0 Bft) 100,00 %
04.01.2012 01:40 5,1 C 85 % 1015,3 hPa 0,0 l/m 0,0 km/h (0 Bft) S-SO 152 0 min 0,000 mm 0 W/m 2,8 C 5,1 C 0,0 km/h (0 Bft) 100,00 %
04.01.2012 01:41 5,1 C 85 % 1015,3 hPa 0,0 l/m 0,0 km/h (0 Bft) S-SO 152 0 min 0,000 mm 0 W/m 2,8 C 5,1 C 0,0 km/h (0 Bft) 100,00 %
04.01.2012 01:42 5,1 C 85 % 1015,4 hPa 0,0 l/m 0,0 km/h (0 Bft) S-SO 152 0 min 0,000 mm 0 W/m 2,8 C 5,1 C 0,0 km/h (0 Bft) 96,00 %
04.01.2012 01:43 5,1 C 85 % 1015,5 hPa 0,0 l/m 0,0 km/h (0 Bft) S-SO 152 0 min 0,000 mm 0 W/m 2,8 C 5,1 C 0,0 km/h (0 Bft) 100,00 %
04.01.2012 01:44 5,1 C 85 % 1015,4 hPa 0,0 l/m 0,0 km/h (0 Bft) S-SO 152 0 min 0,000 mm 0 W/m 2,8 C 5,1 C 0,0 km/h (0 Bft) 100,00 %
04.01.2012 01:45 5,1 C 85 % 1015,3 hPa 0,0 l/m 0,0 km/h (0 Bft) S-SO 152 0 min 0,000 mm 0 W/m 2,8 C 5,1 C 0,0 km/h (0 Bft) 100,00 %
04.01.2012 01:46 5,1 C 85 % 1015,3 hPa 0,0 l/m 0,0 km/h (0 Bft) S-SO 152 0 min 0,000 mm 0 W/m 2,8 C 5,1 C 0,0 km/h (0 Bft) 100,00 %
04.01.2012 01:47 5,1 C 85 % 1015,3 hPa 0,0 l/m 0,0 km/h (0 Bft) S-SO 152 0 min 0,000 mm 0 W/m 2,8 C 5,1 C 0,0 km/h (0 Bft) 100,00 %
04.01.2012 01:48 5,1 C 85 % 1015,3 hPa 0,0 l/m 0,0 km/h (0 Bft) S-SO 152 0 min 0,000 mm 0 W/m 2,8 C 5,1 C 0,0 km/h (0 Bft) 100,00 %
04.01.2012 01:49 5,1 C 85 % 1015,3 hPa 0,0 l/m 0,0 km/h (0 Bft) S-SO 152 0 min 0,000 mm 0 W/m 2,8 C 5,1 C 0,0 km/h (0 Bft) 100,00 %
04.01.2012 01:50 5,1 C 85 % 1015,4 hPa 0,0 l/m 0,0 km/h (0 Bft) S-SO 152 0 min 0,000 mm 0 W/m 2,8 C 5,1 C 0,0 km/h (0 Bft) 100,00 %
04.01.2012 01:51 5,1 C 85 % 1015,5 hPa 0,0 l/m 0,0 km/h (0 Bft) S-SO 152 0 min 0,000 mm 0 W/m 2,8 C 5,1 C 0,0 km/h (0 Bft) 100,00 %
04.01.2012 01:52 5,1 C 85 % 1015,4 hPa 0,0 l/m 0,0 km/h (0 Bft) S-SO 153 0 min 0,000 mm 0 W/m 2,8 C 5,1 C 0,0 km/h (0 Bft) 95,83 %
04.01.2012 01:53 5,1 C 85 % 1015,4 hPa 0,0 l/m 0,0 km/h (0 Bft) S-SO 153 0 min 0,000 mm 0 W/m 2,8 C 5,1 C 0,0 km/h (0 Bft) 100,00 %
04.01.2012 01:54 5,0 C 85 % 1015,4 hPa 0,0 l/m 0,0 km/h (0 Bft) S-SO 153 0 min 0,000 mm 0 W/m 2,7 C 5,0 C 0,0 km/h (0 Bft) 100,00 %
04.01.2012 01:55 5,0 C 85 % 1015,3 hPa 0,0 l/m 0,0 km/h (0 Bft) S-SO 153 0 min 0,000 mm 0 W/m 2,7 C 5,0 C 0,0 km/h (0 Bft) 100,00 %
04.01.2012 01:56 4,9 C 85 % 1015,2 hPa 0,0 l/m 0,0 km/h (0 Bft) SO 142 0 min 0,000 mm 0 W/m 2,6 C 4,9 C 0,0 km/h (0 Bft) 100,00 %
04.01.2012 01:57 4,9 C 85 % 1015,3 hPa 0,0 l/m 0,0 km/h (0 Bft) O-SO 118 0 min 0,000 mm 0 W/m 2,6 C 4,9 C 0,0 km/h (0 Bft) 100,00 %
04.01.2012 01:58 4,9 C 85 % 1015,3 hPa 0,0 l/m 0,0 km/h (0 Bft) O-SO 119 0 min 0,000 mm 0 W/m 2,6 C 4,9 C 0,0 km/h (0 Bft) 100,00 %
04.01.2012 01:59 4,9 C 85 % 1015,2 hPa 0,0 l/m 0,0 km/h (0 Bft) O-SO 119 0 min 0,000 mm 0 W/m 2,6 C 4,9 C 0,0 km/h (0 Bft) 100,00 %
04.01.2012 02:00 4,9 C 85 % 1015,1 hPa 0,0 l/m 0,0 km/h (0 Bft) O-SO 119 0 min 0,000 mm 0 W/m 2,6 C 4,9 C 0,0 km/h (0 Bft) 95,83 %
04.01.2012 02:01 4,9 C 85 % 1015,1 hPa 0,0 l/m 0,2 km/h (0 Bft) O-SO 103 0 min 0,000 mm 0 W/m 2,6 C 4,9 C 4,8 km/h (1 Bft) 100,00 %
04.01.2012 02:02 4,8 C 85 % 1015,2 hPa 0,0 l/m 2,2 km/h (1 Bft) NO 51 0 min 0,000 mm 0 W/m 2,5 C 4,8 C 4,8 km/h (1 Bft) 100,00 %
04.01.2012 02:03 4,8 C 85 % 1015,2 hPa 0,0 l/m 0,0 km/h (0 Bft) N-NO 26 0 min 0,000 mm 0 W/m 2,5 C 4,8 C 0,0 km/h (0 Bft) 100,00 %
04.01.2012 02:04 4,8 C 85 % 1015,3 hPa 0,0 l/m 0,0 km/h (0 Bft) N-NO 26 0 min 0,000 mm 0 W/m 2,5 C 4,8 C 0,0 km/h (0 Bft) 100,00 %
04.01.2012 02:05 4,7 C 85 % 1015,4 hPa 0,0 l/m 0,0 km/h (0 Bft) N-NO 27 0 min 0,000 mm 0 W/m 2,4 C 4,7 C 0,0 km/h (0 Bft) 100,00 %
04.01.2012 02:06 4,7 C 85 % 1015,4 hPa 0,0 l/m 5,4 km/h (1 Bft) NW 309 0 min 0,000 mm 0 W/m 2,4 C 4,7 C 16,1 km/h (3 Bft) 100,00 %
04.01.2012 02:07 4,7 C 85 % 1015,5 hPa 0,0 l/m 12,1 km/h (2 Bft) NW 320 0 min 0,000 mm 0 W/m 2,4 C 0,3 C 16,1 km/h (3 Bft) 100,00 %
04.01.2012 02:08 4,6 C 85 % 1015,4 hPa 0,0 l/m 8,4 km/h (2 Bft) N-NW 342 0 min 0,000 mm 0 W/m 2,3 C 2,9 C 16,1 km/h (3 Bft) 100,00 %
04.01.2012 02:09 4,6 C 85 % 1015,3 hPa 0,0 l/m 6,8 km/h (2 Bft) N 360 0 min 0,000 mm 0 W/m 2,3 C 4,3 C 11,3 km/h (2 Bft) 100,00 %
04.01.2012 02:10 4,5 C 85 % 1015,3 hPa 0,0 l/m 2,0 km/h (1 Bft) N 360 0 min 0,000 mm 0 W/m 2,2 C 4,5 C 9,7 km/h (2 Bft) 100,00 %
04.01.2012 02:11 4,4 C 85 % 1015,4 hPa 0,0 l/m 0,0 km/h (0 Bft) N 360 0 min 0,000 mm 0 W/m 2,1 C 4,4 C 0,0 km/h (0 Bft) 100,00 %
04.01.2012 02:12 4,4 C 85 % 1015,4 hPa 0,0 l/m 2,9 km/h (1 Bft) N-NW 337 0 min 0,000 mm 0 W/m 2,1 C 4,4 C 9,7 km/h (2 Bft) 100,00 %
04.01.2012 02:13 4,4 C 85 % 1015,4 hPa 0,0 l/m 13,0 km/h (3 Bft) N-NW 348 0 min 0,000 mm 0 W/m 2,1 C -0,5 C 19,3 km/h (3 Bft) 100,00 %
04.01.2012 02:14 4,3 C 85 % 1015,5 hPa 0,0 l/m 9,8 km/h (2 Bft) NW 325 0 min 0,000 mm 0 W/m 2,0 C 1,4 C 14,5 km/h (3 Bft) 100,00 %
04.01.2012 02:15 4,3 C 85 % 1015,6 hPa 0,0 l/m 7,9 km/h (2 Bft) N-NW 347 0 min 0,000 mm 0 W/m 2,0 C 3,0 C 14,5 km/h (3 Bft) 100,00 %
04.01.2012 02:16 4,2 C 85 % 1015,5 hPa 0,0 l/m 4,2 km/h (1 Bft) N 350 0 min 0,000 mm 0 W/m 1,9 C 4,2 C 6,4 km/h (2 Bft) 100,00 %
04.01.2012 02:17 4,2 C 86 % 1015,4 hPa 0,0 l/m 6,9 km/h (2 Bft) N 360 0 min 0,000 mm 0 W/m 2,1 C 3,8 C 9,7 km/h (2 Bft) 100,00 %
04.01.2012 02:18 4,1 C 86 % 1015,3 hPa 0,0 l/m 10,0 km/h (2 Bft) N-NO 25 0 min 0,000 mm 0 W/m 2,0 C 1,1 C 16,1 km/h (3 Bft) 100,00 %
04.01.2012 02:19 4,1 C 86 % 1015,4 hPa 0,0 l/m 8,0 km/h (2 Bft) N-NO 24 0 min 0,000 mm 0 W/m 2,0 C 2,7 C 9,7 km/h (2 Bft) 100,00 %
04.01.2012 02:20 4,1 C 86 % 1015,5 hPa 0,0 l/m 0,6 km/h (0 Bft) N-NO 24 0 min 0,000 mm 0 W/m 2,0 C 4,1 C 4,8 km/h (1 Bft) 100,00 %
04.01.2012 02:21 4,1 C 86 % 1015,6 hPa 0,0 l/m 0,0 km/h (0 Bft) N-NO 24 0 min 0,000 mm 0 W/m 2,0 C 4,1 C 0,0 km/h (0 Bft) 100,00 %
04.01.2012 02:22 4,1 C 86 % 1015,7 hPa 0,0 l/m 0,0 km/h (0 Bft) N-NO 24 0 min 0,000 mm 0 W/m 2,0 C 4,1 C 0,0 km/h (0 Bft) 100,00 %
04.01.2012 02:23 4,1 C 87 % 1015,7 hPa 0,0 l/m 0,0 km/h (0 Bft) N-NO 24 0 min 0,000 mm 0 W/m 2,1 C 4,1 C 0,0 km/h (0 Bft) 100,00 %
04.01.2012 02:24 4,1 C 87 % 1015,7 hPa 0,0 l/m 0,0 km/h (0 Bft) N-NO 24 0 min 0,000 mm 0 W/m 2,1 C 4,1 C 0,0 km/h (0 Bft) 100,00 %
04.01.2012 02:25 4,0 C 87 % 1015,5 hPa 0,0 l/m 0,0 km/h (0 Bft) N-NO 24 0 min 0,000 mm 0 W/m 2,0 C 4,0 C 0,0 km/h (0 Bft) 100,00 %
04.01.2012 02:26 4,0 C 87 % 1015,5 hPa 0,0 l/m 0,0 km/h (0 Bft) N-NO 24 0 min 0,000 mm 0 W/m 2,0 C 4,0 C 0,0 km/h (0 Bft) 100,00 %
04.01.2012 02:27 4,0 C 87 % 1015,6 hPa 0,0 l/m 0,0 km/h (0 Bft) N 350 0 min 0,000 mm 0 W/m 2,0 C 4,0 C 0,0 km/h (0 Bft) 100,00 %
04.01.2012 02:28 4,0 C 87 % 1015,7 hPa 0,0 l/m 6,9 km/h (2 Bft) NW 309 0 min 0,000 mm 0 W/m 2,0 C 3,5 C 11,3 km/h (2 Bft) 100,00 %
04.01.2012 02:29 4,0 C 87 % 1015,7 hPa 0,0 l/m 8,7 km/h (2 Bft) NW 313 0 min 0,000 mm 0 W/m 2,0 C 2,0 C 11,3 km/h (2 Bft) 100,00 %
04.01.2012 02:30 3,9 C 87 % 1015,5 hPa 0,0 l/m 5,6 km/h (1 Bft) N-NW 327 0 min 0,000 mm 0 W/m 1,9 C 3,9 C 9,7 km/h (2 Bft) 100,00 %
04.01.2012 02:31 3,9 C 87 % 1015,6 hPa 0,0 l/m 3,9 km/h (1 Bft) N-NW 341 0 min 0,000 mm 0 W/m 1,9 C 3,9 C 9,7 km/h (2 Bft) 100,00 %
04.01.2012 02:32 3,9 C 87 % 1015,5 hPa 0,0 l/m 7,4 km/h (2 Bft) N-NW 342 0 min 0,000 mm 0 W/m 1,9 C 3,0 C 9,7 km/h (2 Bft) 100,00 %
04.01.2012 02:33 3,9 C 87 % 1015,5 hPa 0,0 l/m 4,8 km/h (1 Bft) N-NW 342 0 min 0,000 mm 0 W/m 1,9 C 3,9 C 9,7 km/h (2 Bft) 100,00 %
04.01.2012 02:34 3,9 C 87 % 1015,5 hPa 0,0 l/m 0,0 km/h (0 Bft) N-NW 344 0 min 0,000 mm 0 W/m 1,9 C 3,9 C 0,0 km/h (0 Bft) 100,00 %
04.01.2012 02:35 3,9 C 87 % 1015,5 hPa 0,0 l/m 0,0 km/h (0 Bft) N-NW 344 0 min 0,000 mm 0 W/m 1,9 C 3,9 C 0,0 km/h (0 Bft) 100,00 %
04.01.2012 02:36 3,9 C 88 % 1015,5 hPa 0,0 l/m 0,0 km/h (0 Bft) N-NW 346 0 min 0,000 mm 0 W/m 2,1 C 3,9 C 0,0 km/h (0 Bft) 100,00 %
04.01.2012 02:37 3,9 C 88 % 1015,6 hPa 0,0 l/m 0,7 km/h (0 Bft) N-NW 346 0 min 0,000 mm 0 W/m 2,1 C 3,9 C 4,8 km/h (1 Bft) 100,00 %
04.01.2012 02:38 3,9 C 88 % 1015,6 hPa 0,0 l/m 0,0 km/h (0 Bft) N-NW 345 0 min 0,000 mm 0 W/m 2,1 C 3,9 C 0,0 km/h (0 Bft) 100,00 %
04.01.2012 02:39 3,9 C 88 % 1015,5 hPa 0,0 l/m 0,0 km/h (0 Bft) N-NW 347 0 min 0,000 mm 0 W/m 2,1 C 3,9 C 0,0 km/h (0 Bft) 100,00 %
04.01.2012 02:40 3,9 C 88 % 1015,5 hPa 0,0 l/m 2,7 km/h (1 Bft) N 350 0 min 0,000 mm 0 W/m 2,1 C 3,9 C 9,7 km/h (2 Bft) 100,00 %
04.01.2012 02:41 3,9 C 88 % 1015,7 hPa 0,0 l/m 1,3 km/h (1 Bft) N 350 0 min 0,000 mm 0 W/m 2,1 C 3,9 C 8,0 km/h (2 Bft) 100,00 %
04.01.2012 02:42 3,9 C 88 % 1015,8 hPa 0,0 l/m 0,0 km/h (0 Bft) N 350 0 min 0,000 mm 0 W/m 2,1 C 3,9 C 0,0 km/h (0 Bft) 100,00 %
04.01.2012 02:43 3,9 C 88 % 1015,8 hPa 0,0 l/m 0,0 km/h (0 Bft) N 350 0 min 0,000 mm 0 W/m 2,1 C 3,9 C 0,0 km/h (0 Bft) 100,00 %
04.01.2012 02:44 3,8 C 88 % 1015,7 hPa 0,0 l/m 0,0 km/h (0 Bft) N 350 0 min 0,000 mm 0 W/m 2,0 C 3,8 C 0,0 km/h (0 Bft) 100,00 %
04.01.2012 02:45 3,8 C 88 % 1015,8 hPa 0,0 l/m 3,8 km/h (1 Bft) N 360 0 min 0,000 mm 0 W/m 2,0 C 3,8 C 11,3 km/h (2 Bft) 100,00 %
04.01.2012 02:46 3,8 C 88 % 1015,9 hPa 0,0 l/m 9,0 km/h (2 Bft) N-NW 338 0 min 0,000 mm 0 W/m 2,0 C 1,5 C 11,3 km/h (2 Bft) 100,00 %
04.01.2012 02:47 3,8 C 88 % 1015,9 hPa 0,0 l/m 5,8 km/h (2 Bft) N-NW 337 0 min 0,000 mm 0 W/m 2,0 C 3,8 C 11,3 km/h (2 Bft) 100,00 %
04.01.2012 02:48 3,8 C 88 % 1015,9 hPa 0,0 l/m 6,8 km/h (2 Bft) N-NW 340 0 min 0,000 mm 0 W/m 2,0 C 3,4 C 11,3 km/h (2 Bft) 100,00 %
04.01.2012 02:49 3,8 C 88 % 1015,9 hPa 0,0 l/m 6,3 km/h (2 Bft) N-NW 338 0 min 0,000 mm 0 W/m 2,0 C 3,8 C 9,7 km/h (2 Bft) 100,00 %
04.01.2012 02:50 3,8 C 88 % 1015,8 hPa 0,0 l/m 0,9 km/h (0 Bft) N-NW 338 0 min 0,000 mm 0 W/m 2,0 C 3,8 C 4,8 km/h (1 Bft) 100,00 %
04.01.2012 02:51 3,8 C 88 % 1015,8 hPa 0,0 l/m 6,0 km/h (2 Bft) N-NW 344 0 min 0,000 mm 0 W/m 2,0 C 3,8 C 9,7 km/h (2 Bft) 100,00 %
04.01.2012 02:52 3,8 C 89 % 1015,8 hPa 0,0 l/m 8,2 km/h (2 Bft) N-NW 336 0 min 0,000 mm 0 W/m 2,2 C 2,2 C 14,5 km/h (3 Bft) 100,00 %
04.01.2012 02:53 3,8 C 89 % 1015,8 hPa 0,0 l/m 4,5 km/h (1 Bft) N-NW 337 0 min 0,000 mm 0 W/m 2,2 C 3,8 C 6,4 km/h (2 Bft) 100,00 %
04.01.2012 02:54 3,8 C 89 % 1015,7 hPa 0,0 l/m 1,0 km/h (0 Bft) N-NW 337 0 min 0,000 mm 0 W/m 2,2 C 3,8 C 6,4 km/h (2 Bft) 100,00 %
04.01.2012 02:55 3,8 C 89 % 1015,6 hPa 0,0 l/m 4,7 km/h (1 Bft) N-NW 347 0 min 0,000 mm 0 W/m 2,2 C 3,8 C 8,0 km/h (2 Bft) 100,00 %
04.01.2012 02:56 3,8 C 89 % 1015,5 hPa 0,0 l/m 5,5 km/h (1 Bft) N 350 0 min 0,000 mm 0 W/m 2,2 C 3,8 C 8,0 km/h (2 Bft) 100,00 %
04.01.2012 02:57 3,8 C 89 % 1015,5 hPa 0,0 l/m 2,1 km/h (1 Bft) N 350 0 min 0,000 mm 0 W/m 2,2 C 3,8 C 6,4 km/h (2 Bft) 100,00 %
04.01.2012 02:58 3,8 C 89 % 1015,5 hPa 0,0 l/m 0,1 km/h (0 Bft) N 350 0 min 0,000 mm 0 W/m 2,2 C 3,8 C 1,6 km/h (1 Bft) 100,00 %
04.01.2012 02:59 3,8 C 89 % 1015,6 hPa 0,0 l/m 0,8 km/h (0 Bft) N 350 0 min 0,000 mm 0 W/m 2,2 C 3,8 C 4,8 km/h (1 Bft) 100,00 %
04.01.2012 03:00 3,8 C 89 % 1015,7 hPa 0,0 l/m 0,0 km/h (0 Bft) N 350 0 min 0,000 mm 0 W/m 2,2 C 3,8 C 0,0 km/h (0 Bft) 100,00 %
04.01.2012 03:01 3,8 C 89 % 1015,6 hPa 0,0 l/m 4,2 km/h (1 Bft) N 350 0 min 0,000 mm 0 W/m 2,2 C 3,8 C 9,7 km/h (2 Bft) 100,00 %
04.01.2012 03:02 3,8 C 89 % 1015,6 hPa 0,0 l/m 0,6 km/h (0 Bft) N 350 0 min 0,000 mm 0 W/m 2,2 C 3,8 C 3,2 km/h (1 Bft) 100,00 %
04.01.2012 03:03 3,8 C 89 % 1015,5 hPa 0,0 l/m 0,0 km/h (0 Bft) N 350 0 min 0,000 mm 0 W/m 2,2 C 3,8 C 0,0 km/h (0 Bft) 100,00 %
04.01.2012 03:04 3,8 C 89 % 1015,5 hPa 0,0 l/m 0,0 km/h (0 Bft) N 350 0 min 0,000 mm 0 W/m 2,2 C 3,8 C 0,0 km/h (0 Bft) 100,00 %
04.01.2012 03:05 3,8 C 89 % 1015,5 hPa 0,0 l/m 0,0 km/h (0 Bft) N 350 0 min 0,000 mm 0 W/m 2,2 C 3,8 C 0,0 km/h (0 Bft) 100,00 %
04.01.2012 03:06 3,8 C 89 % 1015,5 hPa 0,0 l/m 0,0 km/h (0 Bft) N 350 0 min 0,000 mm 0 W/m 2,2 C 3,8 C 0,0 km/h (0 Bft) 100,00 %
04.01.2012 03:07 3,8 C 89 % 1015,5 hPa 0,0 l/m 0,0 km/h (0 Bft) N 350 0 min 0,000 mm 0 W/m 2,2 C 3,8 C 0,0 km/h (0 Bft) 100,00 %
04.01.2012 03:08 3,8 C 89 % 1015,4 hPa 0,0 l/m 0,0 km/h (0 Bft) N 350 0 min 0,000 mm 0 W/m 2,2 C 3,8 C 0,0 km/h (0 Bft) 100,00 %
04.01.2012 03:09 3,8 C 89 % 1015,4 hPa 0,0 l/m 0,0 km/h (0 Bft) N 350 0 min 0,000 mm 0 W/m 2,2 C 3,8 C 0,0 km/h (0 Bft) 100,00 %
04.01.2012 03:10 3,8 C 89 % 1015,4 hPa 0,0 l/m 0,0 km/h (0 Bft) N 360 0 min 0,000 mm 0 W/m 2,2 C 3,8 C 0,0 km/h (0 Bft) 100,00 %
04.01.2012 03:11 3,9 C 89 % 1015,3 hPa 0,0 l/m 1,1 km/h (1 Bft) N 5 0 min 0,000 mm 0 W/m 2,3 C 3,9 C 4,8 km/h (1 Bft) 100,00 %
04.01.2012 03:12 3,9 C 89 % 1015,4 hPa 0,0 l/m 2,1 km/h (1 Bft) N 10 0 min 0,000 mm 0 W/m 2,3 C 3,9 C 6,4 km/h (2 Bft) 100,00 %
04.01.2012 03:13 3,9 C 89 % 1015,3 hPa 0,0 l/m 0,7 km/h (0 Bft) N 10 0 min 0,000 mm 0 W/m 2,3 C 3,9 C 4,8 km/h (1 Bft) 100,00 %
04.01.2012 03:14 3,9 C 89 % 1015,3 hPa 0,0 l/m 0,0 km/h (0 Bft) N 11 0 min 0,000 mm 0 W/m 2,3 C 3,9 C 0,0 km/h (0 Bft) 100,00 %
04.01.2012 03:15 3,9 C 89 % 1015,3 hPa 0,0 l/m 0,0 km/h (0 Bft) N 11 0 min 0,000 mm 0 W/m 2,3 C 3,9 C 0,0 km/h (0 Bft) 100,00 %
04.01.2012 03:16 3,9 C 89 % 1015,4 hPa 0,0 l/m 0,0 km/h (0 Bft) N-NO 13 0 min 0,000 mm 0 W/m 2,3 C 3,9 C 0,0 km/h (0 Bft) 100,00 %
04.01.2012 03:17 3,9 C 89 % 1015,3 hPa 0,0 l/m 0,0 km/h (0 Bft) N-NO 13 0 min 0,000 mm 0 W/m 2,3 C 3,9 C 0,0 km/h (0 Bft) 100,00 %
04.01.2012 03:18 3,9 C 89 % 1015,2 hPa 0,0 l/m 0,0 km/h (0 Bft) N-NO 13 0 min 0,000 mm 0 W/m 2,3 C 3,9 C 0,0 km/h (0 Bft) 100,00 %
04.01.2012 03:19 3,9 C 89 % 1015,3 hPa 0,0 l/m 0,0 km/h (0 Bft) N-NO 26 0 min 0,000 mm 0 W/m 2,3 C 3,9 C 0,0 km/h (0 Bft) 100,00 %
04.01.2012 03:20 3,8 C 89 % 1015,4 hPa 0,0 l/m 0,0 km/h (0 Bft) N-NO 30 0 min 0,000 mm 0 W/m 2,2 C 3,8 C 0,0 km/h (0 Bft) 100,00 %
04.01.2012 03:21 3,8 C 89 % 1015,4 hPa 0,0 l/m 0,0 km/h (0 Bft) N-NO 30 0 min 0,000 mm 0 W/m 2,2 C 3,8 C 0,0 km/h (0 Bft) 100,00 %
04.01.2012 03:22 3,8 C 89 % 1015,5 hPa 0,0 l/m 0,0 km/h (0 Bft) N-NO 30 0 min 0,000 mm 0 W/m 2,2 C 3,8 C 0,0 km/h (0 Bft) 100,00 %
04.01.2012 03:23 3,8 C 89 % 1015,6 hPa 0,0 l/m 0,0 km/h (0 Bft) N-NO 30 0 min 0,000 mm 0 W/m 2,2 C 3,8 C 0,0 km/h (0 Bft) 100,00 %
04.01.2012 03:24 3,8 C 89 % 1015,6 hPa 0,0 l/m 0,0 km/h (0 Bft) N-NO 30 0 min 0,000 mm 0 W/m 2,2 C 3,8 C 0,0 km/h (0 Bft) 100,00 %
04.01.2012 03:25 3,8 C 89 % 1015,5 hPa 0,0 l/m 0,0 km/h (0 Bft) N-NO 29 0 min 0,000 mm 0 W/m 2,2 C 3,8 C 0,0 km/h (0 Bft) 100,00 %
04.01.2012 03:26 3,8 C 89 % 1015,5 hPa 0,0 l/m 0,0 km/h (0 Bft) N-NO 29 0 min 0,000 mm 0 W/m 2,2 C 3,8 C 0,0 km/h (0 Bft) 100,00 %
04.01.2012 03:27 3,8 C 89 % 1015,4 hPa 0,0 l/m 0,0 km/h (0 Bft) N-NO 30 0 min 0,000 mm 0 W/m 2,2 C 3,8 C 0,0 km/h (0 Bft) 100,00 %
04.01.2012 03:28 3,8 C 89 % 1015,4 hPa 0,0 l/m 0,0 km/h (0 Bft) N-NO 29 0 min 0,000 mm 0 W/m 2,2 C 3,8 C 0,0 km/h (0 Bft) 100,00 %
04.01.2012 03:29 3,8 C 89 % 1015,3 hPa 0,0 l/m 0,0 km/h (0 Bft) N-NO 30 0 min 0,000 mm 0 W/m 2,2 C 3,8 C 0,0 km/h (0 Bft) 95,83 %
04.01.2012 03:30 3,8 C 89 % 1015,3 hPa 0,0 l/m 0,0 km/h (0 Bft) N-NO 30 0 min 0,000 mm 0 W/m 2,2 C 3,8 C 0,0 km/h (0 Bft) 100,00 %
04.01.2012 03:31 3,8 C 89 % 1015,3 hPa 0,0 l/m 0,0 km/h (0 Bft) N-NO 30 0 min 0,000 mm 0 W/m 2,2 C 3,8 C 0,0 km/h (0 Bft) 100,00 %
04.01.2012 03:32 3,7 C 89 % 1015,3 hPa 0,0 l/m 0,0 km/h (0 Bft) N-NO 29 0 min 0,000 mm 0 W/m 2,1 C 3,7 C 0,0 km/h (0 Bft) 100,00 %
04.01.2012 03:33 3,7 C 89 % 1015,3 hPa 0,0 l/m 0,0 km/h (0 Bft) N-NO 29 0 min 0,000 mm 0 W/m 2,1 C 3,7 C 0,0 km/h (0 Bft) 100,00 %
04.01.2012 03:34 3,7 C 89 % 1015,3 hPa 0,0 l/m 0,0 km/h (0 Bft) N-NO 29 0 min 0,000 mm 0 W/m 2,1 C 3,7 C 0,0 km/h (0 Bft) 100,00 %
04.01.2012 03:35 3,7 C 90 % 1015,3 hPa 0,0 l/m 0,0 km/h (0 Bft) N-NO 29 0 min 0,000 mm 0 W/m 2,2 C 3,7 C 0,0 km/h (0 Bft) 100,00 %
04.01.2012 03:36 3,7 C 90 % 1015,3 hPa 0,0 l/m 0,0 km/h (0 Bft) N-NO 30 0 min 0,000 mm 0 W/m 2,2 C 3,7 C 0,0 km/h (0 Bft) 100,00 %
04.01.2012 03:37 3,7 C 90 % 1015,2 hPa 0,0 l/m 0,0 km/h (0 Bft) N-NO 30 0 min 0,000 mm 0 W/m 2,2 C 3,7 C 0,0 km/h (0 Bft) 100,00 %
04.01.2012 03:38 3,7 C 90 % 1015,2 hPa 0,0 l/m 0,0 km/h (0 Bft) N-NO 30 0 min 0,000 mm 0 W/m 2,2 C 3,7 C 0,0 km/h (0 Bft) 100,00 %
04.01.2012 03:39 3,7 C 90 % 1015,3 hPa 0,0 l/m 0,0 km/h (0 Bft) N-NO 29 0 min 0,000 mm 0 W/m 2,2 C 3,7 C 0,0 km/h (0 Bft) 100,00 %
04.01.2012 03:40 3,7 C 90 % 1015,1 hPa 0,0 l/m 0,0 km/h (0 Bft) N-NO 29 0 min 0,000 mm 0 W/m 2,2 C 3,7 C 0,0 km/h (0 Bft) 100,00 %
04.01.2012 03:41 3,7 C 90 % 1015,1 hPa 0,0 l/m 0,0 km/h (0 Bft) N-NO 29 0 min 0,000 mm 0 W/m 2,2 C 3,7 C 0,0 km/h (0 Bft) 100,00 %
04.01.2012 03:42 3,7 C 90 % 1015,1 hPa 0,0 l/m 0,0 km/h (0 Bft) N-NO 30 0 min 0,000 mm 0 W/m 2,2 C 3,7 C 0,0 km/h (0 Bft) 100,00 %
04.01.2012 03:43 3,7 C 90 % 1015,0 hPa 0,0 l/m 0,0 km/h (0 Bft) N-NO 30 0 min 0,000 mm 0 W/m 2,2 C 3,7 C 0,0 km/h (0 Bft) 100,00 %
04.01.2012 03:44 3,7 C 90 % 1015,1 hPa 0,0 l/m 0,0 km/h (0 Bft) N-NO 30 0 min 0,000 mm 0 W/m 2,2 C 3,7 C 0,0 km/h (0 Bft) 100,00 %
04.01.2012 03:45 3,7 C 90 % 1015,0 hPa 0,0 l/m 0,0 km/h (0 Bft) N-NO 30 0 min 0,000 mm 0 W/m 2,2 C 3,7 C 0,0 km/h (0 Bft) 100,00 %
04.01.2012 03:46 3,7 C 90 % 1015,0 hPa 0,0 l/m 0,0 km/h (0 Bft) N-NO 29 0 min 0,000 mm 0 W/m 2,2 C 3,7 C 0,0 km/h (0 Bft) 100,00 %
04.01.2012 03:47 3,7 C 90 % 1015,0 hPa 0,0 l/m 0,0 km/h (0 Bft) N-NO 29 0 min 0,000 mm 0 W/m 2,2 C 3,7 C 0,0 km/h (0 Bft) 100,00 %
04.01.2012 03:48 3,7 C 90 % 1015,0 hPa 0,0 l/m 0,0 km/h (0 Bft) N-NO 30 0 min 0,000 mm 0 W/m 2,2 C 3,7 C 0,0 km/h (0 Bft) 100,00 %
04.01.2012 03:49 3,7 C 90 % 1015,0 hPa 0,0 l/m 0,0 km/h (0 Bft) N-NO 30 0 min 0,000 mm 0 W/m 2,2 C 3,7 C 0,0 km/h (0 Bft) 100,00 %
04.01.2012 03:50 3,6 C 90 % 1014,9 hPa 0,0 l/m 0,0 km/h (0 Bft) N-NO 30 0 min 0,000 mm 0 W/m 2,1 C 3,6 C 0,0 km/h (0 Bft) 100,00 %
04.01.2012 03:51 3,6 C 89 % 1015,0 hPa 0,0 l/m 0,0 km/h (0 Bft) N-NO 30 0 min 0,000 mm 0 W/m 2,0 C 3,6 C 0,0 km/h (0 Bft) 100,00 %
04.01.2012 03:52 3,6 C 89 % 1015,0 hPa 0,0 l/m 0,0 km/h (0 Bft) N-NO 30 0 min 0,000 mm 0 W/m 2,0 C 3,6 C 0,0 km/h (0 Bft) 100,00 %
04.01.2012 03:53 3,6 C 89 % 1014,9 hPa 0,0 l/m 0,0 km/h (0 Bft) N-NO 29 0 min 0,000 mm 0 W/m 2,0 C 3,6 C 0,0 km/h (0 Bft) 100,00 %
04.01.2012 03:54 3,6 C 89 % 1014,9 hPa 0,0 l/m 0,0 km/h (0 Bft) N-NO 30 0 min 0,000 mm 0 W/m 2,0 C 3,6 C 0,0 km/h (0 Bft) 100,00 %
04.01.2012 03:55 3,6 C 89 % 1014,9 hPa 0,0 l/m 0,0 km/h (0 Bft) N-NO 30 0 min 0,000 mm 0 W/m 2,0 C 3,6 C 0,0 km/h (0 Bft) 95,83 %
04.01.2012 03:56 3,6 C 89 % 1014,9 hPa 0,0 l/m 0,0 km/h (0 Bft) N-NO 30 0 min 0,000 mm 0 W/m 2,0 C 3,6 C 0,0 km/h (0 Bft) 100,00 %
04.01.2012 03:57 3,6 C 89 % 1014,9 hPa 0,0 l/m 0,0 km/h (0 Bft) N-NO 30 0 min 0,000 mm 0 W/m 2,0 C 3,6 C 0,0 km/h (0 Bft) 100,00 %
04.01.2012 03:58 3,6 C 89 % 1014,9 hPa 0,0 l/m 0,0 km/h (0 Bft) N-NO 30 0 min 0,000 mm 0 W/m 2,0 C 3,6 C 0,0 km/h (0 Bft) 100,00 %
04.01.2012 03:59 3,6 C 89 % 1014,9 hPa 0,0 l/m 0,0 km/h (0 Bft) N-NO 30 0 min 0,000 mm 0 W/m 2,0 C 3,6 C 0,0 km/h (0 Bft) 100,00 %
04.01.2012 04:00 3,6 C 89 % 1014,9 hPa 0,0 l/m 0,0 km/h (0 Bft) N-NO 29 0 min 0,000 mm 0 W/m 2,0 C 3,6 C 0,0 km/h (0 Bft) 100,00 %
04.01.2012 04:01 3,6 C 89 % 1014,9 hPa 0,0 l/m 0,0 km/h (0 Bft) N-NO 30 0 min 0,000 mm 0 W/m 2,0 C 3,6 C 0,0 km/h (0 Bft) 100,00 %
04.01.2012 04:02 3,6 C 90 % 1015,0 hPa 0,0 l/m 0,0 km/h (0 Bft) N-NO 30 0 min 0,000 mm 0 W/m 2,1 C 3,6 C 0,0 km/h (0 Bft) 100,00 %
04.01.2012 04:03 3,6 C 90 % 1015,0 hPa 0,0 l/m 0,0 km/h (0 Bft) N-NO 30 0 min 0,000 mm 0 W/m 2,1 C 3,6 C 0,0 km/h (0 Bft) 100,00 %
04.01.2012 04:04 3,5 C 90 % 1015,0 hPa 0,0 l/m 0,0 km/h (0 Bft) N-NO 30 0 min 0,000 mm 0 W/m 2,0 C 3,5 C 0,0 km/h (0 Bft) 100,00 %
04.01.2012 04:05 3,5 C 90 % 1015,0 hPa 0,0 l/m 0,0 km/h (0 Bft) N-NO 30 0 min 0,000 mm 0 W/m 2,0 C 3,5 C 0,0 km/h (0 Bft) 100,00 %
04.01.2012 04:06 3,5 C 90 % 1015,1 hPa 0,0 l/m 0,0 km/h (0 Bft) N-NO 29 0 min 0,000 mm 0 W/m 2,0 C 3,5 C 0,0 km/h (0 Bft) 100,00 %
04.01.2012 04:07 3,5 C 90 % 1015,1 hPa 0,0 l/m 0,0 km/h (0 Bft) N-NO 29 0 min 0,000 mm 0 W/m 2,0 C 3,5 C 0,0 km/h (0 Bft) 100,00 %
04.01.2012 04:08 3,5 C 90 % 1015,1 hPa 0,0 l/m 0,0 km/h (0 Bft) N-NO 30 0 min 0,000 mm 0 W/m 2,0 C 3,5 C 0,0 km/h (0 Bft) 100,00 %
04.01.2012 04:09 3,5 C 90 % 1015,0 hPa 0,0 l/m 0,0 km/h (0 Bft) N-NO 29 0 min 0,000 mm 0 W/m 2,0 C 3,5 C 0,0 km/h (0 Bft) 100,00 %
04.01.2012 04:10 3,5 C 90 % 1015,0 hPa 0,0 l/m 0,0 km/h (0 Bft) N-NO 30 0 min 0,000 mm 0 W/m 2,0 C 3,5 C 0,0 km/h (0 Bft) 100,00 %
04.01.2012 04:11 3,4 C 90 % 1015,0 hPa 0,0 l/m 0,0 km/h (0 Bft) N-NO 30 0 min 0,000 mm 0 W/m 1,9 C 3,4 C 0,0 km/h (0 Bft) 100,00 %
04.01.2012 04:12 3,4 C 90 % 1015,0 hPa 0,0 l/m 0,0 km/h (0 Bft) N-NO 30 0 min 0,000 mm 0 W/m 1,9 C 3,4 C 0,0 km/h (0 Bft) 100,00 %
04.01.2012 04:13 3,4 C 90 % 1014,9 hPa 0,0 l/m 0,0 km/h (0 Bft) N-NO 29 0 min 0,000 mm 0 W/m 1,9 C 3,4 C 0,0 km/h (0 Bft) 100,00 %
04.01.2012 04:14 3,4 C 90 % 1014,9 hPa 0,0 l/m 0,0 km/h (0 Bft) N-NO 29 0 min 0,000 mm 0 W/m 1,9 C 3,4 C 0,0 km/h (0 Bft) 100,00 %
04.01.2012 04:15 3,4 C 90 % 1014,9 hPa 0,0 l/m 0,0 km/h (0 Bft) N-NO 29 0 min 0,000 mm 0 W/m 1,9 C 3,4 C 0,0 km/h (0 Bft) 100,00 %
04.01.2012 04:16 3,4 C 90 % 1014,9 hPa 0,0 l/m 0,0 km/h (0 Bft) N-NO 29 0 min 0,000 mm 0 W/m 1,9 C 3,4 C 0,0 km/h (0 Bft) 100,00 %
04.01.2012 04:17 3,4 C 90 % 1014,9 hPa 0,0 l/m 0,0 km/h (0 Bft) N-NO 30 0 min 0,000 mm 0 W/m 1,9 C 3,4 C 0,0 km/h (0 Bft) 100,00 %
04.01.2012 04:18 3,4 C 90 % 1014,9 hPa 0,0 l/m 0,0 km/h (0 Bft) N-NO 30 0 min 0,000 mm 0 W/m 1,9 C 3,4 C 0,0 km/h (0 Bft) 100,00 %
04.01.2012 04:19 3,4 C 90 % 1014,7 hPa 0,0 l/m 0,0 km/h (0 Bft) N-NO 30 0 min 0,000 mm 0 W/m 1,9 C 3,4 C 0,0 km/h (0 Bft) 100,00 %
04.01.2012 04:20 3,4 C 90 % 1014,8 hPa 0,0 l/m 0,0 km/h (0 Bft) N-NO 29 0 min 0,000 mm 0 W/m 1,9 C 3,4 C 0,0 km/h (0 Bft) 100,00 %
04.01.2012 04:21 3,4 C 90 % 1014,8 hPa 0,0 l/m 0,0 km/h (0 Bft) N-NO 29 0 min 0,000 mm 0 W/m 1,9 C 3,4 C 0,0 km/h (0 Bft) 100,00 %
04.01.2012 04:22 3,4 C 90 % 1014,8 hPa 0,0 l/m 0,0 km/h (0 Bft) N-NO 29 0 min 0,000 mm 0 W/m 1,9 C 3,4 C 0,0 km/h (0 Bft) 100,00 %
04.01.2012 04:23 3,4 C 90 % 1014,8 hPa 0,0 l/m 0,0 km/h (0 Bft) N-NO 30 0 min 0,000 mm 0 W/m 1,9 C 3,4 C 0,0 km/h (0 Bft) 100,00 %
04.01.2012 04:24 3,4 C 90 % 1014,8 hPa 0,0 l/m 0,0 km/h (0 Bft) N-NO 30 0 min 0,000 mm 0 W/m 1,9 C 3,4 C 0,0 km/h (0 Bft) 100,00 %
04.01.2012 04:25 3,4 C 90 % 1014,7 hPa 0,0 l/m 0,0 km/h (0 Bft) N-NO 30 0 min 0,000 mm 0 W/m 1,9 C 3,4 C 0,0 km/h (0 Bft) 100,00 %
04.01.2012 04:26 3,4 C 90 % 1014,7 hPa 0,0 l/m 0,0 km/h (0 Bft) N-NO 30 0 min 0,000 mm 0 W/m 1,9 C 3,4 C 0,0 km/h (0 Bft) 100,00 %
04.01.2012 04:27 3,3 C 90 % 1014,6 hPa 0,0 l/m 0,0 km/h (0 Bft) N-NO 29 0 min 0,000 mm 0 W/m 1,8 C 3,3 C 0,0 km/h (0 Bft) 100,00 %
04.01.2012 04:28 3,3 C 90 % 1014,5 hPa 0,0 l/m 0,0 km/h (0 Bft) N-NO 29 0 min 0,000 mm 0 W/m 1,8 C 3,3 C 0,0 km/h (0 Bft) 100,00 %
04.01.2012 04:29 3,3 C 90 % 1014,6 hPa 0,0 l/m 0,0 km/h (0 Bft) N-NO 30 0 min 0,000 mm 0 W/m 1,8 C 3,3 C 0,0 km/h (0 Bft) 100,00 %
04.01.2012 04:30 3,3 C 90 % 1014,6 hPa 0,0 l/m 0,0 km/h (0 Bft) N-NO 30 0 min 0,000 mm 0 W/m 1,8 C 3,3 C 0,0 km/h (0 Bft) 100,00 %
04.01.2012 04:31 3,3 C 90 % 1014,6 hPa 0,0 l/m 0,0 km/h (0 Bft) N-NO 30 0 min 0,000 mm 0 W/m 1,8 C 3,3 C 0,0 km/h (0 Bft) 100,00 %
04.01.2012 04:32 3,3 C 90 % 1014,6 hPa 0,0 l/m 0,0 km/h (0 Bft) N-NO 30 0 min 0,000 mm 0 W/m 1,8 C 3,3 C 0,0 km/h (0 Bft) 100,00 %
04.01.2012 04:33 3,3 C 90 % 1014,6 hPa 0,0 l/m 0,0 km/h (0 Bft) N-NO 30 0 min 0,000 mm 0 W/m 1,8 C 3,3 C 0,0 km/h (0 Bft) 100,00 %
04.01.2012 04:34 3,3 C 90 % 1014,6 hPa 0,0 l/m 0,0 km/h (0 Bft) N-NO 29 0 min 0,000 mm 0 W/m 1,8 C 3,3 C 0,0 km/h (0 Bft) 100,00 %
04.01.2012 04:35 3,3 C 90 % 1014,5 hPa 0,0 l/m 0,0 km/h (0 Bft) N-NO 30 0 min 0,000 mm 0 W/m 1,8 C 3,3 C 0,0 km/h (0 Bft) 100,00 %
04.01.2012 04:36 3,3 C 90 % 1014,5 hPa 0,0 l/m 0,0 km/h (0 Bft) N-NO 30 0 min 0,000 mm 0 W/m 1,8 C 3,3 C 0,0 km/h (0 Bft) 100,00 %
04.01.2012 04:37 3,3 C 90 % 1014,4 hPa 0,0 l/m 0,0 km/h (0 Bft) N-NO 30 0 min 0,000 mm 0 W/m 1,8 C 3,3 C 0,0 km/h (0 Bft) 100,00 %
04.01.2012 04:38 3,3 C 90 % 1014,4 hPa 0,0 l/m 0,0 km/h (0 Bft) N-NO 30 0 min 0,000 mm 0 W/m 1,8 C 3,3 C 0,0 km/h (0 Bft) 100,00 %
04.01.2012 04:39 3,3 C 90 % 1014,4 hPa 0,0 l/m 0,0 km/h (0 Bft) N-NO 30 0 min 0,000 mm 0 W/m 1,8 C 3,3 C 0,0 km/h (0 Bft) 95,83 %
04.01.2012 04:40 3,3 C 90 % 1014,4 hPa 0,0 l/m 0,0 km/h (0 Bft) N-NO 29 0 min 0,000 mm 0 W/m 1,8 C 3,3 C 0,0 km/h (0 Bft) 100,00 %
04.01.2012 04:41 3,3 C 90 % 1014,4 hPa 0,0 l/m 0,0 km/h (0 Bft) N-NO 29 0 min 0,000 mm 0 W/m 1,8 C 3,3 C 0,0 km/h (0 Bft) 100,00 %
04.01.2012 04:42 3,3 C 90 % 1014,4 hPa 0,0 l/m 0,0 km/h (0 Bft) N-NO 30 0 min 0,000 mm 0 W/m 1,8 C 3,3 C 0,0 km/h (0 Bft) 100,00 %
04.01.2012 04:43 3,3 C 90 % 1014,4 hPa 0,0 l/m 0,0 km/h (0 Bft) N-NO 30 0 min 0,000 mm 0 W/m 1,8 C 3,3 C 0,0 km/h (0 Bft) 100,00 %
04.01.2012 04:44 3,2 C 90 % 1014,3 hPa 0,0 l/m 0,0 km/h (0 Bft) N-NO 30 0 min 0,000 mm 0 W/m 1,7 C 3,2 C 0,0 km/h (0 Bft) 100,00 %
04.01.2012 04:45 3,2 C 90 % 1014,3 hPa 0,0 l/m 0,0 km/h (0 Bft) N-NO 30 0 min 0,000 mm 0 W/m 1,7 C 3,2 C 0,0 km/h (0 Bft) 100,00 %
04.01.2012 04:46 3,2 C 90 % 1014,3 hPa 0,0 l/m 0,0 km/h (0 Bft) N-NO 30 0 min 0,000 mm 0 W/m 1,7 C 3,2 C 0,0 km/h (0 Bft) 100,00 %
04.01.2012 04:47 3,2 C 90 % 1014,3 hPa 0,0 l/m 0,8 km/h (0 Bft) N-NO 29 0 min 0,000 mm 0 W/m 1,7 C 3,2 C 3,2 km/h (1 Bft) 100,00 %
04.01.2012 04:48 3,2 C 90 % 1014,3 hPa 0,0 l/m 0,8 km/h (0 Bft) N-NO 29 0 min 0,000 mm 0 W/m 1,7 C 3,2 C 3,2 km/h (1 Bft) 100,00 %
04.01.2012 04:49 3,2 C 90 % 1014,3 hPa 0,0 l/m 0,0 km/h (0 Bft) N-NO 27 0 min 0,000 mm 0 W/m 1,7 C 3,2 C 0,0 km/h (0 Bft) 100,00 %
04.01.2012 04:50 3,2 C 90 % 1014,3 hPa 0,0 l/m 0,0 km/h (0 Bft) N-NO 26 0 min 0,000 mm 0 W/m 1,7 C 3,2 C 0,0 km/h (0 Bft) 100,00 %
04.01.2012 04:51 3,2 C 90 % 1014,3 hPa 0,0 l/m 0,0 km/h (0 Bft) N-NO 27 0 min 0,000 mm 0 W/m 1,7 C 3,2 C 0,0 km/h (0 Bft) 100,00 %
04.01.2012 04:52 3,2 C 90 % 1014,3 hPa 0,0 l/m 1,1 km/h (1 Bft) N-NO 26 0 min 0,000 mm 0 W/m 1,7 C 3,2 C 6,4 km/h (2 Bft) 100,00 %
04.01.2012 04:53 3,2 C 90 % 1014,3 hPa 0,0 l/m 0,4 km/h (0 Bft) N-NO 26 0 min 0,000 mm 0 W/m 1,7 C 3,2 C 3,2 km/h (1 Bft) 100,00 %
04.01.2012 04:54 3,1 C 90 % 1014,3 hPa 0,0 l/m 0,0 km/h (0 Bft) N-NO 26 0 min 0,000 mm 0 W/m 1,6 C 3,1 C 0,0 km/h (0 Bft) 100,00 %
04.01.2012 04:55 3,1 C 90 % 1014,3 hPa 0,0 l/m 0,0 km/h (0 Bft) N-NO 26 0 min 0,000 mm 0 W/m 1,6 C 3,1 C 0,0 km/h (0 Bft) 97,44 %
04.01.2012 04:56 3,1 C 90 % 1014,3 hPa 0,0 l/m 0,0 km/h (0 Bft) N-NO 26 0 min 0,000 mm 0 W/m 1,6 C 3,1 C 0,0 km/h (0 Bft) 100,00 %
04.01.2012 04:57 3,1 C 90 % 1014,2 hPa 0,0 l/m 0,0 km/h (0 Bft) N-NO 26 0 min 0,000 mm 0 W/m 1,6 C 3,1 C 0,0 km/h (0 Bft) 100,00 %
04.01.2012 04:58 3,1 C 90 % 1014,2 hPa 0,0 l/m 0,0 km/h (0 Bft) N-NO 26 0 min 0,000 mm 0 W/m 1,6 C 3,1 C 0,0 km/h (0 Bft) 100,00 %
04.01.2012 04:59 3,1 C 90 % 1014,2 hPa 0,0 l/m 0,0 km/h (0 Bft) N-NO 26 0 min 0,000 mm 0 W/m 1,6 C 3,1 C 0,0 km/h (0 Bft) 100,00 %
04.01.2012 05:00 3,1 C 90 % 1014,2 hPa 0,0 l/m 0,0 km/h (0 Bft) N-NO 26 0 min 0,000 mm 0 W/m 1,6 C 3,1 C 0,0 km/h (0 Bft) 100,00 %
04.01.2012 05:01 3,1 C 90 % 1014,2 hPa 0,0 l/m 0,0 km/h (0 Bft) N-NO 26 0 min 0,000 mm 0 W/m 1,6 C 3,1 C 0,0 km/h (0 Bft) 100,00 %
04.01.2012 05:02 3,1 C 90 % 1014,2 hPa 0,0 l/m 0,0 km/h (0 Bft) N-NO 26 0 min 0,000 mm 0 W/m 1,6 C 3,1 C 0,0 km/h (0 Bft) 100,00 %
04.01.2012 05:03 3,1 C 90 % 1014,2 hPa 0,0 l/m 0,0 km/h (0 Bft) N-NO 26 0 min 0,000 mm 0 W/m 1,6 C 3,1 C 0,0 km/h (0 Bft) 100,00 %
04.01.2012 05:04 3,1 C 90 % 1014,2 hPa 0,0 l/m 0,0 km/h (0 Bft) N-NO 26 0 min 0,000 mm 0 W/m 1,6 C 3,1 C 0,0 km/h (0 Bft) 100,00 %
04.01.2012 05:05 3,1 C 90 % 1014,1 hPa 0,0 l/m 0,0 km/h (0 Bft) N-NO 26 0 min 0,000 mm 0 W/m 1,6 C 3,1 C 0,0 km/h (0 Bft) 100,00 %
04.01.2012 05:06 3,0 C 90 % 1014,1 hPa 0,0 l/m 0,0 km/h (0 Bft) N-NO 26 0 min 0,000 mm 0 W/m 1,5 C 3,0 C 0,0 km/h (0 Bft) 100,00 %
04.01.2012 05:07 3,0 C 90 % 1014,1 hPa 0,0 l/m 0,0 km/h (0 Bft) N-NO 26 0 min 0,000 mm 0 W/m 1,5 C 3,0 C 0,0 km/h (0 Bft) 95,83 %
04.01.2012 05:08 3,0 C 90 % 1014,1 hPa 0,0 l/m 0,0 km/h (0 Bft) N-NO 26 0 min 0,000 mm 0 W/m 1,5 C 3,0 C 0,0 km/h (0 Bft) 100,00 %
04.01.2012 05:09 3,0 C 90 % 1014,1 hPa 0,0 l/m 0,0 km/h (0 Bft) N-NO 26 0 min 0,000 mm 0 W/m 1,5 C 3,0 C 0,0 km/h (0 Bft) 100,00 %
04.01.2012 05:10 3,0 C 91 % 1014,1 hPa 0,0 l/m 0,0 km/h (0 Bft) N-NO 26 0 min 0,000 mm 0 W/m 1,7 C 3,0 C 0,0 km/h (0 Bft) 100,00 %
04.01.2012 05:11 3,0 C 91 % 1014,0 hPa 0,0 l/m 0,0 km/h (0 Bft) N-NO 26 0 min 0,000 mm 0 W/m 1,7 C 3,0 C 0,0 km/h (0 Bft) 100,00 %
04.01.2012 05:12 3,0 C 91 % 1014,1 hPa 0,0 l/m 0,0 km/h (0 Bft) N-NO 26 0 min 0,000 mm 0 W/m 1,7 C 3,0 C 0,0 km/h (0 Bft) 100,00 %
04.01.2012 05:13 2,9 C 91 % 1014,1 hPa 0,0 l/m 1,2 km/h (1 Bft) N-NO 26 0 min 0,000 mm 0 W/m 1,6 C 2,9 C 4,8 km/h (1 Bft) 96,00 %
04.01.2012 05:14 2,9 C 91 % 1014,0 hPa 0,0 l/m 0,0 km/h (0 Bft) N-NO 26 0 min 0,000 mm 0 W/m 1,6 C 2,9 C 0,0 km/h (0 Bft) 100,00 %
04.01.2012 05:15 2,9 C 91 % 1014,1 hPa 0,0 l/m 0,0 km/h (0 Bft) N-NO 26 0 min 0,000 mm 0 W/m 1,6 C 2,9 C 0,0 km/h (0 Bft) 100,00 %
04.01.2012 05:16 2,9 C 91 % 1014,0 hPa 0,0 l/m 0,0 km/h (0 Bft) N-NO 26 0 min 0,000 mm 0 W/m 1,6 C 2,9 C 0,0 km/h (0 Bft) 100,00 %
04.01.2012 05:17 2,9 C 91 % 1014,0 hPa 0,0 l/m 0,0 km/h (0 Bft) N-NO 26 0 min 0,000 mm 0 W/m 1,6 C 2,9 C 0,0 km/h (0 Bft) 100,00 %
04.01.2012 05:18 2,9 C 91 % 1013,9 hPa 0,0 l/m 0,0 km/h (0 Bft) N-NO 26 0 min 0,000 mm 0 W/m 1,6 C 2,9 C 0,0 km/h (0 Bft) 100,00 %
04.01.2012 05:19 2,9 C 91 % 1014,0 hPa 0,0 l/m 0,0 km/h (0 Bft) N-NO 26 0 min 0,000 mm 0 W/m 1,6 C 2,9 C 0,0 km/h (0 Bft) 100,00 %
04.01.2012 05:20 2,9 C 91 % 1013,9 hPa 0,0 l/m 0,0 km/h (0 Bft) N-NO 26 0 min 0,000 mm 0 W/m 1,6 C 2,9 C 0,0 km/h (0 Bft) 100,00 %
04.01.2012 05:21 2,9 C 91 % 1014,0 hPa 0,0 l/m 0,0 km/h (0 Bft) N-NO 26 0 min 0,000 mm 0 W/m 1,6 C 2,9 C 0,0 km/h (0 Bft) 100,00 %
04.01.2012 05:22 2,9 C 91 % 1014,0 hPa 0,0 l/m 0,0 km/h (0 Bft) N-NO 26 0 min 0,000 mm 0 W/m 1,6 C 2,9 C 0,0 km/h (0 Bft) 100,00 %
04.01.2012 05:23 2,9 C 91 % 1014,1 hPa 0,0 l/m 0,0 km/h (0 Bft) N-NO 26 0 min 0,000 mm 0 W/m 1,6 C 2,9 C 0,0 km/h (0 Bft) 100,00 %
04.01.2012 05:24 2,9 C 91 % 1014,0 hPa 0,0 l/m 0,0 km/h (0 Bft) N-NO 26 0 min 0,000 mm 0 W/m 1,6 C 2,9 C 0,0 km/h (0 Bft) 100,00 %
04.01.2012 05:25 2,9 C 91 % 1014,0 hPa 0,0 l/m 0,2 km/h (0 Bft) N-NO 29 0 min 0,000 mm 0 W/m 1,6 C 2,9 C 3,2 km/h (1 Bft) 100,00 %
04.01.2012 05:26 2,9 C 91 % 1013,9 hPa 0,0 l/m 2,0 km/h (1 Bft) N-NO 29 0 min 0,000 mm 0 W/m 1,6 C 2,9 C 4,8 km/h (1 Bft) 100,00 %
04.01.2012 05:27 2,9 C 91 % 1014,0 hPa 0,0 l/m 0,0 km/h (0 Bft) N-NO 29 0 min 0,000 mm 0 W/m 1,6 C 2,9 C 0,0 km/h (0 Bft) 100,00 %
04.01.2012 05:28 2,9 C 91 % 1014,0 hPa 0,0 l/m 0,0 km/h (0 Bft) N-NO 29 0 min 0,000 mm 0 W/m 1,6 C 2,9 C 0,0 km/h (0 Bft) 100,00 %
04.01.2012 05:29 2,9 C 91 % 1014,0 hPa 0,0 l/m 0,0 km/h (0 Bft) N-NO 29 0 min 0,000 mm 0 W/m 1,6 C 2,9 C 0,0 km/h (0 Bft) 100,00 %
04.01.2012 05:30 2,9 C 91 % 1014,0 hPa 0,0 l/m 0,0 km/h (0 Bft) N-NO 29 0 min 0,000 mm 0 W/m 1,6 C 2,9 C 0,0 km/h (0 Bft) 100,00 %
04.01.2012 05:31 2,9 C 91 % 1013,9 hPa 0,0 l/m 0,0 km/h (0 Bft) N-NO 29 0 min 0,000 mm 0 W/m 1,6 C 2,9 C 0,0 km/h (0 Bft) 100,00 %
04.01.2012 05:32 2,9 C 91 % 1014,0 hPa 0,0 l/m 0,0 km/h (0 Bft) N-NO 29 0 min 0,000 mm 0 W/m 1,6 C 2,9 C 0,0 km/h (0 Bft) 100,00 %
04.01.2012 05:33 2,9 C 91 % 1013,9 hPa 0,0 l/m 0,0 km/h (0 Bft) N-NO 29 0 min 0,000 mm 0 W/m 1,6 C 2,9 C 0,0 km/h (0 Bft) 100,00 %
04.01.2012 05:34 2,9 C 91 % 1013,9 hPa 0,0 l/m 0,0 km/h (0 Bft) N-NO 29 0 min 0,000 mm 0 W/m 1,6 C 2,9 C 0,0 km/h (0 Bft) 100,00 %
04.01.2012 05:35 2,9 C 91 % 1013,8 hPa 0,0 l/m 0,0 km/h (0 Bft) N-NO 29 0 min 0,000 mm 0 W/m 1,6 C 2,9 C 0,0 km/h (0 Bft) 100,00 %
04.01.2012 05:36 2,9 C 91 % 1013,8 hPa 0,0 l/m 0,0 km/h (0 Bft) N-NO 29 0 min 0,000 mm 0 W/m 1,6 C 2,9 C 0,0 km/h (0 Bft) 100,00 %
04.01.2012 05:37 2,9 C 91 % 1013,8 hPa 0,0 l/m 0,0 km/h (0 Bft) N-NO 29 0 min 0,000 mm 0 W/m 1,6 C 2,9 C 0,0 km/h (0 Bft) 100,00 %
04.01.2012 05:38 2,9 C 91 % 1013,8 hPa 0,0 l/m 0,0 km/h (0 Bft) N-NO 29 0 min 0,000 mm 0 W/m 1,6 C 2,9 C 0,0 km/h (0 Bft) 100,00 %
04.01.2012 05:39 2,9 C 91 % 1013,7 hPa 0,0 l/m 0,0 km/h (0 Bft) N-NO 29 0 min 0,000 mm 0 W/m 1,6 C 2,9 C 0,0 km/h (0 Bft) 100,00 %
04.01.2012 05:40 2,9 C 91 % 1013,7 hPa 0,0 l/m 0,0 km/h (0 Bft) N-NO 29 0 min 0,000 mm 0 W/m 1,6 C 2,9 C 0,0 km/h (0 Bft) 100,00 %
04.01.2012 05:41 2,9 C 91 % 1013,6 hPa 0,0 l/m 0,0 km/h (0 Bft) N-NO 29 0 min 0,000 mm 0 W/m 1,6 C 2,9 C 0,0 km/h (0 Bft) 100,00 %
04.01.2012 05:42 2,9 C 91 % 1013,7 hPa 0,0 l/m 0,0 km/h (0 Bft) N-NO 29 0 min 0,000 mm 0 W/m 1,6 C 2,9 C 0,0 km/h (0 Bft) 100,00 %
04.01.2012 05:43 2,9 C 91 % 1013,6 hPa 0,0 l/m 0,0 km/h (0 Bft) N-NO 29 0 min 0,000 mm 0 W/m 1,6 C 2,9 C 0,0 km/h (0 Bft) 100,00 %
04.01.2012 05:44 2,9 C 91 % 1013,6 hPa 0,0 l/m 0,0 km/h (0 Bft) N-NO 29 0 min 0,000 mm 0 W/m 1,6 C 2,9 C 0,0 km/h (0 Bft) 100,00 %
04.01.2012 05:45 2,9 C 91 % 1013,6 hPa 0,0 l/m 0,0 km/h (0 Bft) N-NO 29 0 min 0,000 mm 0 W/m 1,6 C 2,9 C 0,0 km/h (0 Bft) 100,00 %
04.01.2012 05:46 2,9 C 91 % 1013,6 hPa 0,0 l/m 0,0 km/h (0 Bft) N-NO 29 0 min 0,000 mm 0 W/m 1,6 C 2,9 C 0,0 km/h (0 Bft) 95,83 %
04.01.2012 05:47 2,9 C 91 % 1013,6 hPa 0,0 l/m 0,0 km/h (0 Bft) N-NO 29 0 min 0,000 mm 0 W/m 1,6 C 2,9 C 0,0 km/h (0 Bft) 100,00 %
04.01.2012 05:48 2,9 C 91 % 1013,6 hPa 0,0 l/m 0,0 km/h (0 Bft) N-NO 29 0 min 0,000 mm 0 W/m 1,6 C 2,9 C 0,0 km/h (0 Bft) 100,00 %
04.01.2012 05:49 2,9 C 91 % 1013,6 hPa 0,0 l/m 0,0 km/h (0 Bft) N-NO 29 0 min 0,000 mm 0 W/m 1,6 C 2,9 C 0,0 km/h (0 Bft) 100,00 %
04.01.2012 05:50 2,9 C 91 % 1013,5 hPa 0,0 l/m 0,0 km/h (0 Bft) N-NO 29 0 min 0,000 mm 0 W/m 1,6 C 2,9 C 0,0 km/h (0 Bft) 96,00 %
04.01.2012 05:51 2,9 C 91 % 1013,5 hPa 0,0 l/m 0,0 km/h (0 Bft) N-NO 29 0 min 0,000 mm 0 W/m 1,6 C 2,9 C 0,0 km/h (0 Bft) 100,00 %
04.01.2012 05:52 2,9 C 91 % 1013,5 hPa 0,0 l/m 0,0 km/h (0 Bft) N-NO 29 0 min 0,000 mm 0 W/m 1,6 C 2,9 C 0,0 km/h (0 Bft) 100,00 %
04.01.2012 05:53 2,9 C 91 % 1013,4 hPa 0,0 l/m 0,0 km/h (0 Bft) N-NO 29 0 min 0,000 mm 0 W/m 1,6 C 2,9 C 0,0 km/h (0 Bft) 100,00 %
04.01.2012 05:54 2,9 C 91 % 1013,3 hPa 0,0 l/m 0,0 km/h (0 Bft) N-NO 29 0 min 0,000 mm 0 W/m 1,6 C 2,9 C 0,0 km/h (0 Bft) 100,00 %
04.01.2012 05:55 2,9 C 91 % 1013,3 hPa 0,0 l/m 0,0 km/h (0 Bft) N-NO 29 0 min 0,000 mm 0 W/m 1,6 C 2,9 C 0,0 km/h (0 Bft) 100,00 %
04.01.2012 05:56 2,9 C 91 % 1013,3 hPa 0,0 l/m 1,5 km/h (1 Bft) N-NO 29 0 min 0,000 mm 0 W/m 1,6 C 2,9 C 4,8 km/h (1 Bft) 100,00 %
04.01.2012 05:57 3,0 C 91 % 1013,3 hPa 0,0 l/m 2,6 km/h (1 Bft) N-NO 29 0 min 0,000 mm 0 W/m 1,7 C 3,0 C 4,8 km/h (1 Bft) 100,00 %
04.01.2012 05:58 3,0 C 92 % 1013,3 hPa 0,0 l/m 0,0 km/h (0 Bft) N-NO 29 0 min 0,000 mm 0 W/m 1,8 C 3,0 C 0,0 km/h (0 Bft) 100,00 %
04.01.2012 05:59 3,0 C 92 % 1013,3 hPa 0,0 l/m 0,0 km/h (0 Bft) N-NO 29 0 min 0,000 mm 0 W/m 1,8 C 3,0 C 0,0 km/h (0 Bft) 100,00 %
04.01.2012 06:00 3,0 C 92 % 1013,2 hPa 0,0 l/m 0,0 km/h (0 Bft) N-NO 29 0 min 0,000 mm 0 W/m 1,8 C 3,0 C 0,0 km/h (0 Bft) 100,00 %
04.01.2012 06:01 3,0 C 92 % 1013,2 hPa 0,0 l/m 0,0 km/h (0 Bft) N-NO 29 0 min 0,000 mm 0 W/m 1,8 C 3,0 C 0,0 km/h (0 Bft) 96,00 %
04.01.2012 06:02 3,0 C 92 % 1013,2 hPa 0,0 l/m 0,0 km/h (0 Bft) N-NO 29 0 min 0,000 mm 0 W/m 1,8 C 3,0 C 0,0 km/h (0 Bft) 100,00 %
04.01.2012 06:03 3,0 C 92 % 1013,1 hPa 0,0 l/m 0,0 km/h (0 Bft) N-NO 29 0 min 0,000 mm 0 W/m 1,8 C 3,0 C 0,0 km/h (0 Bft) 100,00 %
04.01.2012 06:04 3,1 C 92 % 1013,2 hPa 0,0 l/m 0,0 km/h (0 Bft) N-NO 29 0 min 0,000 mm 0 W/m 1,9 C 3,1 C 0,0 km/h (0 Bft) 100,00 %
04.01.2012 06:05 3,1 C 92 % 1013,2 hPa 0,0 l/m 0,0 km/h (0 Bft) N-NO 29 0 min 0,000 mm 0 W/m 1,9 C 3,1 C 0,0 km/h (0 Bft) 100,00 %
04.01.2012 06:06 3,1 C 92 % 1013,1 hPa 0,0 l/m 0,0 km/h (0 Bft) N-NO 29 0 min 0,000 mm 0 W/m 1,9 C 3,1 C 0,0 km/h (0 Bft) 95,83 %
04.01.2012 06:07 3,1 C 92 % 1013,1 hPa 0,0 l/m 0,0 km/h (0 Bft) N-NO 29 0 min 0,000 mm 0 W/m 1,9 C 3,1 C 0,0 km/h (0 Bft) 100,00 %
04.01.2012 06:08 3,1 C 92 % 1013,2 hPa 0,0 l/m 1,3 km/h (1 Bft) N-NO 29 0 min 0,000 mm 0 W/m 1,9 C 3,1 C 4,8 km/h (1 Bft) 100,00 %
04.01.2012 06:09 3,1 C 92 % 1013,2 hPa 0,0 l/m 0,0 km/h (0 Bft) N-NO 29 0 min 0,000 mm 0 W/m 1,9 C 3,1 C 0,0 km/h (0 Bft) 100,00 %
04.01.2012 06:10 3,1 C 92 % 1013,2 hPa 0,0 l/m 0,0 km/h (0 Bft) N-NO 29 0 min 0,000 mm 0 W/m 1,9 C 3,1 C 0,0 km/h (0 Bft) 100,00 %
04.01.2012 06:11 3,1 C 92 % 1013,2 hPa 0,0 l/m 0,0 km/h (0 Bft) N-NO 29 0 min 0,000 mm 0 W/m 1,9 C 3,1 C 0,0 km/h (0 Bft) 100,00 %
04.01.2012 06:12 3,1 C 92 % 1013,1 hPa 0,0 l/m 0,0 km/h (0 Bft) N-NO 29 0 min 0,000 mm 0 W/m 1,9 C 3,1 C 0,0 km/h (0 Bft) 100,00 %
04.01.2012 06:13 3,1 C 92 % 1013,1 hPa 0,0 l/m 0,0 km/h (0 Bft) N-NO 29 0 min 0,000 mm 0 W/m 1,9 C 3,1 C 0,0 km/h (0 Bft) 100,00 %
04.01.2012 06:14 3,1 C 92 % 1013,1 hPa 0,0 l/m 0,0 km/h (0 Bft) N-NO 29 0 min 0,000 mm 0 W/m 1,9 C 3,1 C 0,0 km/h (0 Bft) 100,00 %
04.01.2012 06:15 3,1 C 92 % 1013,1 hPa 0,0 l/m 0,0 km/h (0 Bft) N-NO 29 0 min 0,000 mm 0 W/m 1,9 C 3,1 C 0,0 km/h (0 Bft) 100,00 %
04.01.2012 06:16 3,1 C 92 % 1013,1 hPa 0,0 l/m 0,0 km/h (0 Bft) N-NO 29 0 min 0,000 mm 0 W/m 1,9 C 3,1 C 0,0 km/h (0 Bft) 100,00 %
04.01.2012 06:17 3,1 C 92 % 1013,1 hPa 0,0 l/m 0,0 km/h (0 Bft) N-NO 29 0 min 0,000 mm 0 W/m 1,9 C 3,1 C 0,0 km/h (0 Bft) 100,00 %
04.01.2012 06:18 3,1 C 92 % 1013,0 hPa 0,0 l/m 0,0 km/h (0 Bft) N-NO 29 0 min 0,000 mm 0 W/m 1,9 C 3,1 C 0,0 km/h (0 Bft) 100,00 %
04.01.2012 06:19 3,1 C 92 % 1013,0 hPa 0,0 l/m 0,0 km/h (0 Bft) N-NO 29 0 min 0,000 mm 0 W/m 1,9 C 3,1 C 0,0 km/h (0 Bft) 100,00 %
04.01.2012 06:20 3,2 C 92 % 1013,0 hPa 0,0 l/m 0,0 km/h (0 Bft) N-NO 29 0 min 0,000 mm 0 W/m 2,0 C 3,2 C 0,0 km/h (0 Bft) 100,00 %
04.01.2012 06:21 3,2 C 92 % 1013,1 hPa 0,0 l/m 0,0 km/h (0 Bft) N-NO 29 0 min 0,000 mm 0 W/m 2,0 C 3,2 C 0,0 km/h (0 Bft) 100,00 %
04.01.2012 06:22 3,2 C 92 % 1013,1 hPa 0,0 l/m 0,0 km/h (0 Bft) N-NO 29 0 min 0,000 mm 0 W/m 2,0 C 3,2 C 0,0 km/h (0 Bft) 100,00 %
04.01.2012 06:23 3,2 C 92 % 1013,1 hPa 0,0 l/m 0,0 km/h (0 Bft) N-NO 29 0 min 0,000 mm 0 W/m 2,0 C 3,2 C 0,0 km/h (0 Bft) 100,00 %
04.01.2012 06:24 3,2 C 92 % 1013,1 hPa 0,0 l/m 0,0 km/h (0 Bft) N-NO 29 0 min 0,000 mm 0 W/m 2,0 C 3,2 C 0,0 km/h (0 Bft) 100,00 %
04.01.2012 06:25 3,2 C 92 % 1013,1 hPa 0,0 l/m 0,0 km/h (0 Bft) N-NO 29 0 min 0,000 mm 0 W/m 2,0 C 3,2 C 0,0 km/h (0 Bft) 100,00 %
04.01.2012 06:26 3,2 C 92 % 1013,1 hPa 0,0 l/m 0,0 km/h (0 Bft) N-NO 29 0 min 0,000 mm 0 W/m 2,0 C 3,2 C 0,0 km/h (0 Bft) 100,00 %
04.01.2012 06:27 3,2 C 92 % 1013,0 hPa 0,0 l/m 0,0 km/h (0 Bft) N-NO 29 0 min 0,000 mm 0 W/m 2,0 C 3,2 C 0,0 km/h (0 Bft) 100,00 %
04.01.2012 06:28 3,2 C 92 % 1013,0 hPa 0,0 l/m 0,0 km/h (0 Bft) N-NO 29 0 min 0,000 mm 0 W/m 2,0 C 3,2 C 0,0 km/h (0 Bft) 100,00 %
04.01.2012 06:29 3,2 C 92 % 1013,0 hPa 0,0 l/m 0,0 km/h (0 Bft) N-NO 29 0 min 0,000 mm 0 W/m 2,0 C 3,2 C 0,0 km/h (0 Bft) 100,00 %
04.01.2012 06:30 3,2 C 92 % 1013,0 hPa 0,0 l/m 0,0 km/h (0 Bft) N-NO 29 0 min 0,000 mm 0 W/m 2,0 C 3,2 C 0,0 km/h (0 Bft) 100,00 %
04.01.2012 06:31 3,2 C 92 % 1013,0 hPa 0,0 l/m 0,0 km/h (0 Bft) N-NO 29 0 min 0,000 mm 0 W/m 2,0 C 3,2 C 0,0 km/h (0 Bft) 100,00 %
04.01.2012 06:32 3,2 C 92 % 1013,0 hPa 0,0 l/m 0,0 km/h (0 Bft) N-NO 29 0 min 0,000 mm 0 W/m 2,0 C 3,2 C 0,0 km/h (0 Bft) 100,00 %
04.01.2012 06:33 3,2 C 92 % 1013,0 hPa 0,0 l/m 0,0 km/h (0 Bft) N-NO 29 0 min 0,000 mm 0 W/m 2,0 C 3,2 C 0,0 km/h (0 Bft) 100,00 %
04.01.2012 06:34 3,2 C 92 % 1013,1 hPa 0,0 l/m 0,0 km/h (0 Bft) N-NO 29 0 min 0,000 mm 0 W/m 2,0 C 3,2 C 0,0 km/h (0 Bft) 100,00 %
04.01.2012 06:35 3,2 C 92 % 1013,0 hPa 0,0 l/m 0,0 km/h (0 Bft) N-NO 29 0 min 0,000 mm 0 W/m 2,0 C 3,2 C 0,0 km/h (0 Bft) 100,00 %
04.01.2012 06:36 3,2 C 92 % 1013,0 hPa 0,0 l/m 0,0 km/h (0 Bft) N-NO 29 0 min 0,000 mm 0 W/m 2,0 C 3,2 C 0,0 km/h (0 Bft) 100,00 %
04.01.2012 06:37 3,2 C 92 % 1013,0 hPa 0,0 l/m 0,0 km/h (0 Bft) N-NO 29 0 min 0,000 mm 0 W/m 2,0 C 3,2 C 0,0 km/h (0 Bft) 100,00 %
04.01.2012 06:38 3,2 C 92 % 1013,0 hPa 0,0 l/m 0,0 km/h (0 Bft) N-NO 29 0 min 0,000 mm 0 W/m 2,0 C 3,2 C 0,0 km/h (0 Bft) 100,00 %
04.01.2012 06:39 3,2 C 92 % 1013,0 hPa 0,0 l/m 0,0 km/h (0 Bft) N-NO 29 0 min 0,000 mm 0 W/m 2,0 C 3,2 C 0,0 km/h (0 Bft) 100,00 %
04.01.2012 06:40 3,2 C 92 % 1013,0 hPa 0,0 l/m 0,0 km/h (0 Bft) N-NO 29 0 min 0,000 mm 0 W/m 2,0 C 3,2 C 0,0 km/h (0 Bft) 100,00 %
04.01.2012 06:41 3,3 C 92 % 1013,0 hPa 0,0 l/m 0,0 km/h (0 Bft) N-NO 29 0 min 0,000 mm 0 W/m 2,1 C 3,3 C 0,0 km/h (0 Bft) 100,00 %
04.01.2012 06:42 3,3 C 92 % 1013,0 hPa 0,0 l/m 0,0 km/h (0 Bft) N-NO 29 0 min 0,000 mm 0 W/m 2,1 C 3,3 C 0,0 km/h (0 Bft) 100,00 %
04.01.2012 06:43 3,3 C 92 % 1012,9 hPa 0,0 l/m 0,0 km/h (0 Bft) N-NO 29 0 min 0,000 mm 0 W/m 2,1 C 3,3 C 0,0 km/h (0 Bft) 100,00 %
04.01.2012 06:44 3,3 C 92 % 1012,9 hPa 0,0 l/m 0,0 km/h (0 Bft) N-NO 29 0 min 0,000 mm 0 W/m 2,1 C 3,3 C 0,0 km/h (0 Bft) 100,00 %
04.01.2012 06:45 3,3 C 92 % 1013,0 hPa 0,0 l/m 0,0 km/h (0 Bft) N-NO 29 0 min 0,000 mm 0 W/m 2,1 C 3,3 C 0,0 km/h (0 Bft) 100,00 %
04.01.2012 06:46 3,3 C 92 % 1013,0 hPa 0,0 l/m 0,0 km/h (0 Bft) N-NO 29 0 min 0,000 mm 0 W/m 2,1 C 3,3 C 0,0 km/h (0 Bft) 100,00 %
04.01.2012 06:47 3,3 C 92 % 1013,0 hPa 0,0 l/m 0,0 km/h (0 Bft) N-NO 29 0 min 0,000 mm 0 W/m 2,1 C 3,3 C 0,0 km/h (0 Bft) 100,00 %
04.01.2012 06:48 3,3 C 92 % 1012,9 hPa 0,0 l/m 0,0 km/h (0 Bft) N-NO 29 0 min 0,000 mm 0 W/m 2,1 C 3,3 C 0,0 km/h (0 Bft) 100,00 %
04.01.2012 06:49 3,3 C 92 % 1012,9 hPa 0,0 l/m 0,0 km/h (0 Bft) N-NO 29 0 min 0,000 mm 0 W/m 2,1 C 3,3 C 0,0 km/h (0 Bft) 100,00 %
04.01.2012 06:50 3,3 C 92 % 1012,9 hPa 0,0 l/m 0,0 km/h (0 Bft) N-NO 29 0 min 0,000 mm 0 W/m 2,1 C 3,3 C 0,0 km/h (0 Bft) 100,00 %
04.01.2012 06:51 3,3 C 92 % 1012,9 hPa 0,0 l/m 0,0 km/h (0 Bft) N-NO 29 0 min 0,000 mm 0 W/m 2,1 C 3,3 C 0,0 km/h (0 Bft) 100,00 %
04.01.2012 06:52 3,3 C 92 % 1012,9 hPa 0,0 l/m 0,0 km/h (0 Bft) N-NO 29 0 min 0,000 mm 0 W/m 2,1 C 3,3 C 0,0 km/h (0 Bft) 100,00 %
04.01.2012 06:53 3,3 C 92 % 1012,9 hPa 0,0 l/m 0,0 km/h (0 Bft) N-NO 29 0 min 0,000 mm 0 W/m 2,1 C 3,3 C 0,0 km/h (0 Bft) 100,00 %
04.01.2012 06:54 3,3 C 92 % 1012,9 hPa 0,0 l/m 0,0 km/h (0 Bft) N-NO 29 0 min 0,000 mm 0 W/m 2,1 C 3,3 C 0,0 km/h (0 Bft) 100,00 %
04.01.2012 06:55 3,3 C 92 % 1012,9 hPa 0,0 l/m 0,0 km/h (0 Bft) N-NO 29 0 min 0,000 mm 0 W/m 2,1 C 3,3 C 0,0 km/h (0 Bft) 100,00 %
04.01.2012 06:56 3,3 C 92 % 1012,9 hPa 0,0 l/m 0,0 km/h (0 Bft) N-NO 29 0 min 0,000 mm 0 W/m 2,1 C 3,3 C 0,0 km/h (0 Bft) 100,00 %
04.01.2012 06:57 3,3 C 92 % 1012,9 hPa 0,0 l/m 0,0 km/h (0 Bft) N-NO 29 0 min 0,000 mm 0 W/m 2,1 C 3,3 C 0,0 km/h (0 Bft) 100,00 %
04.01.2012 06:58 3,3 C 92 % 1012,9 hPa 0,0 l/m 0,0 km/h (0 Bft) N-NO 29 0 min 0,000 mm 0 W/m 2,1 C 3,3 C 0,0 km/h (0 Bft) 100,00 %
04.01.2012 06:59 3,3 C 92 % 1012,8 hPa 0,0 l/m 1,2 km/h (1 Bft) N-NO 29 0 min 0,000 mm 0 W/m 2,1 C 3,3 C 4,8 km/h (1 Bft) 100,00 %
04.01.2012 07:00 3,3 C 92 % 1012,8 hPa 0,0 l/m 0,0 km/h (0 Bft) N-NO 29 0 min 0,000 mm 0 W/m 2,1 C 3,3 C 0,0 km/h (0 Bft) 100,00 %
04.01.2012 07:01 3,3 C 92 % 1012,9 hPa 0,0 l/m 0,0 km/h (0 Bft) N-NO 29 0 min 0,000 mm 0 W/m 2,1 C 3,3 C 0,0 km/h (0 Bft) 100,00 %
04.01.2012 07:02 3,3 C 92 % 1012,9 hPa 0,0 l/m 0,0 km/h (0 Bft) N-NO 29 0 min 0,000 mm 0 W/m 2,1 C 3,3 C 0,0 km/h (0 Bft) 100,00 %
04.01.2012 07:03 3,3 C 92 % 1012,9 hPa 0,0 l/m 0,0 km/h (0 Bft) N-NO 29 0 min 0,000 mm 0 W/m 2,1 C 3,3 C 0,0 km/h (0 Bft) 100,00 %
04.01.2012 07:04 3,3 C 92 % 1012,9 hPa 0,0 l/m 0,0 km/h (0 Bft) N-NO 29 0 min 0,000 mm 0 W/m 2,1 C 3,3 C 0,0 km/h (0 Bft) 100,00 %
04.01.2012 07:05 3,3 C 92 % 1012,9 hPa 0,0 l/m 0,0 km/h (0 Bft) N-NO 29 0 min 0,000 mm 0 W/m 2,1 C 3,3 C 0,0 km/h (0 Bft) 100,00 %
04.01.2012 07:06 3,3 C 92 % 1012,9 hPa 0,0 l/m 0,0 km/h (0 Bft) N-NO 29 0 min 0,000 mm 0 W/m 2,1 C 3,3 C 0,0 km/h (0 Bft) 100,00 %
04.01.2012 07:07 3,3 C 92 % 1012,9 hPa 0,0 l/m 0,0 km/h (0 Bft) N-NO 29 0 min 0,000 mm 0 W/m 2,1 C 3,3 C 0,0 km/h (0 Bft) 100,00 %
04.01.2012 07:08 3,3 C 92 % 1012,9 hPa 0,0 l/m 0,0 km/h (0 Bft) N-NO 29 0 min 0,000 mm 0 W/m 2,1 C 3,3 C 0,0 km/h (0 Bft) 100,00 %
04.01.2012 07:09 3,3 C 92 % 1012,9 hPa 0,0 l/m 0,0 km/h (0 Bft) N-NO 29 0 min 0,000 mm 0 W/m 2,1 C 3,3 C 0,0 km/h (0 Bft) 100,00 %
04.01.2012 07:10 3,3 C 92 % 1013,0 hPa 0,0 l/m 0,0 km/h (0 Bft) N-NO 29 0 min 0,000 mm 0 W/m 2,1 C 3,3 C 0,0 km/h (0 Bft) 100,00 %
04.01.2012 07:11 3,3 C 92 % 1012,9 hPa 0,0 l/m 0,0 km/h (0 Bft) N-NO 29 0 min 0,000 mm 0 W/m 2,1 C 3,3 C 0,0 km/h (0 Bft) 100,00 %
04.01.2012 07:12 3,3 C 92 % 1013,0 hPa 0,0 l/m 0,0 km/h (0 Bft) N-NO 29 0 min 0,000 mm 0 W/m 2,1 C 3,3 C 0,0 km/h (0 Bft) 100,00 %
04.01.2012 07:13 3,3 C 92 % 1012,9 hPa 0,0 l/m 0,0 km/h (0 Bft) N-NO 29 0 min 0,000 mm 0 W/m 2,1 C 3,3 C 0,0 km/h (0 Bft) 100,00 %
04.01.2012 07:14 3,3 C 92 % 1012,9 hPa 0,0 l/m 0,0 km/h (0 Bft) N-NO 29 0 min 0,000 mm 0 W/m 2,1 C 3,3 C 0,0 km/h (0 Bft) 100,00 %
04.01.2012 07:15 3,3 C 92 % 1013,0 hPa 0,0 l/m 0,0 km/h (0 Bft) N-NO 29 0 min 0,000 mm 0 W/m 2,1 C 3,3 C 0,0 km/h (0 Bft) 100,00 %
04.01.2012 07:16 3,3 C 92 % 1013,0 hPa 0,0 l/m 0,0 km/h (0 Bft) N-NO 29 0 min 0,000 mm 0 W/m 2,1 C 3,3 C 0,0 km/h (0 Bft) 100,00 %
04.01.2012 07:17 3,3 C 92 % 1012,9 hPa 0,0 l/m 0,0 km/h (0 Bft) N-NO 29 0 min 0,000 mm 0 W/m 2,1 C 3,3 C 0,0 km/h (0 Bft) 100,00 %
04.01.2012 07:18 3,3 C 92 % 1012,9 hPa 0,0 l/m 0,0 km/h (0 Bft) N-NO 29 0 min 0,000 mm 0 W/m 2,1 C 3,3 C 0,0 km/h (0 Bft) 100,00 %
04.01.2012 07:19 3,3 C 92 % 1012,8 hPa 0,0 l/m 0,0 km/h (0 Bft) N-NO 29 0 min 0,000 mm 0 W/m 2,1 C 3,3 C 0,0 km/h (0 Bft) 100,00 %
04.01.2012 07:20 3,2 C 92 % 1012,8 hPa 0,0 l/m 0,0 km/h (0 Bft) N-NO 29 0 min 0,000 mm 0 W/m 2,0 C 3,2 C 0,0 km/h (0 Bft) 100,00 %
04.01.2012 07:21 3,2 C 92 % 1012,8 hPa 0,0 l/m 0,0 km/h (0 Bft) N-NO 29 0 min 0,000 mm 0 W/m 2,0 C 3,2 C 0,0 km/h (0 Bft) 100,00 %
04.01.2012 07:22 3,2 C 92 % 1012,8 hPa 0,0 l/m 0,0 km/h (0 Bft) N-NO 29 0 min 0,000 mm 0 W/m 2,0 C 3,2 C 0,0 km/h (0 Bft) 100,00 %
04.01.2012 07:23 3,2 C 92 % 1012,7 hPa 0,0 l/m 0,0 km/h (0 Bft) N-NO 29 0 min 0,000 mm 0 W/m 2,0 C 3,2 C 0,0 km/h (0 Bft) 100,00 %
04.01.2012 07:24 3,2 C 92 % 1012,7 hPa 0,0 l/m 0,0 km/h (0 Bft) N-NO 29 0 min 0,000 mm 0 W/m 2,0 C 3,2 C 0,0 km/h (0 Bft) 100,00 %
04.01.2012 07:25 3,2 C 92 % 1012,7 hPa 0,0 l/m 0,0 km/h (0 Bft) N-NO 29 0 min 0,000 mm 0 W/m 2,0 C 3,2 C 0,0 km/h (0 Bft) 100,00 %
04.01.2012 07:26 3,2 C 92 % 1012,7 hPa 0,0 l/m 0,0 km/h (0 Bft) N-NO 29 0 min 0,000 mm 0 W/m 2,0 C 3,2 C 0,0 km/h (0 Bft) 100,00 %
04.01.2012 07:27 3,2 C 92 % 1012,7 hPa 0,0 l/m 0,0 km/h (0 Bft) N-NO 29 0 min 0,000 mm 0 W/m 2,0 C 3,2 C 0,0 km/h (0 Bft) 100,00 %
04.01.2012 07:28 3,2 C 92 % 1012,6 hPa 0,0 l/m 0,0 km/h (0 Bft) N-NO 29 0 min 0,000 mm 0 W/m 2,0 C 3,2 C 0,0 km/h (0 Bft) 100,00 %
04.01.2012 07:29 3,2 C 92 % 1012,6 hPa 0,0 l/m 0,0 km/h (0 Bft) N-NO 29 0 min 0,000 mm 0 W/m 2,0 C 3,2 C 0,0 km/h (0 Bft) 100,00 %
04.01.2012 07:30 3,2 C 92 % 1012,5 hPa 0,0 l/m 0,0 km/h (0 Bft) N-NO 29 0 min 0,000 mm 0 W/m 2,0 C 3,2 C 0,0 km/h (0 Bft) 100,00 %
04.01.2012 07:31 3,2 C 92 % 1012,5 hPa 0,0 l/m 0,0 km/h (0 Bft) N-NO 29 0 min 0,000 mm 5 W/m 2,0 C 3,2 C 0,0 km/h (0 Bft) 100,00 %
04.01.2012 07:32 3,2 C 92 % 1012,6 hPa 0,0 l/m 0,0 km/h (0 Bft) N-NO 29 0 min 0,000 mm 7 W/m 2,0 C 3,2 C 0,0 km/h (0 Bft) 100,00 %
04.01.2012 07:33 3,2 C 92 % 1012,5 hPa 0,0 l/m 0,0 km/h (0 Bft) N-NO 29 0 min 0,000 mm 7 W/m 2,0 C 3,2 C 0,0 km/h (0 Bft) 100,00 %
04.01.2012 07:34 3,1 C 92 % 1012,6 hPa 0,0 l/m 0,0 km/h (0 Bft) N-NO 29 0 min 0,000 mm 9 W/m 1,9 C 3,1 C 0,0 km/h (0 Bft) 100,00 %
04.01.2012 07:35 3,1 C 92 % 1012,6 hPa 0,0 l/m 0,0 km/h (0 Bft) N-NO 29 0 min 0,000 mm 9 W/m 1,9 C 3,1 C 0,0 km/h (0 Bft) 100,00 %
04.01.2012 07:36 3,1 C 92 % 1012,6 hPa 0,0 l/m 0,0 km/h (0 Bft) N-NO 29 0 min 0,000 mm 11 W/m 1,9 C 3,1 C 0,0 km/h (0 Bft) 100,00 %
04.01.2012 07:37 3,1 C 92 % 1012,6 hPa 0,0 l/m 0,0 km/h (0 Bft) N-NO 29 0 min 0,000 mm 11 W/m 1,9 C 3,1 C 0,0 km/h (0 Bft) 100,00 %
04.01.2012 07:38 3,1 C 92 % 1012,5 hPa 0,0 l/m 0,0 km/h (0 Bft) N-NO 29 0 min 0,000 mm 12 W/m 1,9 C 3,1 C 0,0 km/h (0 Bft) 100,00 %
04.01.2012 07:39 3,1 C 92 % 1012,4 hPa 0,0 l/m 0,0 km/h (0 Bft) N-NO 29 0 min 0,000 mm 12 W/m 1,9 C 3,1 C 0,0 km/h (0 Bft) 100,00 %
04.01.2012 07:40 3,1 C 92 % 1012,5 hPa 0,0 l/m 0,0 km/h (0 Bft) N-NO 29 0 min 0,000 mm 11 W/m 1,9 C 3,1 C 0,0 km/h (0 Bft) 100,00 %
04.01.2012 07:41 3,1 C 92 % 1012,4 hPa 0,0 l/m 0,0 km/h (0 Bft) N-NO 29 0 min 0,000 mm 11 W/m 1,9 C 3,1 C 0,0 km/h (0 Bft) 100,00 %
04.01.2012 07:42 3,1 C 92 % 1012,4 hPa 0,0 l/m 0,0 km/h (0 Bft) N-NO 29 0 min 0,000 mm 11 W/m 1,9 C 3,1 C 0,0 km/h (0 Bft) 100,00 %
04.01.2012 07:43 3,1 C 92 % 1012,4 hPa 0,0 l/m 0,0 km/h (0 Bft) N-NO 29 0 min 0,000 mm 7 W/m 1,9 C 3,1 C 0,0 km/h (0 Bft) 100,00 %
04.01.2012 07:44 3,1 C 92 % 1012,5 hPa 0,0 l/m 0,0 km/h (0 Bft) N-NO 29 0 min 0,000 mm 5 W/m 1,9 C 3,1 C 0,0 km/h (0 Bft) 100,00 %
04.01.2012 07:45 3,1 C 92 % 1012,4 hPa 0,0 l/m 0,0 km/h (0 Bft) N-NO 29 0 min 0,000 mm 5 W/m 1,9 C 3,1 C 0,0 km/h (0 Bft) 100,00 %
04.01.2012 07:46 3,1 C 92 % 1012,4 hPa 0,0 l/m 0,0 km/h (0 Bft) N-NO 29 0 min 0,000 mm 0 W/m 1,9 C 3,1 C 0,0 km/h (0 Bft) 100,00 %
04.01.2012 07:47 3,1 C 92 % 1012,4 hPa 0,0 l/m 0,0 km/h (0 Bft) N-NO 29 0 min 0,000 mm 0 W/m 1,9 C 3,1 C 0,0 km/h (0 Bft) 100,00 %
04.01.2012 07:48 3,1 C 92 % 1012,4 hPa 0,0 l/m 0,0 km/h (0 Bft) N-NO 29 0 min 0,000 mm 0 W/m 1,9 C 3,1 C 0,0 km/h (0 Bft) 100,00 %
04.01.2012 07:49 3,1 C 92 % 1012,4 hPa 0,0 l/m 0,0 km/h (0 Bft) N-NO 29 0 min 0,000 mm 0 W/m 1,9 C 3,1 C 0,0 km/h (0 Bft) 100,00 %
04.01.2012 07:50 3,1 C 92 % 1012,4 hPa 0,0 l/m 0,0 km/h (0 Bft) N-NO 29 0 min 0,000 mm 0 W/m 1,9 C 3,1 C 0,0 km/h (0 Bft) 100,00 %
04.01.2012 07:51 3,1 C 92 % 1012,4 hPa 0,0 l/m 0,0 km/h (0 Bft) N-NO 29 0 min 0,000 mm 0 W/m 1,9 C 3,1 C 0,0 km/h (0 Bft) 100,00 %
04.01.2012 07:52 3,1 C 92 % 1012,4 hPa 0,0 l/m 0,0 km/h (0 Bft) N-NO 29 0 min 0,000 mm 0 W/m 1,9 C 3,1 C 0,0 km/h (0 Bft) 100,00 %
04.01.2012 07:53 3,1 C 92 % 1012,5 hPa 0,0 l/m 0,0 km/h (0 Bft) N-NO 29 0 min 0,000 mm 0 W/m 1,9 C 3,1 C 0,0 km/h (0 Bft) 100,00 %
04.01.2012 07:54 3,1 C 92 % 1012,4 hPa 0,0 l/m 0,0 km/h (0 Bft) N-NO 29 0 min 0,000 mm 0 W/m 1,9 C 3,1 C 0,0 km/h (0 Bft) 100,00 %
04.01.2012 07:55 3,1 C 92 % 1012,4 hPa 0,0 l/m 0,0 km/h (0 Bft) N-NO 29 0 min 0,000 mm 0 W/m 1,9 C 3,1 C 0,0 km/h (0 Bft) 100,00 %
04.01.2012 07:56 3,1 C 92 % 1012,5 hPa 0,0 l/m 0,0 km/h (0 Bft) N-NO 29 0 min 0,000 mm 0 W/m 1,9 C 3,1 C 0,0 km/h (0 Bft) 100,00 %
04.01.2012 07:57 3,1 C 92 % 1012,5 hPa 0,0 l/m 0,0 km/h (0 Bft) N-NO 29 0 min 0,000 mm 5 W/m 1,9 C 3,1 C 0,0 km/h (0 Bft) 100,00 %
04.01.2012 07:58 3,0 C 92 % 1012,3 hPa 0,0 l/m 0,0 km/h (0 Bft) N-NO 29 0 min 0,000 mm 5 W/m 1,8 C 3,0 C 0,0 km/h (0 Bft) 100,00 %
04.01.2012 07:59 3,1 C 92 % 1012,4 hPa 0,0 l/m 0,0 km/h (0 Bft) N-NO 29 0 min 0,000 mm 5 W/m 1,9 C 3,1 C 0,0 km/h (0 Bft) 100,00 %
04.01.2012 08:00 3,0 C 92 % 1012,4 hPa 0,0 l/m 0,0 km/h (0 Bft) N-NO 29 0 min 0,000 mm 7 W/m 1,8 C 3,0 C 0,0 km/h (0 Bft) 100,00 %
04.01.2012 08:01 3,0 C 92 % 1012,4 hPa 0,0 l/m 0,0 km/h (0 Bft) N-NO 29 0 min 0,000 mm 7 W/m 1,8 C 3,0 C 0,0 km/h (0 Bft) 100,00 %
04.01.2012 08:02 3,0 C 92 % 1012,3 hPa 0,0 l/m 0,0 km/h (0 Bft) N-NO 29 0 min 0,000 mm 9 W/m 1,8 C 3,0 C 0,0 km/h (0 Bft) 100,00 %
04.01.2012 08:03 3,0 C 92 % 1012,4 hPa 0,0 l/m 0,0 km/h (0 Bft) N-NO 29 0 min 0,000 mm 9 W/m 1,8 C 3,0 C 0,0 km/h (0 Bft) 100,00 %
04.01.2012 08:04 3,0 C 92 % 1012,4 hPa 0,0 l/m 0,0 km/h (0 Bft) N-NO 29 0 min 0,000 mm 9 W/m 1,8 C 3,0 C 0,0 km/h (0 Bft) 100,00 %
04.01.2012 08:05 3,0 C 92 % 1012,4 hPa 0,0 l/m 0,0 km/h (0 Bft) N-NO 29 0 min 0,000 mm 9 W/m 1,8 C 3,0 C 0,0 km/h (0 Bft) 100,00 %
04.01.2012 08:06 3,0 C 92 % 1012,5 hPa 0,0 l/m 0,0 km/h (0 Bft) N-NO 29 0 min 0,000 mm 11 W/m 1,8 C 3,0 C 0,0 km/h (0 Bft) 100,00 %
04.01.2012 08:07 3,0 C 92 % 1012,4 hPa 0,0 l/m 0,0 km/h (0 Bft) N-NO 29 0 min 0,000 mm 11 W/m 1,8 C 3,0 C 0,0 km/h (0 Bft) 100,00 %
04.01.2012 08:08 3,0 C 92 % 1012,4 hPa 0,0 l/m 0,0 km/h (0 Bft) N-NO 29 0 min 0,000 mm 12 W/m 1,8 C 3,0 C 0,0 km/h (0 Bft) 100,00 %
04.01.2012 08:09 3,0 C 92 % 1012,3 hPa 0,0 l/m 0,0 km/h (0 Bft) N-NO 29 0 min 0,000 mm 12 W/m 1,8 C 3,0 C 0,0 km/h (0 Bft) 90,91 %
04.01.2012 08:10 3,0 C 92 % 1012,4 hPa 0,0 l/m 0,0 km/h (0 Bft) N-NO 29 0 min 0,000 mm 12 W/m 1,8 C 3,0 C 0,0 km/h (0 Bft) 100,00 %
04.01.2012 08:11 3,0 C 92 % 1012,4 hPa 0,0 l/m 0,0 km/h (0 Bft) N-NO 29 0 min 0,000 mm 12 W/m 1,8 C 3,0 C 0,0 km/h (0 Bft) 100,00 %
04.01.2012 08:12 3,0 C 92 % 1012,4 hPa 0,0 l/m 0,0 km/h (0 Bft) N-NO 29 0 min 0,000 mm 14 W/m 1,8 C 3,0 C 0,0 km/h (0 Bft) 100,00 %
04.01.2012 08:13 2,9 C 92 % 1012,4 hPa 0,0 l/m 0,0 km/h (0 Bft) N-NO 29 0 min 0,000 mm 14 W/m 1,7 C 2,9 C 0,0 km/h (0 Bft) 100,00 %
04.01.2012 08:14 3,0 C 92 % 1012,5 hPa 0,0 l/m 0,0 km/h (0 Bft) N-NO 29 0 min 0,000 mm 14 W/m 1,8 C 3,0 C 0,0 km/h (0 Bft) 100,00 %
04.01.2012 08:15 3,0 C 92 % 1012,5 hPa 0,0 l/m 0,0 km/h (0 Bft) N-NO 29 0 min 0,000 mm 14 W/m 1,8 C 3,0 C 0,0 km/h (0 Bft) 100,00 %
04.01.2012 08:16 3,0 C 92 % 1012,5 hPa 0,0 l/m 0,0 km/h (0 Bft) N-NO 29 0 min 0,000 mm 16 W/m 1,8 C 3,0 C 0,0 km/h (0 Bft) 100,00 %
04.01.2012 08:17 2,9 C 92 % 1012,5 hPa 0,0 l/m 0,0 km/h (0 Bft) N-NO 29 0 min 0,000 mm 16 W/m 1,7 C 2,9 C 0,0 km/h (0 Bft) 100,00 %
04.01.2012 08:18 2,9 C 92 % 1012,5 hPa 0,0 l/m 0,0 km/h (0 Bft) N-NO 29 0 min 0,000 mm 18 W/m 1,7 C 2,9 C 0,0 km/h (0 Bft) 100,00 %
04.01.2012 08:19 2,9 C 92 % 1012,5 hPa 0,0 l/m 0,0 km/h (0 Bft) N-NO 29 0 min 0,000 mm 18 W/m 1,7 C 2,9 C 0,0 km/h (0 Bft) 96,15 %
04.01.2012 08:20 3,0 C 92 % 1012,6 hPa 0,0 l/m 0,0 km/h (0 Bft) N-NO 29 0 min 0,000 mm 18 W/m 1,8 C 3,0 C 0,0 km/h (0 Bft) 100,00 %
04.01.2012 08:21 3,0 C 92 % 1012,5 hPa 0,0 l/m 0,0 km/h (0 Bft) N-NO 29 0 min 0,000 mm 19 W/m 1,8 C 3,0 C 0,0 km/h (0 Bft) 100,00 %
04.01.2012 08:22 3,0 C 92 % 1012,5 hPa 0,0 l/m 0,0 km/h (0 Bft) N-NO 29 0 min 0,000 mm 19 W/m 1,8 C 3,0 C 0,0 km/h (0 Bft) 100,00 %
04.01.2012 08:23 2,9 C 92 % 1012,5 hPa 0,0 l/m 0,0 km/h (0 Bft) N-NO 29 0 min 0,000 mm 21 W/m 1,7 C 2,9 C 0,0 km/h (0 Bft) 100,00 %
04.01.2012 08:24 3,0 C 92 % 1012,4 hPa 0,0 l/m 0,0 km/h (0 Bft) N-NO 29 0 min 0,000 mm 23 W/m 1,8 C 3,0 C 0,0 km/h (0 Bft) 100,00 %
04.01.2012 08:25 3,0 C 92 % 1012,4 hPa 0,0 l/m 0,0 km/h (0 Bft) N-NO 29 0 min 0,000 mm 23 W/m 1,8 C 3,0 C 0,0 km/h (0 Bft) 100,00 %
04.01.2012 08:26 2,9 C 92 % 1012,3 hPa 0,0 l/m 0,0 km/h (0 Bft) N-NO 29 0 min 0,000 mm 25 W/m 1,7 C 2,9 C 0,0 km/h (0 Bft) 100,00 %
04.01.2012 08:27 3,0 C 92 % 1012,3 hPa 0,0 l/m 0,0 km/h (0 Bft) N-NO 29 0 min 0,000 mm 25 W/m 1,8 C 3,0 C 0,0 km/h (0 Bft) 100,00 %
04.01.2012 08:28 3,0 C 92 % 1012,4 hPa 0,0 l/m 2,0 km/h (1 Bft) N-NO 29 0 min 0,000 mm 25 W/m 1,8 C 3,0 C 4,8 km/h (1 Bft) 100,00 %
04.01.2012 08:29 3,0 C 92 % 1012,3 hPa 0,0 l/m 0,5 km/h (0 Bft) N-NO 29 0 min 0,000 mm 26 W/m 1,8 C 3,0 C 3,2 km/h (1 Bft) 100,00 %
04.01.2012 08:30 3,0 C 92 % 1012,3 hPa 0,0 l/m 0,0 km/h (0 Bft) N-NO 29 0 min 0,000 mm 28 W/m 1,8 C 3,0 C 0,0 km/h (0 Bft) 100,00 %
04.01.2012 08:31 3,0 C 92 % 1012,4 hPa 0,0 l/m 0,7 km/h (0 Bft) N-NO 29 0 min 0,000 mm 30 W/m 1,8 C 3,0 C 4,8 km/h (1 Bft) 100,00 %
04.01.2012 08:32 3,0 C 92 % 1012,4 hPa 0,0 l/m 0,0 km/h (0 Bft) N-NO 29 0 min 0,000 mm 32 W/m 1,8 C 3,0 C 0,0 km/h (0 Bft) 100,00 %
04.01.2012 08:33 3,0 C 92 % 1012,5 hPa 0,0 l/m 0,0 km/h (0 Bft) N-NO 29 0 min 0,000 mm 35 W/m 1,8 C 3,0 C 0,0 km/h (0 Bft) 100,00 %
04.01.2012 08:34 3,0 C 92 % 1012,4 hPa 0,0 l/m 0,0 km/h (0 Bft) N-NO 29 0 min 0,000 mm 35 W/m 1,8 C 3,0 C 0,0 km/h (0 Bft) 100,00 %
04.01.2012 08:35 3,0 C 92 % 1012,4 hPa 0,0 l/m 0,0 km/h (0 Bft) N-NO 29 0 min 0,000 mm 33 W/m 1,8 C 3,0 C 0,0 km/h (0 Bft) 100,00 %
04.01.2012 08:36 3,0 C 92 % 1012,4 hPa 0,0 l/m 0,0 km/h (0 Bft) N-NO 29 0 min 0,000 mm 35 W/m 1,8 C 3,0 C 0,0 km/h (0 Bft) 100,00 %
04.01.2012 08:37 3,0 C 92 % 1012,4 hPa 0,0 l/m 0,0 km/h (0 Bft) N-NO 29 0 min 0,000 mm 35 W/m 1,8 C 3,0 C 0,0 km/h (0 Bft) 100,00 %
04.01.2012 08:38 3,0 C 92 % 1012,4 hPa 0,0 l/m 0,0 km/h (0 Bft) N-NO 29 0 min 0,000 mm 35 W/m 1,8 C 3,0 C 0,0 km/h (0 Bft) 100,00 %
04.01.2012 08:39 3,0 C 92 % 1012,4 hPa 0,0 l/m 0,0 km/h (0 Bft) N-NO 29 0 min 0,000 mm 37 W/m 1,8 C 3,0 C 0,0 km/h (0 Bft) 100,00 %
04.01.2012 08:40 3,0 C 92 % 1012,3 hPa 0,0 l/m 0,0 km/h (0 Bft) N-NO 29 0 min 0,000 mm 39 W/m 1,8 C 3,0 C 0,0 km/h (0 Bft) 100,00 %
04.01.2012 08:41 3,0 C 92 % 1012,4 hPa 0,0 l/m 0,0 km/h (0 Bft) N-NO 29 0 min 0,000 mm 40 W/m 1,8 C 3,0 C 0,0 km/h (0 Bft) 100,00 %
04.01.2012 08:42 3,0 C 92 % 1012,4 hPa 0,0 l/m 0,0 km/h (0 Bft) N-NO 29 0 min 0,000 mm 42 W/m 1,8 C 3,0 C 0,0 km/h (0 Bft) 100,00 %
04.01.2012 08:43 3,0 C 92 % 1012,4 hPa 0,0 l/m 0,0 km/h (0 Bft) N-NO 29 0 min 0,000 mm 44 W/m 1,8 C 3,0 C 0,0 km/h (0 Bft) 100,00 %
04.01.2012 08:44 3,0 C 92 % 1012,4 hPa 0,0 l/m 0,0 km/h (0 Bft) N-NO 29 0 min 0,000 mm 46 W/m 1,8 C 3,0 C 0,0 km/h (0 Bft) 100,00 %
04.01.2012 08:45 3,0 C 92 % 1012,4 hPa 0,0 l/m 0,0 km/h (0 Bft) N-NO 29 0 min 0,000 mm 47 W/m 1,8 C 3,0 C 0,0 km/h (0 Bft) 100,00 %
04.01.2012 08:46 3,0 C 92 % 1012,4 hPa 0,0 l/m 0,0 km/h (0 Bft) N-NO 29 0 min 0,000 mm 49 W/m 1,8 C 3,0 C 0,0 km/h (0 Bft) 100,00 %
04.01.2012 08:47 3,0 C 92 % 1012,4 hPa 0,0 l/m 0,0 km/h (0 Bft) N-NO 29 0 min 0,000 mm 51 W/m 1,8 C 3,0 C 0,0 km/h (0 Bft) 100,00 %
04.01.2012 08:48 3,0 C 93 % 1012,4 hPa 0,0 l/m 0,0 km/h (0 Bft) N-NO 29 0 min 0,000 mm 51 W/m 2,0 C 3,0 C 0,0 km/h (0 Bft) 100,00 %
04.01.2012 08:49 3,0 C 93 % 1012,4 hPa 0,0 l/m 0,0 km/h (0 Bft) N-NO 29 0 min 0,000 mm 53 W/m 2,0 C 3,0 C 0,0 km/h (0 Bft) 100,00 %
04.01.2012 08:50 3,0 C 93 % 1012,3 hPa 0,0 l/m 0,0 km/h (0 Bft) N-NO 29 0 min 0,000 mm 53 W/m 2,0 C 3,0 C 0,0 km/h (0 Bft) 100,00 %
04.01.2012 08:51 3,0 C 93 % 1012,3 hPa 0,0 l/m 0,0 km/h (0 Bft) N-NO 29 0 min 0,000 mm 54 W/m 2,0 C 3,0 C 0,0 km/h (0 Bft) 100,00 %
04.01.2012 08:52 3,1 C 93 % 1012,4 hPa 0,0 l/m 0,0 km/h (0 Bft) N-NO 29 0 min 0,000 mm 54 W/m 2,1 C 3,1 C 0,0 km/h (0 Bft) 100,00 %
04.01.2012 08:53 3,1 C 93 % 1012,4 hPa 0,0 l/m 0,0 km/h (0 Bft) N-NO 29 0 min 0,000 mm 56 W/m 2,1 C 3,1 C 0,0 km/h (0 Bft) 100,00 %
04.01.2012 08:54 3,1 C 93 % 1012,5 hPa 0,0 l/m 0,0 km/h (0 Bft) N-NO 29 0 min 0,000 mm 56 W/m 2,1 C 3,1 C 0,0 km/h (0 Bft) 100,00 %
04.01.2012 08:55 3,1 C 93 % 1012,5 hPa 0,0 l/m 0,0 km/h (0 Bft) N-NO 29 0 min 0,000 mm 58 W/m 2,1 C 3,1 C 0,0 km/h (0 Bft) 100,00 %
04.01.2012 08:56 3,1 C 93 % 1012,5 hPa 0,0 l/m 0,0 km/h (0 Bft) N-NO 29 0 min 0,000 mm 58 W/m 2,1 C 3,1 C 0,0 km/h (0 Bft) 100,00 %
04.01.2012 08:57 3,1 C 93 % 1012,5 hPa 0,0 l/m 0,0 km/h (0 Bft) N-NO 29 0 min 0,000 mm 58 W/m 2,1 C 3,1 C 0,0 km/h (0 Bft) 100,00 %
04.01.2012 08:58 3,1 C 93 % 1012,5 hPa 0,0 l/m 0,0 km/h (0 Bft) N-NO 29 0 min 0,000 mm 60 W/m 2,1 C 3,1 C 0,0 km/h (0 Bft) 100,00 %
04.01.2012 08:59 3,1 C 93 % 1012,5 hPa 0,0 l/m 0,0 km/h (0 Bft) N-NO 29 0 min 0,000 mm 62 W/m 2,1 C 3,1 C 0,0 km/h (0 Bft) 100,00 %
04.01.2012 09:00 3,1 C 93 % 1012,4 hPa 0,0 l/m 0,0 km/h (0 Bft) N-NO 29 0 min 0,000 mm 63 W/m 2,1 C 3,1 C 0,0 km/h (0 Bft) 100,00 %
04.01.2012 09:01 3,1 C 93 % 1012,5 hPa 0,0 l/m 0,0 km/h (0 Bft) N-NO 29 0 min 0,000 mm 63 W/m 2,1 C 3,1 C 0,0 km/h (0 Bft) 100,00 %
04.01.2012 09:02 3,1 C 93 % 1012,5 hPa 0,0 l/m 0,0 km/h (0 Bft) N-NO 29 0 min 0,000 mm 65 W/m 2,1 C 3,1 C 0,0 km/h (0 Bft) 100,00 %
04.01.2012 09:03 3,1 C 93 % 1012,5 hPa 0,0 l/m 0,0 km/h (0 Bft) N-NO 29 0 min 0,000 mm 65 W/m 2,1 C 3,1 C 0,0 km/h (0 Bft) 100,00 %
04.01.2012 09:04 3,1 C 93 % 1012,4 hPa 0,0 l/m 0,0 km/h (0 Bft) N-NO 29 0 min 0,000 mm 65 W/m 2,1 C 3,1 C 0,0 km/h (0 Bft) 100,00 %
04.01.2012 09:05 3,2 C 93 % 1012,5 hPa 0,0 l/m 0,0 km/h (0 Bft) N-NO 29 0 min 0,000 mm 67 W/m 2,2 C 3,2 C 0,0 km/h (0 Bft) 100,00 %
04.01.2012 09:06 3,2 C 93 % 1012,5 hPa 0,0 l/m 0,0 km/h (0 Bft) N-NO 29 0 min 0,000 mm 67 W/m 2,2 C 3,2 C 0,0 km/h (0 Bft) 100,00 %
04.01.2012 09:07 3,2 C 93 % 1012,5 hPa 0,0 l/m 0,0 km/h (0 Bft) N-NO 29 0 min 0,000 mm 67 W/m 2,2 C 3,2 C 0,0 km/h (0 Bft) 100,00 %
04.01.2012 09:08 3,2 C 93 % 1012,5 hPa 0,0 l/m 0,0 km/h (0 Bft) N-NO 29 0 min 0,000 mm 67 W/m 2,2 C 3,2 C 0,0 km/h (0 Bft) 100,00 %
04.01.2012 09:09 3,2 C 93 % 1012,5 hPa 0,0 l/m 0,0 km/h (0 Bft) N-NO 29 0 min 0,000 mm 67 W/m 2,2 C 3,2 C 0,0 km/h (0 Bft) 100,00 %
04.01.2012 09:10 3,2 C 93 % 1012,5 hPa 0,0 l/m 0,0 km/h (0 Bft) N-NO 29 0 min 0,000 mm 67 W/m 2,2 C 3,2 C 0,0 km/h (0 Bft) 100,00 %
04.01.2012 09:11 3,2 C 93 % 1012,5 hPa 0,0 l/m 0,0 km/h (0 Bft) N-NO 27 0 min 0,000 mm 69 W/m 2,2 C 3,2 C 0,0 km/h (0 Bft) 100,00 %
04.01.2012 09:12 3,2 C 93 % 1012,5 hPa 0,0 l/m 0,0 km/h (0 Bft) N-NO 29 0 min 0,000 mm 69 W/m 2,2 C 3,2 C 0,0 km/h (0 Bft) 100,00 %
04.01.2012 09:13 3,2 C 93 % 1012,4 hPa 0,0 l/m 0,0 km/h (0 Bft) N-NO 29 0 min 0,000 mm 69 W/m 2,2 C 3,2 C 0,0 km/h (0 Bft) 100,00 %
04.01.2012 09:14 3,3 C 93 % 1012,4 hPa 0,0 l/m 0,0 km/h (0 Bft) N-NO 29 0 min 0,000 mm 69 W/m 2,3 C 3,3 C 0,0 km/h (0 Bft) 100,00 %
04.01.2012 09:15 3,3 C 93 % 1012,5 hPa 0,0 l/m 0,0 km/h (0 Bft) N-NO 29 0 min 0,000 mm 69 W/m 2,3 C 3,3 C 0,0 km/h (0 Bft) 100,00 %
04.01.2012 09:16 3,3 C 93 % 1012,5 hPa 0,0 l/m 0,0 km/h (0 Bft) N-NO 29 0 min 0,000 mm 69 W/m 2,3 C 3,3 C 0,0 km/h (0 Bft) 100,00 %
04.01.2012 09:17 3,3 C 93 % 1012,6 hPa 0,0 l/m 0,0 km/h (0 Bft) N-NO 28 0 min 0,000 mm 69 W/m 2,3 C 3,3 C 0,0 km/h (0 Bft) 100,00 %
04.01.2012 09:18 3,3 C 93 % 1012,5 hPa 0,0 l/m 0,0 km/h (0 Bft) N-NO 29 0 min 0,000 mm 70 W/m 2,3 C 3,3 C 0,0 km/h (0 Bft) 100,00 %
04.01.2012 09:19 3,3 C 93 % 1012,6 hPa 0,0 l/m 0,0 km/h (0 Bft) N-NO 29 0 min 0,000 mm 72 W/m 2,3 C 3,3 C 0,0 km/h (0 Bft) 100,00 %
04.01.2012 09:20 3,3 C 93 % 1012,6 hPa 0,0 l/m 0,0 km/h (0 Bft) N-NO 29 0 min 0,000 mm 74 W/m 2,3 C 3,3 C 0,0 km/h (0 Bft) 100,00 %
04.01.2012 09:21 3,3 C 93 % 1012,7 hPa 0,0 l/m 0,0 km/h (0 Bft) N-NO 29 0 min 0,000 mm 76 W/m 2,3 C 3,3 C 0,0 km/h (0 Bft) 100,00 %
04.01.2012 09:22 3,4 C 93 % 1012,7 hPa 0,0 l/m 0,0 km/h (0 Bft) N-NO 29 0 min 0,000 mm 79 W/m 2,4 C 3,4 C 0,0 km/h (0 Bft) 100,00 %
04.01.2012 09:23 3,4 C 93 % 1012,7 hPa 0,0 l/m 0,0 km/h (0 Bft) N-NO 29 0 min 0,000 mm 79 W/m 2,4 C 3,4 C 0,0 km/h (0 Bft) 100,00 %
04.01.2012 09:24 3,4 C 93 % 1012,7 hPa 0,0 l/m 0,0 km/h (0 Bft) N-NO 29 0 min 0,000 mm 81 W/m 2,4 C 3,4 C 0,0 km/h (0 Bft) 100,00 %
04.01.2012 09:25 3,4 C 93 % 1012,8 hPa 0,0 l/m 0,0 km/h (0 Bft) N-NO 29 0 min 0,000 mm 83 W/m 2,4 C 3,4 C 0,0 km/h (0 Bft) 96,00 %
04.01.2012 09:26 3,4 C 93 % 1012,8 hPa 0,0 l/m 0,0 km/h (0 Bft) N-NO 29 0 min 0,000 mm 84 W/m 2,4 C 3,4 C 0,0 km/h (0 Bft) 100,00 %
04.01.2012 09:27 3,4 C 93 % 1012,7 hPa 0,0 l/m 0,0 km/h (0 Bft) N-NO 29 0 min 0,000 mm 88 W/m 2,4 C 3,4 C 0,0 km/h (0 Bft) 100,00 %
04.01.2012 09:28 3,4 C 93 % 1012,7 hPa 0,0 l/m 0,0 km/h (0 Bft) N-NO 29 0 min 0,000 mm 97 W/m 2,4 C 3,4 C 0,0 km/h (0 Bft) 100,00 %
04.01.2012 09:29 3,4 C 93 % 1012,7 hPa 0,0 l/m 0,0 km/h (0 Bft) N-NO 29 0 min 0,000 mm 100 W/m 2,4 C 3,4 C 0,0 km/h (0 Bft) 100,00 %
04.01.2012 09:30 3,5 C 93 % 1012,7 hPa 0,0 l/m 0,0 km/h (0 Bft) N-NO 29 0 min 0,000 mm 100 W/m 2,5 C 3,5 C 0,0 km/h (0 Bft) 100,00 %
04.01.2012 09:31 3,6 C 93 % 1012,7 hPa 0,0 l/m 0,0 km/h (0 Bft) N-NO 29 0 min 0,000 mm 127 W/m 2,6 C 3,6 C 0,0 km/h (0 Bft) 100,00 %
04.01.2012 09:32 3,6 C 93 % 1012,7 hPa 0,0 l/m 0,0 km/h (0 Bft) N-NO 29 0 min 0,000 mm 104 W/m 2,6 C 3,6 C 0,0 km/h (0 Bft) 100,00 %
04.01.2012 09:33 3,6 C 93 % 1012,7 hPa 0,0 l/m 0,0 km/h (0 Bft) N-NO 29 0 min 0,000 mm 91 W/m 2,6 C 3,6 C 0,0 km/h (0 Bft) 100,00 %
04.01.2012 09:34 3,7 C 93 % 1012,7 hPa 0,0 l/m 0,0 km/h (0 Bft) N-NO 29 0 min 0,000 mm 88 W/m 2,7 C 3,7 C 0,0 km/h (0 Bft) 100,00 %
04.01.2012 09:35 3,7 C 93 % 1012,7 hPa 0,0 l/m 0,0 km/h (0 Bft) N-NO 29 0 min 0,000 mm 86 W/m 2,7 C 3,7 C 0,0 km/h (0 Bft) 100,00 %
04.01.2012 09:36 3,7 C 93 % 1012,7 hPa 0,0 l/m 0,0 km/h (0 Bft) N-NO 29 0 min 0,000 mm 88 W/m 2,7 C 3,7 C 0,0 km/h (0 Bft) 100,00 %
04.01.2012 09:37 3,7 C 93 % 1012,7 hPa 0,0 l/m 0,0 km/h (0 Bft) N-NO 29 0 min 0,000 mm 90 W/m 2,7 C 3,7 C 0,0 km/h (0 Bft) 100,00 %
04.01.2012 09:38 3,7 C 93 % 1012,7 hPa 0,0 l/m 0,0 km/h (0 Bft) N-NO 29 0 min 0,000 mm 93 W/m 2,7 C 3,7 C 0,0 km/h (0 Bft) 100,00 %
04.01.2012 09:39 3,7 C 93 % 1012,6 hPa 0,0 l/m 0,0 km/h (0 Bft) N-NO 29 0 min 0,000 mm 98 W/m 2,7 C 3,7 C 0,0 km/h (0 Bft) 100,00 %
04.01.2012 09:40 3,7 C 93 % 1012,7 hPa 0,0 l/m 0,0 km/h (0 Bft) N-NO 29 0 min 0,000 mm 111 W/m 2,7 C 3,7 C 0,0 km/h (0 Bft) 100,00 %
04.01.2012 09:41 3,7 C 93 % 1012,6 hPa 0,0 l/m 0,0 km/h (0 Bft) N-NO 29 0 min 0,000 mm 113 W/m 2,7 C 3,7 C 0,0 km/h (0 Bft) 100,00 %
04.01.2012 09:42 3,7 C 92 % 1012,6 hPa 0,0 l/m 0,0 km/h (0 Bft) N-NO 29 0 min 0,000 mm 116 W/m 2,5 C 3,7 C 0,0 km/h (0 Bft) 100,00 %
04.01.2012 09:43 3,7 C 92 % 1012,5 hPa 0,0 l/m 0,0 km/h (0 Bft) N-NO 29 0 min 0,000 mm 120 W/m 2,5 C 3,7 C 0,0 km/h (0 Bft) 100,00 %
04.01.2012 09:44 3,7 C 92 % 1012,5 hPa 0,0 l/m 0,0 km/h (0 Bft) N-NO 29 0 min 0,000 mm 127 W/m 2,5 C 3,7 C 0,0 km/h (0 Bft) 100,00 %
04.01.2012 09:45 3,7 C 92 % 1012,5 hPa 0,0 l/m 0,0 km/h (0 Bft) N-NO 29 0 min 0,000 mm 127 W/m 2,5 C 3,7 C 0,0 km/h (0 Bft) 100,00 %
04.01.2012 09:46 3,7 C 92 % 1012,5 hPa 0,0 l/m 0,0 km/h (0 Bft) N-NO 29 0 min 0,000 mm 120 W/m 2,5 C 3,7 C 0,0 km/h (0 Bft) 100,00 %
04.01.2012 09:47 3,8 C 92 % 1012,5 hPa 0,0 l/m 0,0 km/h (0 Bft) N-NO 29 0 min 0,000 mm 120 W/m 2,6 C 3,8 C 0,0 km/h (0 Bft) 100,00 %
04.01.2012 09:48 3,8 C 92 % 1012,5 hPa 0,0 l/m 0,0 km/h (0 Bft) N-NO 29 0 min 0,000 mm 118 W/m 2,6 C 3,8 C 0,0 km/h (0 Bft) 100,00 %
04.01.2012 09:49 3,8 C 92 % 1012,5 hPa 0,0 l/m 0,0 km/h (0 Bft) N-NO 29 0 min 0,000 mm 116 W/m 2,6 C 3,8 C 0,0 km/h (0 Bft) 100,00 %
04.01.2012 09:50 3,8 C 92 % 1012,5 hPa 0,0 l/m 0,0 km/h (0 Bft) N-NO 29 0 min 0,000 mm 114 W/m 2,6 C 3,8 C 0,0 km/h (0 Bft) 100,00 %
04.01.2012 09:51 3,8 C 92 % 1012,5 hPa 0,0 l/m 0,0 km/h (0 Bft) N-NO 29 0 min 0,000 mm 113 W/m 2,6 C 3,8 C 0,0 km/h (0 Bft) 100,00 %
04.01.2012 09:52 3,9 C 92 % 1012,5 hPa 0,0 l/m 0,0 km/h (0 Bft) N-NO 29 0 min 0,000 mm 113 W/m 2,7 C 3,9 C 0,0 km/h (0 Bft) 100,00 %
04.01.2012 09:53 3,9 C 92 % 1012,5 hPa 0,0 l/m 0,0 km/h (0 Bft) N-NO 29 0 min 0,000 mm 113 W/m 2,7 C 3,9 C 0,0 km/h (0 Bft) 100,00 %
04.01.2012 09:54 3,9 C 92 % 1012,6 hPa 0,0 l/m 0,0 km/h (0 Bft) N-NO 29 0 min 0,000 mm 114 W/m 2,7 C 3,9 C 0,0 km/h (0 Bft) 100,00 %
04.01.2012 09:55 4,0 C 92 % 1012,6 hPa 0,0 l/m 0,0 km/h (0 Bft) N-NO 29 0 min 0,000 mm 114 W/m 2,8 C 4,0 C 0,0 km/h (0 Bft) 100,00 %
04.01.2012 09:56 3,9 C 92 % 1012,7 hPa 0,0 l/m 0,0 km/h (0 Bft) N-NO 29 0 min 0,000 mm 116 W/m 2,7 C 3,9 C 0,0 km/h (0 Bft) 100,00 %
04.01.2012 09:57 3,9 C 92 % 1012,7 hPa 0,0 l/m 0,0 km/h (0 Bft) N-NO 29 0 min 0,000 mm 120 W/m 2,7 C 3,9 C 0,0 km/h (0 Bft) 100,00 %
04.01.2012 09:58 3,9 C 92 % 1012,7 hPa 0,0 l/m 0,0 km/h (0 Bft) N-NO 29 0 min 0,000 mm 120 W/m 2,7 C 3,9 C 0,0 km/h (0 Bft) 100,00 %
04.01.2012 09:59 4,0 C 92 % 1012,8 hPa 0,0 l/m 0,0 km/h (0 Bft) N-NO 29 0 min 0,000 mm 123 W/m 2,8 C 4,0 C 0,0 km/h (0 Bft) 100,00 %
04.01.2012 10:00 4,0 C 92 % 1012,9 hPa 0,0 l/m 0,0 km/h (0 Bft) N-NO 29 0 min 0,026 mm 128 W/m 2,8 C 4,0 C 0,0 km/h (0 Bft) 100,00 %
04.01.2012 10:01 4,1 C 92 % 1012,7 hPa 0,0 l/m 0,0 km/h (0 Bft) N-NO 29 0 min 0,000 mm 135 W/m 2,9 C 4,1 C 0,0 km/h (0 Bft) 100,00 %
04.01.2012 10:02 4,1 C 92 % 1012,9 hPa 0,0 l/m 0,0 km/h (0 Bft) N-NO 29 0 min 0,000 mm 128 W/m 2,9 C 4,1 C 0,0 km/h (0 Bft) 100,00 %
04.01.2012 10:03 4,1 C 92 % 1012,9 hPa 0,0 l/m 0,1 km/h (0 Bft) N-NO 29 0 min 0,000 mm 125 W/m 2,9 C 4,1 C 1,6 km/h (1 Bft) 100,00 %
04.01.2012 10:04 4,1 C 92 % 1012,9 hPa 0,0 l/m 0,0 km/h (0 Bft) N-NO 29 0 min 0,000 mm 121 W/m 2,9 C 4,1 C 0,0 km/h (0 Bft) 100,00 %
04.01.2012 10:05 4,2 C 92 % 1012,8 hPa 0,0 l/m 0,0 km/h (0 Bft) N-NO 29 0 min 0,000 mm 121 W/m 3,0 C 4,2 C 0,0 km/h (0 Bft) 100,00 %
04.01.2012 10:06 4,1 C 91 % 1012,8 hPa 0,0 l/m 0,0 km/h (0 Bft) N-NO 29 0 min 0,000 mm 118 W/m 2,8 C 4,1 C 0,0 km/h (0 Bft) 100,00 %
04.01.2012 10:07 4,1 C 91 % 1012,8 hPa 0,0 l/m 0,0 km/h (0 Bft) N-NO 29 0 min 0,000 mm 118 W/m 2,8 C 4,1 C 0,0 km/h (0 Bft) 100,00 %
04.01.2012 10:08 4,1 C 91 % 1012,9 hPa 0,0 l/m 0,0 km/h (0 Bft) N-NO 29 0 min 0,000 mm 113 W/m 2,8 C 4,1 C 0,0 km/h (0 Bft) 100,00 %
04.01.2012 10:09 4,2 C 91 % 1012,9 hPa 0,0 l/m 0,0 km/h (0 Bft) N-NO 29 0 min 0,000 mm 97 W/m 2,9 C 4,2 C 0,0 km/h (0 Bft) 100,00 %
04.01.2012 10:10 4,2 C 91 % 1012,9 hPa 0,0 l/m 0,0 km/h (0 Bft) N-NO 29 0 min 0,000 mm 95 W/m 2,9 C 4,2 C 0,0 km/h (0 Bft) 100,00 %
04.01.2012 10:11 4,2 C 91 % 1012,9 hPa 0,0 l/m 0,0 km/h (0 Bft) N-NO 29 0 min 0,000 mm 93 W/m 2,9 C 4,2 C 0,0 km/h (0 Bft) 100,00 %
04.01.2012 10:12 4,2 C 91 % 1012,7 hPa 0,0 l/m 0,0 km/h (0 Bft) N-NO 29 0 min 0,000 mm 95 W/m 2,9 C 4,2 C 0,0 km/h (0 Bft) 100,00 %
04.01.2012 10:13 4,2 C 91 % 1012,8 hPa 0,0 l/m 0,0 km/h (0 Bft) N-NO 29 0 min 0,000 mm 93 W/m 2,9 C 4,2 C 0,0 km/h (0 Bft) 100,00 %
04.01.2012 10:14 4,1 C 91 % 1012,9 hPa 0,0 l/m 0,0 km/h (0 Bft) N-NO 29 0 min 0,000 mm 91 W/m 2,8 C 4,1 C 0,0 km/h (0 Bft) 100,00 %
04.01.2012 10:15 4,2 C 91 % 1012,9 hPa 0,0 l/m 0,0 km/h (0 Bft) N-NO 29 0 min 0,000 mm 93 W/m 2,9 C 4,2 C 0,0 km/h (0 Bft) 100,00 %
04.01.2012 10:16 4,2 C 91 % 1013,2 hPa 0,0 l/m 1,7 km/h (1 Bft) N-NO 26 0 min 0,000 mm 95 W/m 2,9 C 4,2 C 6,4 km/h (2 Bft) 100,00 %
04.01.2012 10:17 4,2 C 91 % 1013,0 hPa 0,0 l/m 0,0 km/h (0 Bft) N-NO 26 0 min 0,000 mm 91 W/m 2,9 C 4,2 C 0,0 km/h (0 Bft) 100,00 %
04.01.2012 10:18 4,2 C 91 % 1012,9 hPa 0,0 l/m 0,0 km/h (0 Bft) N-NO 26 0 min 0,000 mm 88 W/m 2,9 C 4,2 C 0,0 km/h (0 Bft) 100,00 %
04.01.2012 10:19 4,2 C 91 % 1013,1 hPa 0,0 l/m 0,0 km/h (0 Bft) N-NO 26 0 min 0,000 mm 88 W/m 2,9 C 4,2 C 0,0 km/h (0 Bft) 100,00 %
04.01.2012 10:20 4,2 C 91 % 1013,2 hPa 0,0 l/m 0,0 km/h (0 Bft) N-NO 26 0 min 0,000 mm 83 W/m 2,9 C 4,2 C 0,0 km/h (0 Bft) 100,00 %
04.01.2012 10:21 4,2 C 91 % 1013,2 hPa 0,0 l/m 0,0 km/h (0 Bft) N-NO 26 0 min 0,000 mm 83 W/m 2,9 C 4,2 C 0,0 km/h (0 Bft) 100,00 %
04.01.2012 10:22 4,2 C 91 % 1013,2 hPa 0,0 l/m 0,0 km/h (0 Bft) N-NO 26 0 min 0,000 mm 81 W/m 2,9 C 4,2 C 0,0 km/h (0 Bft) 100,00 %
04.01.2012 10:23 4,2 C 91 % 1013,2 hPa 0,0 l/m 0,9 km/h (0 Bft) N-NO 26 0 min 0,000 mm 81 W/m 2,9 C 4,2 C 3,2 km/h (1 Bft) 100,00 %
04.01.2012 10:24 4,2 C 91 % 1013,2 hPa 0,0 l/m 0,0 km/h (0 Bft) N-NO 26 0 min 0,000 mm 81 W/m 2,9 C 4,2 C 0,0 km/h (0 Bft) 100,00 %
04.01.2012 10:25 4,2 C 91 % 1013,2 hPa 0,0 l/m 0,0 km/h (0 Bft) N-NO 26 0 min 0,000 mm 81 W/m 2,9 C 4,2 C 0,0 km/h (0 Bft) 100,00 %
04.01.2012 10:26 4,3 C 91 % 1013,3 hPa 0,0 l/m 1,2 km/h (1 Bft) N-NO 26 0 min 0,000 mm 81 W/m 3,0 C 4,3 C 6,4 km/h (2 Bft) 100,00 %
04.01.2012 10:27 4,3 C 91 % 1013,3 hPa 0,0 l/m 0,6 km/h (0 Bft) N-NO 26 0 min 0,000 mm 77 W/m 3,0 C 4,3 C 4,8 km/h (1 Bft) 100,00 %
04.01.2012 10:29 4,3 C 91 % 1013,3 hPa 0,0 l/m 0,0 km/h (0 Bft) N-NO 26 0 min 0,000 mm 74 W/m 3,0 C 4,3 C 0,0 km/h (0 Bft) 100,00 %
04.01.2012 10:30 4,3 C 91 % 1013,4 hPa 0,0 l/m 0,0 km/h (0 Bft) N-NO 26 0 min 0,000 mm 74 W/m 3,0 C 4,3 C 0,0 km/h (0 Bft) 100,00 %
04.01.2012 10:31 4,3 C 91 % 1013,4 hPa 0,0 l/m 0,0 km/h (0 Bft) N-NO 26 0 min 0,000 mm 76 W/m 3,0 C 4,3 C 0,0 km/h (0 Bft) 100,00 %
04.01.2012 10:32 4,3 C 91 % 1013,3 hPa 0,0 l/m 0,0 km/h (0 Bft) N-NO 26 0 min 0,000 mm 79 W/m 3,0 C 4,3 C 0,0 km/h (0 Bft) 100,00 %
04.01.2012 10:33 4,3 C 91 % 1013,3 hPa 0,0 l/m 0,0 km/h (0 Bft) N-NO 26 0 min 0,000 mm 79 W/m 3,0 C 4,3 C 0,0 km/h (0 Bft) 100,00 %
04.01.2012 10:34 4,3 C 91 % 1013,4 hPa 0,0 l/m 0,0 km/h (0 Bft) N-NO 26 0 min 0,000 mm 81 W/m 3,0 C 4,3 C 0,0 km/h (0 Bft) 100,00 %
04.01.2012 10:35 4,3 C 91 % 1013,4 hPa 0,0 l/m 0,0 km/h (0 Bft) N-NO 26 0 min 0,000 mm 81 W/m 3,0 C 4,3 C 0,0 km/h (0 Bft) 100,00 %
04.01.2012 10:36 4,3 C 91 % 1013,5 hPa 0,0 l/m 0,0 km/h (0 Bft) N-NO 26 0 min 0,000 mm 79 W/m 3,0 C 4,3 C 0,0 km/h (0 Bft) 100,00 %
04.01.2012 10:37 4,3 C 91 % 1013,5 hPa 0,0 l/m 0,0 km/h (0 Bft) N-NO 26 0 min 0,000 mm 79 W/m 3,0 C 4,3 C 0,0 km/h (0 Bft) 100,00 %
04.01.2012 10:38 4,3 C 91 % 1013,6 hPa 0,0 l/m 5,9 km/h (2 Bft) N-NW 335 0 min 0,000 mm 79 W/m 3,0 C 4,3 C 11,3 km/h (2 Bft) 100,00 %
04.01.2012 10:39 4,3 C 91 % 1013,6 hPa 0,0 l/m 8,0 km/h (2 Bft) N-NW 331 0 min 0,000 mm 79 W/m 3,0 C 2,9 C 9,7 km/h (2 Bft) 100,00 %
04.01.2012 10:40 4,3 C 91 % 1013,4 hPa 0,0 l/m 4,1 km/h (1 Bft) N-NW 333 0 min 0,000 mm 79 W/m 3,0 C 4,3 C 6,4 km/h (2 Bft) 100,00 %
04.01.2012 10:41 4,3 C 91 % 1013,2 hPa 0,0 l/m 0,0 km/h (0 Bft) N-NW 333 0 min 0,000 mm 79 W/m 3,0 C 4,3 C 0,0 km/h (0 Bft) 100,00 %
04.01.2012 10:42 4,3 C 91 % 1013,2 hPa 0,0 l/m 0,0 km/h (0 Bft) N-NW 333 0 min 0,000 mm 79 W/m 3,0 C 4,3 C 0,0 km/h (0 Bft) 100,00 %
04.01.2012 10:43 4,3 C 91 % 1012,9 hPa 0,0 l/m 2,7 km/h (1 Bft) N 350 0 min 0,000 mm 79 W/m 3,0 C 4,3 C 8,0 km/h (2 Bft) 100,00 %
04.01.2012 10:44 4,3 C 91 % 1013,2 hPa 0,0 l/m 5,3 km/h (1 Bft) N 350 0 min 0,000 mm 79 W/m 3,0 C 4,3 C 12,9 km/h (3 Bft) 100,00 %
04.01.2012 10:45 4,3 C 91 % 1013,3 hPa 0,0 l/m 3,8 km/h (1 Bft) N 350 0 min 0,000 mm 79 W/m 3,0 C 4,3 C 9,7 km/h (2 Bft) 100,00 %
04.01.2012 10:46 4,4 C 91 % 1013,0 hPa 0,0 l/m 0,0 km/h (0 Bft) N 350 0 min 0,000 mm 79 W/m 3,1 C 4,4 C 0,0 km/h (0 Bft) 100,00 %
04.01.2012 10:47 4,4 C 91 % 1012,9 hPa 0,0 l/m 0,0 km/h (0 Bft) N 350 0 min 0,000 mm 79 W/m 3,1 C 4,4 C 0,0 km/h (0 Bft) 100,00 %
04.01.2012 10:48 4,4 C 91 % 1012,9 hPa 0,0 l/m 0,0 km/h (0 Bft) N 350 0 min 0,000 mm 79 W/m 3,1 C 4,4 C 0,0 km/h (0 Bft) 100,00 %
04.01.2012 10:49 4,4 C 91 % 1012,8 hPa 0,0 l/m 0,0 km/h (0 Bft) N 360 0 min 0,000 mm 77 W/m 3,1 C 4,4 C 0,0 km/h (0 Bft) 100,00 %
04.01.2012 10:50 4,4 C 91 % 1012,9 hPa 0,0 l/m 2,1 km/h (1 Bft) N 360 0 min 0,000 mm 77 W/m 3,1 C 4,4 C 6,4 km/h (2 Bft) 100,00 %
04.01.2012 10:51 4,4 C 91 % 1012,9 hPa 0,0 l/m 0,1 km/h (0 Bft) N 5 0 min 0,000 mm 77 W/m 3,1 C 4,4 C 1,6 km/h (1 Bft) 100,00 %
04.01.2012 10:52 4,4 C 91 % 1013,0 hPa 0,0 l/m 0,0 km/h (0 Bft) N 5 0 min 0,000 mm 77 W/m 3,1 C 4,4 C 0,0 km/h (0 Bft) 100,00 %
04.01.2012 10:53 4,4 C 91 % 1012,9 hPa 0,0 l/m 0,0 km/h (0 Bft) N 5 0 min 0,000 mm 77 W/m 3,1 C 4,4 C 0,0 km/h (0 Bft) 100,00 %
04.01.2012 10:54 4,4 C 91 % 1012,9 hPa 0,0 l/m 0,0 km/h (0 Bft) N 5 0 min 0,000 mm 77 W/m 3,1 C 4,4 C 0,0 km/h (0 Bft) 100,00 %
04.01.2012 10:55 4,4 C 91 % 1012,8 hPa 0,0 l/m 0,0 km/h (0 Bft) N 5 0 min 0,000 mm 77 W/m 3,1 C 4,4 C 0,0 km/h (0 Bft) 100,00 %
04.01.2012 10:56 4,4 C 91 % 1012,8 hPa 0,0 l/m 0,0 km/h (0 Bft) N 360 0 min 0,000 mm 79 W/m 3,1 C 4,4 C 0,0 km/h (0 Bft) 100,00 %
04.01.2012 10:57 4,4 C 91 % 1012,9 hPa 0,0 l/m 0,0 km/h (0 Bft) N 360 0 min 0,000 mm 79 W/m 3,1 C 4,4 C 0,0 km/h (0 Bft) 100,00 %
04.01.2012 10:58 4,4 C 91 % 1012,9 hPa 0,0 l/m 0,0 km/h (0 Bft) N 5 0 min 0,000 mm 79 W/m 3,1 C 4,4 C 0,0 km/h (0 Bft) 100,00 %
04.01.2012 10:59 4,5 C 91 % 1012,9 hPa 0,0 l/m 2,6 km/h (1 Bft) N 360 0 min 0,000 mm 81 W/m 3,2 C 4,5 C 4,8 km/h (1 Bft) 100,00 %
04.01.2012 11:00 4,5 C 91 % 1012,9 hPa 0,0 l/m 5,7 km/h (1 Bft) N 5 0 min 0,000 mm 81 W/m 3,2 C 4,5 C 6,4 km/h (2 Bft) 100,00 %
04.01.2012 11:01 4,5 C 91 % 1012,9 hPa 0,0 l/m 5,6 km/h (1 Bft) N 5 0 min 0,025 mm 81 W/m 3,2 C 4,5 C 8,0 km/h (2 Bft) 100,00 %
04.01.2012 11:02 4,5 C 91 % 1013,0 hPa 0,0 l/m 5,3 km/h (1 Bft) N 5 0 min 0,000 mm 81 W/m 3,2 C 4,5 C 8,0 km/h (2 Bft) 100,00 %
04.01.2012 11:03 4,6 C 91 % 1012,9 hPa 0,0 l/m 3,8 km/h (1 Bft) N 360 0 min 0,000 mm 81 W/m 3,3 C 4,6 C 4,8 km/h (1 Bft) 95,83 %
04.01.2012 11:04 4,6 C 91 % 1012,9 hPa 0,0 l/m 5,8 km/h (2 Bft) N 11 0 min 0,000 mm 81 W/m 3,3 C 4,6 C 8,0 km/h (2 Bft) 100,00 %
04.01.2012 11:05 4,6 C 91 % 1013,0 hPa 0,0 l/m 1,3 km/h (1 Bft) N 11 0 min 0,000 mm 81 W/m 3,3 C 4,6 C 4,8 km/h (1 Bft) 100,00 %
04.01.2012 11:06 4,6 C 91 % 1013,1 hPa 0,0 l/m 0,0 km/h (0 Bft) N 11 0 min 0,000 mm 81 W/m 3,3 C 4,6 C 0,0 km/h (0 Bft) 100,00 %
04.01.2012 11:07 4,6 C 91 % 1013,0 hPa 0,0 l/m 0,0 km/h (0 Bft) N-NO 12 0 min 0,000 mm 83 W/m 3,3 C 4,6 C 0,0 km/h (0 Bft) 100,00 %
04.01.2012 11:08 4,6 C 91 % 1013,1 hPa 0,0 l/m 0,0 km/h (0 Bft) N-NO 12 0 min 0,000 mm 83 W/m 3,3 C 4,6 C 0,0 km/h (0 Bft) 100,00 %
04.01.2012 11:09 4,6 C 91 % 1013,1 hPa 0,0 l/m 0,0 km/h (0 Bft) N-NO 12 0 min 0,000 mm 84 W/m 3,3 C 4,6 C 0,0 km/h (0 Bft) 100,00 %
04.01.2012 11:10 4,6 C 91 % 1013,1 hPa 0,0 l/m 0,0 km/h (0 Bft) N 11 0 min 0,000 mm 84 W/m 3,3 C 4,6 C 0,0 km/h (0 Bft) 100,00 %
04.01.2012 11:11 4,6 C 91 % 1013,1 hPa 0,0 l/m 0,0 km/h (0 Bft) N 11 0 min 0,000 mm 86 W/m 3,3 C 4,6 C 0,0 km/h (0 Bft) 100,00 %
04.01.2012 11:12 4,7 C 91 % 1013,1 hPa 0,0 l/m 0,0 km/h (0 Bft) N 11 0 min 0,000 mm 86 W/m 3,4 C 4,7 C 0,0 km/h (0 Bft) 100,00 %
04.01.2012 11:13 4,7 C 91 % 1013,1 hPa 0,0 l/m 0,0 km/h (0 Bft) N-NO 12 0 min 0,000 mm 86 W/m 3,4 C 4,7 C 0,0 km/h (0 Bft) 100,00 %
04.01.2012 11:14 4,7 C 91 % 1013,1 hPa 0,0 l/m 0,0 km/h (0 Bft) N 11 0 min 0,000 mm 84 W/m 3,4 C 4,7 C 0,0 km/h (0 Bft) 100,00 %
04.01.2012 11:15 4,7 C 91 % 1013,2 hPa 0,0 l/m 0,0 km/h (0 Bft) N-NO 12 0 min 0,000 mm 84 W/m 3,4 C 4,7 C 0,0 km/h (0 Bft) 100,00 %
04.01.2012 11:16 4,7 C 91 % 1013,2 hPa 0,0 l/m 0,0 km/h (0 Bft) N-NO 12 0 min 0,000 mm 83 W/m 3,4 C 4,7 C 0,0 km/h (0 Bft) 100,00 %
04.01.2012 11:17 4,7 C 91 % 1013,2 hPa 0,0 l/m 0,0 km/h (0 Bft) N 11 0 min 0,000 mm 81 W/m 3,4 C 4,7 C 0,0 km/h (0 Bft) 100,00 %
04.01.2012 11:18 4,7 C 91 % 1013,3 hPa 0,0 l/m 0,0 km/h (0 Bft) N-NO 12 0 min 0,000 mm 81 W/m 3,4 C 4,7 C 0,0 km/h (0 Bft) 100,00 %
04.01.2012 11:19 4,7 C 91 % 1013,3 hPa 0,0 l/m 0,0 km/h (0 Bft) N-NO 12 0 min 0,000 mm 77 W/m 3,4 C 4,7 C 0,0 km/h (0 Bft) 100,00 %
04.01.2012 11:20 4,8 C 91 % 1013,2 hPa 0,0 l/m 0,0 km/h (0 Bft) N 11 0 min 0,000 mm 76 W/m 3,5 C 4,8 C 0,0 km/h (0 Bft) 100,00 %
04.01.2012 11:21 4,8 C 91 % 1013,2 hPa 0,0 l/m 0,0 km/h (0 Bft) N-NO 12 0 min 0,000 mm 76 W/m 3,5 C 4,8 C 0,0 km/h (0 Bft) 100,00 %
04.01.2012 11:22 4,8 C 91 % 1013,3 hPa 0,0 l/m 0,0 km/h (0 Bft) N-NO 12 0 min 0,000 mm 72 W/m 3,5 C 4,8 C 0,0 km/h (0 Bft) 99,88 %
04.01.2012 11:23 4,8 C 91 % 1013,3 hPa 0,0 l/m 0,0 km/h (0 Bft) N 11 0 min 0,000 mm 70 W/m 3,5 C 4,8 C 0,0 km/h (0 Bft) 97,50 %
04.01.2012 11:24 4,8 C 91 % 1013,2 hPa 0,0 l/m 0,0 km/h (0 Bft) N 11 0 min 0,000 mm 70 W/m 3,5 C 4,8 C 0,0 km/h (0 Bft) 100,00 %
04.01.2012 11:25 4,8 C 91 % 1013,2 hPa 0,0 l/m 0,0 km/h (0 Bft) N 11 0 min 0,000 mm 70 W/m 3,5 C 4,8 C 0,0 km/h (0 Bft) 100,00 %
04.01.2012 11:26 4,8 C 91 % 1013,3 hPa 0,0 l/m 0,0 km/h (0 Bft) N-NO 12 0 min 0,000 mm 65 W/m 3,5 C 4,8 C 0,0 km/h (0 Bft) 100,00 %
04.01.2012 11:27 4,8 C 91 % 1013,3 hPa 0,0 l/m 0,0 km/h (0 Bft) N-NO 12 0 min 0,000 mm 58 W/m 3,5 C 4,8 C 0,0 km/h (0 Bft) 100,00 %
04.01.2012 11:28 4,8 C 91 % 1013,3 hPa 0,0 l/m 0,0 km/h (0 Bft) N-NO 12 0 min 0,000 mm 54 W/m 3,5 C 4,8 C 0,0 km/h (0 Bft) 100,00 %
04.01.2012 11:29 4,9 C 91 % 1013,3 hPa 0,0 l/m 0,0 km/h (0 Bft) N 11 0 min 0,000 mm 51 W/m 3,6 C 4,9 C 0,0 km/h (0 Bft) 100,00 %
04.01.2012 11:30 4,9 C 91 % 1013,4 hPa 0,0 l/m 0,0 km/h (0 Bft) N-NO 12 0 min 0,000 mm 49 W/m 3,6 C 4,9 C 0,0 km/h (0 Bft) 100,00 %
04.01.2012 11:31 4,9 C 91 % 1013,3 hPa 0,0 l/m 0,0 km/h (0 Bft) N 11 0 min 0,000 mm 42 W/m 3,6 C 4,9 C 0,0 km/h (0 Bft) 100,00 %
04.01.2012 11:32 4,9 C 91 % 1013,4 hPa 0,0 l/m 0,0 km/h (0 Bft) N-NO 12 0 min 0,000 mm 40 W/m 3,6 C 4,9 C 0,0 km/h (0 Bft) 100,00 %
04.01.2012 11:33 4,9 C 91 % 1013,3 hPa 0,0 l/m 0,0 km/h (0 Bft) N-NO 12 0 min 0,000 mm 40 W/m 3,6 C 4,9 C 0,0 km/h (0 Bft) 100,00 %
04.01.2012 11:34 4,9 C 90 % 1013,4 hPa 0,0 l/m 0,0 km/h (0 Bft) N-NO 12 0 min 0,000 mm 40 W/m 3,4 C 4,9 C 0,0 km/h (0 Bft) 100,00 %
04.01.2012 11:35 4,9 C 90 % 1013,4 hPa 0,0 l/m 0,0 km/h (0 Bft) N-NO 12 0 min 0,000 mm 40 W/m 3,4 C 4,9 C 0,0 km/h (0 Bft) 100,00 %
04.01.2012 11:36 4,9 C 90 % 1013,5 hPa 0,0 l/m 0,0 km/h (0 Bft) N-NO 12 0 min 0,000 mm 42 W/m 3,4 C 4,9 C 0,0 km/h (0 Bft) 100,00 %
04.01.2012 11:37 5,0 C 90 % 1013,5 hPa 0,0 l/m 0,0 km/h (0 Bft) N-NO 12 0 min 0,000 mm 51 W/m 3,5 C 5,0 C 0,0 km/h (0 Bft) 100,00 %
04.01.2012 11:38 5,0 C 90 % 1013,5 hPa 0,0 l/m 0,1 km/h (0 Bft) N 11 0 min 0,000 mm 56 W/m 3,5 C 5,0 C 1,6 km/h (1 Bft) 100,00 %
04.01.2012 11:39 5,0 C 91 % 1013,5 hPa 0,0 l/m 0,0 km/h (0 Bft) N 11 0 min 0,000 mm 62 W/m 3,7 C 5,0 C 0,0 km/h (0 Bft) 100,00 %
04.01.2012 11:40 5,0 C 91 % 1013,5 hPa 0,0 l/m 0,0 km/h (0 Bft) N 11 0 min 0,000 mm 63 W/m 3,7 C 5,0 C 0,0 km/h (0 Bft) 100,00 %
04.01.2012 11:41 5,1 C 91 % 1013,4 hPa 0,0 l/m 0,0 km/h (0 Bft) N 11 0 min 0,000 mm 69 W/m 3,8 C 5,1 C 0,0 km/h (0 Bft) 100,00 %
04.01.2012 11:42 5,1 C 91 % 1013,3 hPa 0,0 l/m 0,0 km/h (0 Bft) N-NO 12 0 min 0,000 mm 70 W/m 3,8 C 5,1 C 0,0 km/h (0 Bft) 100,00 %
04.01.2012 11:43 5,1 C 91 % 1013,4 hPa 0,0 l/m 0,0 km/h (0 Bft) N 11 0 min 0,000 mm 72 W/m 3,8 C 5,1 C 0,0 km/h (0 Bft) 100,00 %
04.01.2012 11:44 5,1 C 91 % 1013,4 hPa 0,0 l/m 4,9 km/h (1 Bft) N 350 0 min 0,000 mm 72 W/m 3,8 C 5,1 C 8,0 km/h (2 Bft) 100,00 %
04.01.2012 11:45 5,1 C 91 % 1013,4 hPa 0,0 l/m 5,1 km/h (1 Bft) N-NW 333 0 min 0,000 mm 70 W/m 3,8 C 5,1 C 9,7 km/h (2 Bft) 100,00 %
04.01.2012 11:46 5,2 C 91 % 1013,3 hPa 0,0 l/m 6,4 km/h (2 Bft) NW 323 0 min 0,000 mm 70 W/m 3,9 C 5,2 C 14,5 km/h (3 Bft) 100,00 %
04.01.2012 11:47 5,3 C 91 % 1013,3 hPa 0,0 l/m 10,8 km/h (2 Bft) W-NW 295 0 min 0,000 mm 70 W/m 4,0 C 1,9 C 19,3 km/h (3 Bft) 100,00 %
04.01.2012 11:48 5,4 C 91 % 1013,2 hPa 0,0 l/m 2,4 km/h (1 Bft) W-NW 295 0 min 0,000 mm 70 W/m 4,1 C 5,4 C 8,0 km/h (2 Bft) 100,00 %
04.01.2012 11:49 5,4 C 91 % 1013,3 hPa 0,0 l/m 6,4 km/h (2 Bft) W 271 0 min 0,000 mm 70 W/m 4,1 C 5,4 C 11,3 km/h (2 Bft) 100,00 %
04.01.2012 11:50 5,6 C 91 % 1013,2 hPa 0,0 l/m 6,6 km/h (2 Bft) W 264 0 min 0,000 mm 70 W/m 4,2 C 5,4 C 14,5 km/h (3 Bft) 100,00 %
04.01.2012 11:51 5,7 C 91 % 1013,3 hPa 0,0 l/m 5,8 km/h (2 Bft) W 273 0 min 0,000 mm 72 W/m 4,3 C 5,7 C 16,1 km/h (3 Bft) 100,00 %
04.01.2012 11:52 5,8 C 91 % 1013,2 hPa 0,0 l/m 13,3 km/h (3 Bft) W-NW 284 0 min 0,000 mm 72 W/m 4,4 C 0,9 C 22,5 km/h (4 Bft) 100,00 %
04.01.2012 11:53 5,9 C 91 % 1013,1 hPa 0,0 l/m 12,7 km/h (3 Bft) W 263 0 min 0,000 mm 72 W/m 4,5 C 1,4 C 25,7 km/h (4 Bft) 100,00 %
04.01.2012 11:54 6,2 C 91 % 1013,0 hPa 0,0 l/m 24,3 km/h (4 Bft) W 261 0 min 0,000 mm 72 W/m 4,8 C -3,1 C 37,0 km/h (5 Bft) 100,00 %
04.01.2012 11:55 6,5 C 91 % 1013,0 hPa 0,0 l/m 31,1 km/h (5 Bft) W 268 0 min 0,000 mm 74 W/m 5,1 C -4,5 C 46,7 km/h (6 Bft) 100,00 %
04.01.2012 11:56 6,8 C 90 % 1013,0 hPa 0,0 l/m 24,5 km/h (4 Bft) W-SW 249 0 min 0,000 mm 72 W/m 5,3 C -2,4 C 46,7 km/h (6 Bft) 100,00 %
04.01.2012 11:57 7,1 C 89 % 1012,8 hPa 0,0 l/m 28,3 km/h (4 Bft) W 261 0 min 0,000 mm 72 W/m 5,4 C -3,0 C 35,4 km/h (5 Bft) 100,00 %
04.01.2012 11:58 7,4 C 87 % 1012,8 hPa 0,0 l/m 27,6 km/h (4 Bft) W-NW 288 0 min 0,000 mm 72 W/m 5,4 C -2,4 C 49,9 km/h (6 Bft) 100,00 %
04.01.2012 11:59 7,7 C 85 % 1012,9 hPa 0,0 l/m 36,9 km/h (5 Bft) W 280 0 min 0,000 mm 70 W/m 5,3 C -4,0 C 51,5 km/h (7 Bft) 100,00 %
04.01.2012 12:00 8,0 C 84 % 1012,9 hPa 0,0 l/m 28,2 km/h (4 Bft) W-NW 295 0 min 0,026 mm 69 W/m 5,5 C -1,7 C 43,5 km/h (6 Bft) 100,00 %
04.01.2012 12:01 8,2 C 82 % 1012,9 hPa 0,0 l/m 27,5 km/h (4 Bft) W 262 0 min 0,000 mm 67 W/m 5,3 C -1,3 C 43,5 km/h (6 Bft) 100,00 %
04.01.2012 12:02 8,4 C 81 % 1012,9 hPa 0,0 l/m 29,3 km/h (5 Bft) W-NW 290 0 min 0,000 mm 65 W/m 5,3 C -1,4 C 57,9 km/h (7 Bft) 100,00 %
04.01.2012 12:03 8,6 C 80 % 1012,9 hPa 0,0 l/m 24,8 km/h (4 Bft) W 264 0 min 0,000 mm 62 W/m 5,3 C -0,0 C 38,6 km/h (5 Bft) 100,00 %
04.01.2012 12:04 8,8 C 78 % 1013,0 hPa 0,0 l/m 31,5 km/h (5 Bft) W-NW 286 0 min 0,000 mm 60 W/m 5,2 C -1,4 C 54,7 km/h (7 Bft) 100,00 %
04.01.2012 12:05 8,9 C 76 % 1012,9 hPa 0,0 l/m 35,3 km/h (5 Bft) N-NW 329 0 min 0,000 mm 58 W/m 4,9 C -2,0 C 49,9 km/h (6 Bft) 100,00 %
04.01.2012 12:06 9,0 C 76 % 1013,0 hPa 0,0 l/m 27,0 km/h (4 Bft) W 281 0 min 0,000 mm 56 W/m 5,0 C -0,0 C 38,6 km/h (5 Bft) 100,00 %
04.01.2012 12:07 9,1 C 76 % 1013,0 hPa 0,0 l/m 27,4 km/h (4 Bft) W-SW 258 0 min 0,000 mm 56 W/m 5,1 C -0,0 C 37,0 km/h (5 Bft) 100,00 %
04.01.2012 12:08 9,2 C 75 % 1013,1 hPa 0,0 l/m 24,1 km/h (4 Bft) W-NW 300 0 min 0,000 mm 56 W/m 5,0 C 1,0 C 41,8 km/h (6 Bft) 95,83 %
04.01.2012 12:09 9,2 C 74 % 1013,1 hPa 0,0 l/m 26,9 km/h (4 Bft) N-NW 331 0 min 0,000 mm 56 W/m 4,8 C 0,3 C 43,5 km/h (6 Bft) 100,00 %
04.01.2012 12:10 9,3 C 73 % 1013,1 hPa 0,0 l/m 21,9 km/h (4 Bft) W-NW 288 0 min 0,000 mm 54 W/m 4,7 C 1,8 C 41,8 km/h (6 Bft) 100,00 %
04.01.2012 12:11 9,3 C 73 % 1013,1 hPa 0,0 l/m 21,3 km/h (4 Bft) W 273 0 min 0,000 mm 54 W/m 4,7 C 2,0 C 33,8 km/h (5 Bft) 100,00 %
04.01.2012 12:12 9,3 C 73 % 1013,1 hPa 0,0 l/m 21,5 km/h (4 Bft) W-NW 291 0 min 0,000 mm 53 W/m 4,7 C 1,9 C 30,6 km/h (5 Bft) 100,00 %
04.01.2012 12:13 9,4 C 73 % 1013,2 hPa 0,0 l/m 23,6 km/h (4 Bft) W-NW 282 0 min 0,000 mm 51 W/m 4,8 C 1,4 C 33,8 km/h (5 Bft) 100,00 %
04.01.2012 12:14 9,4 C 72 % 1013,1 hPa 0,0 l/m 21,2 km/h (4 Bft) NW 312 0 min 0,000 mm 49 W/m 4,6 C 2,1 C 37,0 km/h (5 Bft) 100,00 %
04.01.2012 12:15 9,4 C 72 % 1013,2 hPa 0,0 l/m 21,8 km/h (4 Bft) W-SW 252 0 min 0,000 mm 49 W/m 4,6 C 1,9 C 37,0 km/h (5 Bft) 100,00 %
04.01.2012 12:16 9,4 C 71 % 1013,2 hPa 0,0 l/m 23,4 km/h (4 Bft) W 269 0 min 0,000 mm 49 W/m 4,4 C 1,5 C 29,0 km/h (5 Bft) 100,00 %
04.01.2012 12:17 9,4 C 71 % 1013,1 hPa 0,0 l/m 19,6 km/h (3 Bft) W-NW 282 0 min 0,000 mm 47 W/m 4,4 C 2,6 C 29,0 km/h (5 Bft) 100,00 %
04.01.2012 12:18 9,4 C 71 % 1013,1 hPa 0,0 l/m 21,9 km/h (4 Bft) W-NW 299 0 min 0,000 mm 46 W/m 4,4 C 1,9 C 32,2 km/h (5 Bft) 100,00 %
04.01.2012 12:19 9,4 C 71 % 1013,1 hPa 0,0 l/m 16,5 km/h (3 Bft) W 265 0 min 0,000 mm 44 W/m 4,4 C 3,8 C 30,6 km/h (5 Bft) 100,00 %
04.01.2012 12:20 9,4 C 71 % 1013,1 hPa 0,0 l/m 27,3 km/h (4 Bft) W 266 0 min 0,000 mm 42 W/m 4,4 C 0,4 C 37,0 km/h (5 Bft) 100,00 %
04.01.2012 12:21 9,4 C 70 % 1013,1 hPa 0,0 l/m 20,4 km/h (4 Bft) W 279 0 min 0,000 mm 40 W/m 4,2 C 2,4 C 30,6 km/h (5 Bft) 100,00 %
04.01.2012 12:22 9,4 C 70 % 1013,2 hPa 0,0 l/m 19,6 km/h (3 Bft) W 260 0 min 0,000 mm 39 W/m 4,2 C 2,6 C 38,6 km/h (5 Bft) 100,00 %
04.01.2012 12:23 9,4 C 69 % 1013,2 hPa 0,0 l/m 29,1 km/h (5 Bft) W-NW 284 0 min 0,000 mm 37 W/m 4,0 C 0,0 C 40,2 km/h (6 Bft) 100,00 %
04.01.2012 12:24 9,4 C 69 % 1013,3 hPa 0,0 l/m 13,9 km/h (3 Bft) W-NW 294 0 min 0,000 mm 35 W/m 4,0 C 4,9 C 27,4 km/h (4 Bft) 100,00 %
04.01.2012 12:25 9,5 C 69 % 1013,3 hPa 0,0 l/m 17,1 km/h (3 Bft) NW 314 0 min 0,000 mm 35 W/m 4,1 C 3,7 C 27,4 km/h (4 Bft) 100,00 %
04.01.2012 12:26 9,4 C 69 % 1013,3 hPa 0,0 l/m 18,4 km/h (3 Bft) W-NW 287 0 min 0,000 mm 35 W/m 4,0 C 3,1 C 22,5 km/h (4 Bft) 100,00 %
04.01.2012 12:27 9,5 C 69 % 1013,2 hPa 0,0 l/m 17,8 km/h (3 Bft) W-NW 291 0 min 0,000 mm 33 W/m 4,1 C 3,4 C 27,4 km/h (4 Bft) 100,00 %
04.01.2012 12:28 9,5 C 69 % 1013,3 hPa 0,0 l/m 12,0 km/h (2 Bft) W-NW 292 0 min 0,000 mm 33 W/m 4,1 C 5,9 C 22,5 km/h (4 Bft) 100,00 %
04.01.2012 12:29 9,4 C 69 % 1013,3 hPa 0,0 l/m 11,1 km/h (2 Bft) W 272 0 min 0,000 mm 32 W/m 4,0 C 6,3 C 20,9 km/h (4 Bft) 100,00 %
04.01.2012 12:30 9,4 C 69 % 1013,3 hPa 0,0 l/m 16,0 km/h (3 Bft) W-NW 295 0 min 0,000 mm 30 W/m 4,0 C 4,0 C 24,1 km/h (4 Bft) 100,00 %
04.01.2012 12:31 9,4 C 69 % 1013,3 hPa 0,0 l/m 15,6 km/h (3 Bft) W-NW 302 0 min 0,000 mm 30 W/m 4,0 C 4,2 C 25,7 km/h (4 Bft) 100,00 %
04.01.2012 12:32 9,4 C 69 % 1013,3 hPa 0,0 l/m 20,9 km/h (4 Bft) W 281 0 min 0,000 mm 30 W/m 4,0 C 2,2 C 27,4 km/h (4 Bft) 100,00 %
04.01.2012 12:33 9,4 C 69 % 1013,3 hPa 0,0 l/m 24,1 km/h (4 Bft) W-NW 296 0 min 0,000 mm 30 W/m 4,0 C 1,3 C 33,8 km/h (5 Bft) 100,00 %
04.01.2012 12:34 9,4 C 69 % 1013,3 hPa 0,0 l/m 22,3 km/h (4 Bft) W-NW 300 0 min 0,000 mm 30 W/m 4,0 C 1,8 C 30,6 km/h (5 Bft) 100,00 %
04.01.2012 12:35 9,4 C 69 % 1013,3 hPa 0,0 l/m 19,5 km/h (3 Bft) W-NW 290 0 min 0,000 mm 30 W/m 4,0 C 2,7 C 30,6 km/h (5 Bft) 100,00 %
04.01.2012 12:36 9,4 C 69 % 1013,4 hPa 0,0 l/m 14,2 km/h (3 Bft) W 260 0 min 0,000 mm 32 W/m 4,0 C 4,8 C 25,7 km/h (4 Bft) 100,00 %
04.01.2012 12:37 9,3 C 69 % 1013,3 hPa 0,0 l/m 17,1 km/h (3 Bft) W 267 0 min 0,000 mm 32 W/m 3,9 C 3,4 C 25,7 km/h (4 Bft) 100,00 %
04.01.2012 12:38 9,3 C 69 % 1013,3 hPa 0,0 l/m 15,0 km/h (3 Bft) W-SW 255 0 min 0,000 mm 32 W/m 3,9 C 4,3 C 29,0 km/h (5 Bft) 100,00 %
04.01.2012 12:39 9,3 C 69 % 1013,3 hPa 0,0 l/m 16,5 km/h (3 Bft) W-NW 292 0 min 0,000 mm 33 W/m 3,9 C 3,7 C 25,7 km/h (4 Bft) 100,00 %
04.01.2012 12:40 9,3 C 69 % 1013,2 hPa 0,0 l/m 19,3 km/h (3 Bft) NW 323 0 min 0,000 mm 33 W/m 3,9 C 2,6 C 27,4 km/h (4 Bft) 100,00 %
04.01.2012 12:41 9,3 C 69 % 1013,3 hPa 0,0 l/m 16,2 km/h (3 Bft) W 273 0 min 0,000 mm 35 W/m 3,9 C 3,8 C 27,4 km/h (4 Bft) 100,00 %
04.01.2012 12:42 9,3 C 69 % 1013,3 hPa 0,0 l/m 9,8 km/h (2 Bft) NW 304 0 min 0,000 mm 35 W/m 3,9 C 6,9 C 25,7 km/h (4 Bft) 100,00 %
04.01.2012 12:43 9,3 C 69 % 1013,4 hPa 0,0 l/m 17,9 km/h (3 Bft) W-NW 302 0 min 0,000 mm 37 W/m 3,9 C 3,1 C 35,4 km/h (5 Bft) 100,00 %
04.01.2012 12:44 9,3 C 69 % 1013,3 hPa 0,0 l/m 21,8 km/h (4 Bft) NW 304 0 min 0,000 mm 39 W/m 3,9 C 1,8 C 32,2 km/h (5 Bft) 100,00 %
04.01.2012 12:45 9,2 C 69 % 1013,4 hPa 0,0 l/m 14,9 km/h (3 Bft) W 273 0 min 0,000 mm 40 W/m 3,8 C 4,2 C 25,7 km/h (4 Bft) 100,00 %
04.01.2012 12:46 9,2 C 69 % 1013,4 hPa 0,0 l/m 13,6 km/h (3 Bft) W-NW 287 0 min 0,000 mm 42 W/m 3,8 C 4,8 C 24,1 km/h (4 Bft) 100,00 %
04.01.2012 12:47 9,2 C 69 % 1013,4 hPa 0,0 l/m 21,8 km/h (4 Bft) W-NW 286 0 min 0,000 mm 44 W/m 3,8 C 1,7 C 35,4 km/h (5 Bft) 100,00 %
04.01.2012 12:48 9,2 C 69 % 1013,4 hPa 0,0 l/m 17,3 km/h (3 Bft) W 271 0 min 0,000 mm 44 W/m 3,8 C 3,2 C 25,7 km/h (4 Bft) 100,00 %
04.01.2012 12:49 9,2 C 69 % 1013,4 hPa 0,0 l/m 15,8 km/h (3 Bft) W 266 0 min 0,000 mm 46 W/m 3,8 C 3,8 C 22,5 km/h (4 Bft) 100,00 %
04.01.2012 12:50 9,2 C 69 % 1013,4 hPa 0,0 l/m 15,4 km/h (3 Bft) W 281 0 min 0,000 mm 46 W/m 3,8 C 4,0 C 27,4 km/h (4 Bft) 100,00 %
04.01.2012 12:51 9,2 C 69 % 1013,4 hPa 0,0 l/m 12,6 km/h (3 Bft) W-NW 302 0 min 0,000 mm 47 W/m 3,8 C 5,3 C 24,1 km/h (4 Bft) 100,00 %
04.01.2012 12:52 9,2 C 69 % 1013,5 hPa 0,0 l/m 13,7 km/h (3 Bft) W 274 0 min 0,000 mm 47 W/m 3,8 C 4,8 C 19,3 km/h (3 Bft) 96,00 %
04.01.2012 12:53 9,2 C 70 % 1013,4 hPa 0,0 l/m 10,8 km/h (2 Bft) W 269 0 min 0,000 mm 49 W/m 4,0 C 6,2 C 19,3 km/h (3 Bft) 100,00 %
04.01.2012 12:54 9,2 C 70 % 1013,4 hPa 0,0 l/m 13,7 km/h (3 Bft) W-NW 290 0 min 0,000 mm 49 W/m 4,0 C 4,8 C 22,5 km/h (4 Bft) 100,00 %
04.01.2012 12:55 9,2 C 70 % 1013,4 hPa 0,0 l/m 12,0 km/h (2 Bft) W-NW 288 0 min 0,000 mm 49 W/m 4,0 C 5,6 C 20,9 km/h (4 Bft) 100,00 %
04.01.2012 12:56 9,2 C 70 % 1013,4 hPa 0,0 l/m 19,3 km/h (3 Bft) W 273 0 min 0,000 mm 51 W/m 4,0 C 2,5 C 30,6 km/h (5 Bft) 100,00 %
04.01.2012 12:57 9,2 C 70 % 1013,4 hPa 0,0 l/m 12,5 km/h (3 Bft) W 280 0 min 0,000 mm 51 W/m 4,0 C 5,3 C 22,5 km/h (4 Bft) 100,00 %
04.01.2012 12:58 9,2 C 70 % 1013,4 hPa 0,0 l/m 16,1 km/h (3 Bft) W-NW 295 0 min 0,000 mm 53 W/m 4,0 C 3,7 C 24,1 km/h (4 Bft) 100,00 %
04.01.2012 12:59 9,2 C 70 % 1013,5 hPa 0,0 l/m 12,5 km/h (3 Bft) W 281 0 min 0,000 mm 53 W/m 4,0 C 5,3 C 29,0 km/h (5 Bft) 100,00 %
04.01.2012 13:00 9,2 C 70 % 1013,4 hPa 0,0 l/m 16,2 km/h (3 Bft) W 271 0 min 0,000 mm 51 W/m 4,0 C 3,7 C 27,4 km/h (4 Bft) 95,65 %
04.01.2012 13:01 9,2 C 69 % 1013,5 hPa 0,0 l/m 23,5 km/h (4 Bft) W-NW 288 0 min 0,076 mm 49 W/m 3,8 C 1,2 C 38,6 km/h (5 Bft) 100,00 %
04.01.2012 13:02 9,2 C 69 % 1013,5 hPa 0,0 l/m 22,8 km/h (4 Bft) W 277 0 min 0,000 mm 49 W/m 3,8 C 1,4 C 30,6 km/h (5 Bft) 100,00 %
04.01.2012 13:03 9,2 C 68 % 1013,5 hPa 0,0 l/m 25,7 km/h (4 Bft) W-NW 294 0 min 0,000 mm 47 W/m 3,6 C 0,6 C 33,8 km/h (5 Bft) 100,00 %
04.01.2012 13:04 9,2 C 68 % 1013,5 hPa 0,0 l/m 20,5 km/h (4 Bft) W-NW 288 0 min 0,000 mm 47 W/m 3,6 C 2,1 C 27,4 km/h (4 Bft) 100,00 %
04.01.2012 13:05 9,2 C 68 % 1013,5 hPa 0,0 l/m 22,3 km/h (4 Bft) W 271 0 min 0,000 mm 47 W/m 3,6 C 1,5 C 35,4 km/h (5 Bft) 100,00 %
04.01.2012 13:06 9,2 C 68 % 1013,5 hPa 0,0 l/m 18,3 km/h (3 Bft) W 276 0 min 0,000 mm 47 W/m 3,6 C 2,8 C 25,7 km/h (4 Bft) 100,00 %
04.01.2012 13:07 9,2 C 68 % 1013,5 hPa 0,0 l/m 21,8 km/h (4 Bft) W-NW 287 0 min 0,000 mm 47 W/m 3,6 C 1,7 C 37,0 km/h (5 Bft) 100,00 %
04.01.2012 13:09 9,2 C 68 % 1013,5 hPa 0,0 l/m 20,0 km/h (4 Bft) W 259 0 min 0,000 mm 49 W/m 3,6 C 2,3 C 33,8 km/h (5 Bft) 100,00 %
04.01.2012 13:10 9,2 C 68 % 1013,5 hPa 0,0 l/m 23,8 km/h (4 Bft) W 266 0 min 0,000 mm 49 W/m 3,6 C 1,1 C 35,4 km/h (5 Bft) 100,00 %
04.01.2012 13:11 9,2 C 68 % 1013,5 hPa 0,0 l/m 24,6 km/h (4 Bft) W 262 0 min 0,000 mm 47 W/m 3,6 C 0,9 C 38,6 km/h (5 Bft) 100,00 %
04.01.2012 13:12 9,2 C 68 % 1013,5 hPa 0,0 l/m 21,1 km/h (4 Bft) W-NW 292 0 min 0,000 mm 47 W/m 3,6 C 1,9 C 30,6 km/h (5 Bft) 100,00 %
04.01.2012 13:13 9,2 C 68 % 1013,6 hPa 0,0 l/m 21,6 km/h (4 Bft) W-NW 287 0 min 0,000 mm 46 W/m 3,6 C 1,7 C 37,0 km/h (5 Bft) 100,00 %
04.01.2012 13:14 9,2 C 68 % 1013,5 hPa 0,0 l/m 19,8 km/h (3 Bft) NW 311 0 min 0,000 mm 44 W/m 3,6 C 2,3 C 30,6 km/h (5 Bft) 100,00 %
04.01.2012 13:15 9,2 C 68 % 1013,5 hPa 0,0 l/m 22,7 km/h (4 Bft) W-NW 288 0 min 0,000 mm 44 W/m 3,6 C 1,4 C 32,2 km/h (5 Bft) 100,00 %
04.01.2012 13:16 9,2 C 68 % 1013,5 hPa 0,0 l/m 23,2 km/h (4 Bft) W 267 0 min 0,000 mm 42 W/m 3,6 C 1,3 C 37,0 km/h (5 Bft) 100,00 %
04.01.2012 13:17 9,2 C 68 % 1013,5 hPa 0,0 l/m 19,6 km/h (3 Bft) W-NW 284 0 min 0,000 mm 42 W/m 3,6 C 2,4 C 29,0 km/h (5 Bft) 95,83 %
04.01.2012 13:18 9,2 C 68 % 1013,6 hPa 0,0 l/m 16,2 km/h (3 Bft) W-NW 294 0 min 0,000 mm 42 W/m 3,6 C 3,7 C 29,0 km/h (5 Bft) 100,00 %
04.01.2012 13:19 9,2 C 68 % 1013,6 hPa 0,0 l/m 15,0 km/h (3 Bft) W-NW 293 0 min 0,000 mm 40 W/m 3,6 C 4,2 C 22,5 km/h (4 Bft) 100,00 %
04.01.2012 13:20 9,2 C 68 % 1013,5 hPa 0,0 l/m 22,5 km/h (4 Bft) W 279 0 min 0,000 mm 42 W/m 3,6 C 1,5 C 33,8 km/h (5 Bft) 100,00 %
04.01.2012 13:21 9,2 C 68 % 1013,5 hPa 0,0 l/m 24,3 km/h (4 Bft) W 277 0 min 0,000 mm 42 W/m 3,6 C 0,9 C 32,2 km/h (5 Bft) 100,00 %
04.01.2012 13:22 9,2 C 68 % 1013,5 hPa 0,0 l/m 20,8 km/h (4 Bft) W-NW 294 0 min 0,000 mm 42 W/m 3,6 C 2,0 C 32,2 km/h (5 Bft) 100,00 %
04.01.2012 13:23 9,2 C 68 % 1013,5 hPa 0,0 l/m 23,4 km/h (4 Bft) W 279 0 min 0,000 mm 42 W/m 3,6 C 1,2 C 35,4 km/h (5 Bft) 100,00 %
04.01.2012 13:24 9,2 C 68 % 1013,5 hPa 0,0 l/m 18,4 km/h (3 Bft) W 265 0 min 0,000 mm 42 W/m 3,6 C 2,8 C 30,6 km/h (5 Bft) 100,00 %
04.01.2012 13:25 9,2 C 68 % 1013,6 hPa 0,0 l/m 18,7 km/h (3 Bft) W 259 0 min 0,000 mm 42 W/m 3,6 C 2,7 C 35,4 km/h (5 Bft) 100,00 %
04.01.2012 13:26 9,2 C 68 % 1013,5 hPa 0,0 l/m 18,1 km/h (3 Bft) N-NW 333 0 min 0,000 mm 40 W/m 3,6 C 2,9 C 35,4 km/h (5 Bft) 100,00 %
04.01.2012 13:27 9,2 C 68 % 1013,5 hPa 0,0 l/m 18,4 km/h (3 Bft) W-NW 292 0 min 0,000 mm 40 W/m 3,6 C 2,8 C 25,7 km/h (4 Bft) 100,00 %
04.01.2012 13:28 9,2 C 68 % 1013,5 hPa 0,0 l/m 18,3 km/h (3 Bft) NW 316 0 min 0,000 mm 42 W/m 3,6 C 2,8 C 24,1 km/h (4 Bft) 100,00 %
04.01.2012 13:29 9,2 C 68 % 1013,5 hPa 0,0 l/m 17,0 km/h (3 Bft) W-NW 302 0 min 0,000 mm 42 W/m 3,6 C 3,3 C 24,1 km/h (4 Bft) 100,00 %
04.01.2012 13:30 9,2 C 68 % 1013,5 hPa 0,0 l/m 24,8 km/h (4 Bft) NW 326 0 min 0,000 mm 44 W/m 3,6 C 0,8 C 37,0 km/h (5 Bft) 100,00 %
04.01.2012 13:31 9,2 C 67 % 1013,5 hPa 0,0 l/m 21,3 km/h (4 Bft) W 265 0 min 0,000 mm 44 W/m 3,4 C 1,8 C 33,8 km/h (5 Bft) 100,00 %
04.01.2012 13:32 9,2 C 67 % 1013,5 hPa 0,0 l/m 24,6 km/h (4 Bft) W-NW 296 0 min 0,000 mm 46 W/m 3,4 C 0,9 C 35,4 km/h (5 Bft) 100,00 %
04.01.2012 13:33 9,2 C 67 % 1013,5 hPa 0,0 l/m 22,9 km/h (4 Bft) W-NW 302 0 min 0,000 mm 46 W/m 3,4 C 1,3 C 35,4 km/h (5 Bft) 100,00 %
04.01.2012 13:34 9,2 C 67 % 1013,5 hPa 0,0 l/m 14,5 km/h (3 Bft) W 273 0 min 0,000 mm 47 W/m 3,4 C 4,4 C 30,6 km/h (5 Bft) 95,83 %
04.01.2012 13:35 9,2 C 68 % 1013,6 hPa 0,0 l/m 13,2 km/h (3 Bft) W 279 0 min 0,000 mm 47 W/m 3,6 C 5,0 C 24,1 km/h (4 Bft) 100,00 %
04.01.2012 13:36 9,2 C 68 % 1013,6 hPa 0,0 l/m 20,8 km/h (4 Bft) W-NW 290 0 min 0,000 mm 47 W/m 3,6 C 2,0 C 25,7 km/h (4 Bft) 100,00 %
04.01.2012 13:37 9,2 C 67 % 1013,5 hPa 0,0 l/m 23,5 km/h (4 Bft) W 275 0 min 0,000 mm 46 W/m 3,4 C 1,2 C 33,8 km/h (5 Bft) 100,00 %
04.01.2012 13:38 9,2 C 67 % 1013,6 hPa 0,0 l/m 18,6 km/h (3 Bft) W-NW 284 0 min 0,000 mm 46 W/m 3,4 C 2,7 C 38,6 km/h (5 Bft) 100,00 %
04.01.2012 13:39 9,2 C 67 % 1013,6 hPa 0,0 l/m 16,4 km/h (3 Bft) W 260 0 min 0,000 mm 44 W/m 3,4 C 3,6 C 30,6 km/h (5 Bft) 100,00 %
04.01.2012 13:40 9,2 C 67 % 1013,5 hPa 0,0 l/m 18,4 km/h (3 Bft) W-NW 287 0 min 0,000 mm 44 W/m 3,4 C 2,8 C 32,2 km/h (5 Bft) 100,00 %
04.01.2012 13:41 9,2 C 67 % 1013,5 hPa 0,0 l/m 15,0 km/h (3 Bft) NW 311 0 min 0,000 mm 44 W/m 3,4 C 4,2 C 27,4 km/h (4 Bft) 100,00 %
04.01.2012 13:42 9,2 C 67 % 1013,5 hPa 0,0 l/m 15,3 km/h (3 Bft) W-SW 258 0 min 0,000 mm 42 W/m 3,4 C 4,0 C 32,2 km/h (5 Bft) 100,00 %
04.01.2012 13:43 9,2 C 67 % 1013,5 hPa 0,0 l/m 15,3 km/h (3 Bft) W 279 0 min 0,000 mm 42 W/m 3,4 C 4,0 C 24,1 km/h (4 Bft) 100,00 %
04.01.2012 13:44 9,2 C 67 % 1013,6 hPa 0,0 l/m 16,6 km/h (3 Bft) W-NW 292 0 min 0,000 mm 40 W/m 3,4 C 3,5 C 25,7 km/h (4 Bft) 100,00 %
04.01.2012 13:45 9,2 C 67 % 1013,6 hPa 0,0 l/m 12,5 km/h (3 Bft) NW 313 0 min 0,000 mm 39 W/m 3,4 C 5,3 C 19,3 km/h (3 Bft) 100,00 %
04.01.2012 13:46 9,2 C 67 % 1013,6 hPa 0,0 l/m 14,3 km/h (3 Bft) W 275 0 min 0,000 mm 37 W/m 3,4 C 4,5 C 24,1 km/h (4 Bft) 96,30 %
04.01.2012 13:47 9,2 C 67 % 1013,6 hPa 0,0 l/m 16,5 km/h (3 Bft) W 280 0 min 0,000 mm 37 W/m 3,4 C 3,5 C 24,1 km/h (4 Bft) 100,00 %
04.01.2012 13:48 9,2 C 67 % 1013,7 hPa 0,0 l/m 11,6 km/h (2 Bft) W 261 0 min 0,000 mm 37 W/m 3,4 C 5,8 C 17,7 km/h (3 Bft) 100,00 %
04.01.2012 13:49 9,2 C 67 % 1013,8 hPa 0,0 l/m 10,6 km/h (2 Bft) W 267 0 min 0,000 mm 39 W/m 3,4 C 6,4 C 19,3 km/h (3 Bft) 100,00 %
04.01.2012 13:50 9,2 C 67 % 1013,7 hPa 0,0 l/m 11,6 km/h (2 Bft) W 265 0 min 0,000 mm 39 W/m 3,4 C 5,8 C 20,9 km/h (4 Bft) 100,00 %
04.01.2012 13:51 9,2 C 67 % 1013,8 hPa 0,0 l/m 17,4 km/h (3 Bft) W 270 0 min 0,000 mm 40 W/m 3,4 C 3,2 C 25,7 km/h (4 Bft) 100,00 %
04.01.2012 13:52 9,2 C 67 % 1013,8 hPa 0,0 l/m 19,6 km/h (3 Bft) W 268 0 min 0,000 mm 42 W/m 3,4 C 2,4 C 27,4 km/h (4 Bft) 100,00 %
04.01.2012 13:53 9,2 C 67 % 1013,7 hPa 0,0 l/m 13,4 km/h (3 Bft) NW 317 0 min 0,000 mm 42 W/m 3,4 C 4,9 C 22,5 km/h (4 Bft) 100,00 %
04.01.2012 13:54 9,2 C 67 % 1013,8 hPa 0,0 l/m 18,7 km/h (3 Bft) W-NW 288 0 min 0,000 mm 44 W/m 3,4 C 2,7 C 24,1 km/h (4 Bft) 100,00 %
04.01.2012 13:55 9,2 C 67 % 1013,8 hPa 0,0 l/m 12,0 km/h (2 Bft) W 267 0 min 0,000 mm 42 W/m 3,4 C 5,6 C 22,5 km/h (4 Bft) 100,00 %
04.01.2012 13:56 9,2 C 67 % 1013,9 hPa 0,0 l/m 21,1 km/h (4 Bft) W-NW 284 0 min 0,000 mm 42 W/m 3,4 C 1,9 C 29,0 km/h (5 Bft) 100,00 %
04.01.2012 13:57 9,2 C 67 % 1013,8 hPa 0,0 l/m 20,0 km/h (4 Bft) W 265 0 min 0,000 mm 42 W/m 3,4 C 2,3 C 33,8 km/h (5 Bft) 100,00 %
04.01.2012 13:58 9,2 C 67 % 1014,1 hPa 0,0 l/m 20,0 km/h (4 Bft) NW 304 0 min 0,000 mm 42 W/m 3,4 C 2,3 C 35,4 km/h (5 Bft) 100,00 %
04.01.2012 13:59 9,2 C 66 % 1014,0 hPa 0,0 l/m 17,4 km/h (3 Bft) W-NW 294 0 min 0,000 mm 40 W/m 3,2 C 3,2 C 24,1 km/h (4 Bft) 100,00 %
04.01.2012 14:00 9,2 C 66 % 1014,0 hPa 0,0 l/m 14,7 km/h (3 Bft) W-NW 283 0 min 0,000 mm 40 W/m 3,2 C 4,3 C 25,7 km/h (4 Bft) 100,00 %
04.01.2012 14:01 9,2 C 66 % 1014,1 hPa 0,0 l/m 16,5 km/h (3 Bft) W-NW 296 0 min 0,076 mm 40 W/m 3,2 C 3,5 C 24,1 km/h (4 Bft) 100,00 %
04.01.2012 14:02 9,2 C 66 % 1014,0 hPa 0,0 l/m 17,8 km/h (3 Bft) W 276 0 min 0,000 mm 39 W/m 3,2 C 3,0 C 25,7 km/h (4 Bft) 100,00 %
04.01.2012 14:03 9,2 C 66 % 1014,1 hPa 0,0 l/m 13,4 km/h (3 Bft) W 274 0 min 0,000 mm 39 W/m 3,2 C 4,9 C 25,7 km/h (4 Bft) 100,00 %
04.01.2012 14:04 9,2 C 66 % 1014,2 hPa 0,0 l/m 22,0 km/h (4 Bft) W-NW 284 0 min 0,000 mm 39 W/m 3,2 C 1,6 C 33,8 km/h (5 Bft) 100,00 %
04.01.2012 14:05 9,2 C 66 % 1014,2 hPa 0,0 l/m 23,3 km/h (4 Bft) W-SW 257 0 min 0,000 mm 39 W/m 3,2 C 1,2 C 32,2 km/h (5 Bft) 100,00 %
04.01.2012 14:06 9,2 C 66 % 1014,2 hPa 0,0 l/m 21,7 km/h (4 Bft) W-SW 254 0 min 0,000 mm 39 W/m 3,2 C 1,7 C 32,2 km/h (5 Bft) 100,00 %
04.01.2012 14:07 9,2 C 66 % 1014,2 hPa 0,0 l/m 23,2 km/h (4 Bft) W-NW 284 0 min 0,000 mm 37 W/m 3,2 C 1,3 C 30,6 km/h (5 Bft) 100,00 %
04.01.2012 14:08 9,2 C 66 % 1014,3 hPa 0,0 l/m 17,3 km/h (3 Bft) W-SW 253 0 min 0,000 mm 37 W/m 3,2 C 3,2 C 32,2 km/h (5 Bft) 100,00 %
04.01.2012 14:09 9,2 C 66 % 1014,3 hPa 0,0 l/m 17,8 km/h (3 Bft) W 273 0 min 0,000 mm 35 W/m 3,2 C 3,0 C 33,8 km/h (5 Bft) 100,00 %
04.01.2012 14:10 9,2 C 66 % 1014,2 hPa 0,0 l/m 12,4 km/h (3 Bft) W 267 0 min 0,000 mm 35 W/m 3,2 C 5,4 C 22,5 km/h (4 Bft) 100,00 %
04.01.2012 14:11 9,2 C 66 % 1014,3 hPa 0,0 l/m 14,0 km/h (3 Bft) W-NW 294 0 min 0,000 mm 33 W/m 3,2 C 4,6 C 24,1 km/h (4 Bft) 100,00 %
04.01.2012 14:12 9,2 C 66 % 1014,3 hPa 0,0 l/m 13,4 km/h (3 Bft) W 281 0 min 0,000 mm 33 W/m 3,2 C 4,9 C 24,1 km/h (4 Bft) 96,00 %
04.01.2012 14:13 9,2 C 65 % 1014,3 hPa 0,0 l/m 19,3 km/h (3 Bft) W 277 0 min 0,000 mm 33 W/m 3,0 C 2,5 C 27,4 km/h (4 Bft) 100,00 %
04.01.2012 14:14 9,2 C 65 % 1014,4 hPa 0,0 l/m 22,3 km/h (4 Bft) W-NW 283 0 min 0,000 mm 33 W/m 3,0 C 1,5 C 35,4 km/h (5 Bft) 100,00 %
04.01.2012 14:15 9,2 C 65 % 1014,5 hPa 0,0 l/m 20,8 km/h (4 Bft) W 275 0 min 0,000 mm 32 W/m 3,0 C 2,0 C 29,0 km/h (5 Bft) 100,00 %
04.01.2012 14:16 9,2 C 65 % 1014,5 hPa 0,0 l/m 19,7 km/h (3 Bft) W 272 0 min 0,000 mm 32 W/m 3,0 C 2,4 C 30,6 km/h (5 Bft) 100,00 %
04.01.2012 14:17 9,2 C 65 % 1014,5 hPa 0,0 l/m 23,6 km/h (4 Bft) W 277 0 min 0,000 mm 30 W/m 3,0 C 1,1 C 37,0 km/h (5 Bft) 100,00 %
04.01.2012 14:18 9,2 C 65 % 1014,6 hPa 0,0 l/m 20,8 km/h (4 Bft) W 279 0 min 0,000 mm 30 W/m 3,0 C 2,0 C 32,2 km/h (5 Bft) 100,00 %
04.01.2012 14:19 9,2 C 65 % 1014,5 hPa 0,0 l/m 20,5 km/h (4 Bft) W-NW 287 0 min 0,000 mm 30 W/m 3,0 C 2,1 C 32,2 km/h (5 Bft) 96,00 %
04.01.2012 14:20 9,2 C 65 % 1014,5 hPa 0,0 l/m 17,6 km/h (3 Bft) W 272 0 min 0,000 mm 28 W/m 3,0 C 3,1 C 29,0 km/h (5 Bft) 100,00 %
04.01.2012 14:21 9,2 C 65 % 1014,5 hPa 0,0 l/m 15,6 km/h (3 Bft) W-SW 257 0 min 0,000 mm 28 W/m 3,0 C 3,9 C 37,0 km/h (5 Bft) 100,00 %
04.01.2012 14:22 9,2 C 64 % 1014,5 hPa 0,0 l/m 26,9 km/h (4 Bft) W 265 0 min 0,000 mm 28 W/m 2,8 C 0,3 C 40,2 km/h (6 Bft) 100,00 %
04.01.2012 14:23 9,2 C 64 % 1014,6 hPa 0,0 l/m 26,4 km/h (4 Bft) W 275 0 min 0,000 mm 28 W/m 2,8 C 0,4 C 43,5 km/h (6 Bft) 100,00 %
04.01.2012 14:24 9,2 C 64 % 1014,6 hPa 0,0 l/m 27,6 km/h (4 Bft) W-NW 290 0 min 0,000 mm 28 W/m 2,8 C 0,1 C 40,2 km/h (6 Bft) 100,00 %
04.01.2012 14:25 9,2 C 64 % 1014,6 hPa 0,0 l/m 18,5 km/h (3 Bft) W-SW 258 0 min 0,000 mm 28 W/m 2,8 C 2,8 C 25,7 km/h (4 Bft) 100,00 %
04.01.2012 14:26 9,2 C 64 % 1014,6 hPa 0,0 l/m 28,2 km/h (4 Bft) W 263 0 min 0,000 mm 30 W/m 2,8 C -0,1 C 43,5 km/h (6 Bft) 100,00 %
04.01.2012 14:27 9,2 C 64 % 1014,7 hPa 0,0 l/m 28,4 km/h (4 Bft) W 273 0 min 0,000 mm 32 W/m 2,8 C -0,1 C 40,2 km/h (6 Bft) 100,00 %
04.01.2012 14:28 9,2 C 64 % 1014,6 hPa 0,0 l/m 20,7 km/h (4 Bft) W-NW 286 0 min 0,000 mm 32 W/m 2,8 C 2,0 C 29,0 km/h (5 Bft) 100,00 %
04.01.2012 14:29 9,2 C 64 % 1014,7 hPa 0,0 l/m 18,9 km/h (3 Bft) W-NW 286 0 min 0,000 mm 32 W/m 2,8 C 2,6 C 37,0 km/h (5 Bft) 100,00 %
04.01.2012 14:30 9,2 C 64 % 1014,9 hPa 0,0 l/m 24,9 km/h (4 Bft) W 279 0 min 0,000 mm 33 W/m 2,8 C 0,8 C 38,6 km/h (5 Bft) 100,00 %
04.01.2012 14:31 9,2 C 64 % 1014,8 hPa 0,0 l/m 33,7 km/h (5 Bft) W 265 0 min 0,000 mm 33 W/m 2,8 C -1,2 C 53,1 km/h (7 Bft) 100,00 %
04.01.2012 14:32 9,2 C 64 % 1014,9 hPa 0,0 l/m 30,2 km/h (5 Bft) W-SW 250 0 min 0,000 mm 33 W/m 2,8 C -0,5 C 43,5 km/h (6 Bft) 100,00 %
04.01.2012 14:33 9,2 C 64 % 1014,9 hPa 0,0 l/m 39,3 km/h (6 Bft) W 267 0 min 0,000 mm 33 W/m 2,8 C -2,2 C 59,5 km/h (7 Bft) 100,00 %
04.01.2012 14:34 9,2 C 64 % 1014,9 hPa 0,0 l/m 36,5 km/h (5 Bft) W 277 0 min 0,000 mm 33 W/m 2,8 C -1,7 C 45,1 km/h (6 Bft) 100,00 %
04.01.2012 14:35 9,2 C 65 % 1014,9 hPa 0,0 l/m 29,7 km/h (5 Bft) W-SW 250 0 min 0,000 mm 33 W/m 3,0 C -0,4 C 35,4 km/h (5 Bft) 100,00 %
04.01.2012 14:36 9,2 C 65 % 1014,9 hPa 0,0 l/m 25,5 km/h (4 Bft) W 259 0 min 0,000 mm 33 W/m 3,0 C 0,6 C 35,4 km/h (5 Bft) 100,00 %
04.01.2012 14:37 9,1 C 65 % 1014,9 hPa 0,0 l/m 38,1 km/h (5 Bft) W-SW 254 0 min 0,000 mm 33 W/m 2,9 C -2,1 C 48,3 km/h (6 Bft) 100,00 %
04.01.2012 14:38 9,1 C 65 % 1014,9 hPa 0,0 l/m 45,0 km/h (6 Bft) W-SW 244 0 min 0,000 mm 35 W/m 2,9 C -3,1 C 64,4 km/h (8 Bft) 100,00 %
04.01.2012 14:39 9,0 C 65 % 1014,9 hPa 0,0 l/m 33,4 km/h (5 Bft) W 266 0 min 0,000 mm 35 W/m 2,8 C -1,5 C 41,8 km/h (6 Bft) 100,00 %
04.01.2012 14:40 8,9 C 65 % 1014,9 hPa 0,0 l/m 31,0 km/h (5 Bft) W-SW 246 0 min 0,000 mm 35 W/m 2,7 C -1,1 C 45,1 km/h (6 Bft) 100,00 %
04.01.2012 14:41 8,9 C 66 % 1015,0 hPa 0,0 l/m 25,3 km/h (4 Bft) W-NW 299 0 min 0,000 mm 35 W/m 2,9 C 0,3 C 35,4 km/h (5 Bft) 100,00 %
04.01.2012 14:42 8,8 C 66 % 1015,1 hPa 0,0 l/m 27,4 km/h (4 Bft) W-SW 254 0 min 0,000 mm 37 W/m 2,8 C -0,4 C 37,0 km/h (5 Bft) 100,00 %
04.01.2012 14:43 8,8 C 67 % 1015,1 hPa 0,0 l/m 26,9 km/h (4 Bft) W 279 0 min 0,000 mm 37 W/m 3,0 C -0,3 C 38,6 km/h (5 Bft) 100,00 %
04.01.2012 14:44 8,7 C 67 % 1015,2 hPa 0,0 l/m 29,6 km/h (5 Bft) W-SW 257 0 min 0,000 mm 37 W/m 2,9 C -1,1 C 38,6 km/h (5 Bft) 100,00 %
04.01.2012 14:45 8,7 C 67 % 1015,1 hPa 0,0 l/m 27,6 km/h (4 Bft) W-NW 289 0 min 0,000 mm 35 W/m 2,9 C -0,6 C 45,1 km/h (6 Bft) 100,00 %
04.01.2012 14:46 8,6 C 68 % 1015,1 hPa 0,0 l/m 20,1 km/h (4 Bft) W 268 0 min 0,000 mm 35 W/m 3,0 C 1,4 C 25,7 km/h (4 Bft) 100,00 %
04.01.2012 14:47 8,6 C 68 % 1015,1 hPa 0,0 l/m 21,0 km/h (4 Bft) W 263 0 min 0,000 mm 35 W/m 3,0 C 1,1 C 29,0 km/h (5 Bft) 100,00 %
04.01.2012 14:48 8,5 C 68 % 1015,2 hPa 0,0 l/m 22,2 km/h (4 Bft) W 259 0 min 0,000 mm 33 W/m 2,9 C 0,6 C 27,4 km/h (4 Bft) 100,00 %
04.01.2012 14:49 8,4 C 69 % 1014,9 hPa 0,0 l/m 20,8 km/h (4 Bft) W-SW 246 0 min 0,000 mm 33 W/m 3,0 C 0,9 C 27,4 km/h (4 Bft) 100,00 %
04.01.2012 14:50 8,4 C 69 % 1015,1 hPa 0,0 l/m 27,7 km/h (4 Bft) W 269 0 min 0,000 mm 32 W/m 3,0 C -1,0 C 45,1 km/h (6 Bft) 100,00 %
04.01.2012 14:51 8,3 C 68 % 1015,2 hPa 0,0 l/m 31,3 km/h (5 Bft) W-SW 253 0 min 0,000 mm 32 W/m 2,7 C -2,0 C 41,8 km/h (6 Bft) 100,00 %
04.01.2012 14:52 8,3 C 68 % 1015,2 hPa 0,0 l/m 25,9 km/h (4 Bft) W-SW 252 0 min 0,000 mm 32 W/m 2,7 C -0,7 C 35,4 km/h (5 Bft) 95,83 %
04.01.2012 14:53 8,2 C 68 % 1015,1 hPa 0,0 l/m 28,9 km/h (5 Bft) W 270 0 min 0,000 mm 32 W/m 2,7 C -1,6 C 41,8 km/h (6 Bft) 100,00 %
04.01.2012 14:54 8,2 C 66 % 1015,2 hPa 0,0 l/m 29,7 km/h (5 Bft) W-SW 257 0 min 0,000 mm 32 W/m 2,2 C -1,8 C 49,9 km/h (6 Bft) 100,00 %
04.01.2012 14:55 8,2 C 64 % 1015,0 hPa 0,0 l/m 38,0 km/h (5 Bft) W-SW 254 0 min 0,000 mm 32 W/m 1,8 C -3,5 C 53,1 km/h (7 Bft) 100,00 %
04.01.2012 14:56 8,1 C 63 % 1015,0 hPa 0,0 l/m 35,7 km/h (5 Bft) W-SW 249 0 min 0,000 mm 30 W/m 1,5 C -3,2 C 51,5 km/h (7 Bft) 100,00 %
04.01.2012 14:57 8,1 C 63 % 1015,2 hPa 0,0 l/m 43,1 km/h (6 Bft) W 265 0 min 0,000 mm 30 W/m 1,5 C -4,4 C 62,8 km/h (8 Bft) 100,00 %
04.01.2012 14:58 8,1 C 62 % 1015,2 hPa 0,0 l/m 36,6 km/h (5 Bft) W 267 0 min 0,000 mm 30 W/m 1,3 C -3,4 C 57,9 km/h (7 Bft) 100,00 %
04.01.2012 14:59 8,1 C 62 % 1015,3 hPa 0,0 l/m 28,2 km/h (4 Bft) W 275 0 min 0,000 mm 30 W/m 1,3 C -1,6 C 54,7 km/h (7 Bft) 96,30 %
04.01.2012 15:00 8,1 C 62 % 1015,3 hPa 0,0 l/m 25,9 km/h (4 Bft) W-NW 288 0 min 0,000 mm 30 W/m 1,3 C -1,0 C 38,6 km/h (5 Bft) 100,00 %
04.01.2012 15:01 8,1 C 62 % 1015,3 hPa 0,0 l/m 29,9 km/h (5 Bft) W 270 0 min 0,102 mm 30 W/m 1,3 C -2,0 C 43,5 km/h (6 Bft) 100,00 %
04.01.2012 15:02 8,1 C 62 % 1015,3 hPa 0,0 l/m 26,8 km/h (4 Bft) W-SW 257 0 min 0,000 mm 28 W/m 1,3 C -1,2 C 38,6 km/h (5 Bft) 100,00 %
04.01.2012 15:03 8,1 C 61 % 1015,4 hPa 0,0 l/m 34,9 km/h (5 Bft) W 264 0 min 0,000 mm 28 W/m 1,0 C -3,0 C 51,5 km/h (7 Bft) 100,00 %
04.01.2012 15:04 8,1 C 61 % 1015,4 hPa 0,0 l/m 24,3 km/h (4 Bft) W-NW 300 0 min 0,000 mm 26 W/m 1,0 C -0,5 C 37,0 km/h (5 Bft) 100,00 %
04.01.2012 15:05 8,1 C 61 % 1015,5 hPa 0,0 l/m 30,8 km/h (5 Bft) W 261 0 min 0,000 mm 26 W/m 1,0 C -2,2 C 43,5 km/h (6 Bft) 96,00 %
04.01.2012 15:06 8,0 C 61 % 1015,5 hPa 0,0 l/m 27,7 km/h (4 Bft) W 273 0 min 0,000 mm 26 W/m 0,9 C -1,6 C 53,1 km/h (7 Bft) 100,00 %
04.01.2012 15:07 8,0 C 61 % 1015,5 hPa 0,0 l/m 25,1 km/h (4 Bft) W 260 0 min 0,000 mm 26 W/m 0,9 C -0,9 C 51,5 km/h (7 Bft) 100,00 %
04.01.2012 15:08 7,9 C 61 % 1015,5 hPa 0,0 l/m 29,0 km/h (5 Bft) N-NW 327 0 min 0,000 mm 25 W/m 0,9 C -2,1 C 43,5 km/h (6 Bft) 100,00 %
04.01.2012 15:09 7,9 C 61 % 1015,5 hPa 0,0 l/m 23,6 km/h (4 Bft) W 261 0 min 0,000 mm 25 W/m 0,9 C -0,6 C 43,5 km/h (6 Bft) 100,00 %
04.01.2012 15:10 7,9 C 61 % 1015,5 hPa 0,0 l/m 19,8 km/h (3 Bft) W 263 0 min 0,000 mm 23 W/m 0,9 C 0,6 C 30,6 km/h (5 Bft) 100,00 %
04.01.2012 15:11 7,9 C 61 % 1015,5 hPa 0,0 l/m 21,0 km/h (4 Bft) W-NW 287 0 min 0,000 mm 23 W/m 0,9 C 0,2 C 29,0 km/h (5 Bft) 100,00 %
04.01.2012 15:12 7,9 C 61 % 1015,5 hPa 0,0 l/m 25,1 km/h (4 Bft) W-SW 256 0 min 0,000 mm 21 W/m 0,9 C -1,0 C 38,6 km/h (5 Bft) 100,00 %
04.01.2012 15:13 7,9 C 61 % 1015,5 hPa 0,0 l/m 25,9 km/h (4 Bft) W 265 0 min 0,000 mm 21 W/m 0,9 C -1,3 C 35,4 km/h (5 Bft) 100,00 %
04.01.2012 15:14 7,9 C 61 % 1015,5 hPa 0,0 l/m 23,9 km/h (4 Bft) W 263 0 min 0,000 mm 21 W/m 0,9 C -0,7 C 32,2 km/h (5 Bft) 100,00 %
04.01.2012 15:15 7,9 C 60 % 1015,5 hPa 0,0 l/m 29,0 km/h (5 Bft) W-SW 250 0 min 0,000 mm 21 W/m 0,6 C -2,1 C 40,2 km/h (6 Bft) 100,00 %
04.01.2012 15:16 7,9 C 60 % 1015,5 hPa 0,0 l/m 24,7 km/h (4 Bft) W-SW 256 0 min 0,000 mm 21 W/m 0,6 C -0,9 C 37,0 km/h (5 Bft) 100,00 %
04.01.2012 15:17 7,9 C 60 % 1015,5 hPa 0,0 l/m 23,4 km/h (4 Bft) W 265 0 min 0,000 mm 19 W/m 0,6 C -0,5 C 33,8 km/h (5 Bft) 100,00 %
04.01.2012 15:18 7,9 C 60 % 1015,7 hPa 0,0 l/m 29,4 km/h (5 Bft) W 261 0 min 0,000 mm 19 W/m 0,6 C -2,2 C 46,7 km/h (6 Bft) 100,00 %
04.01.2012 15:19 7,9 C 59 % 1015,7 hPa 0,0 l/m 29,2 km/h (5 Bft) W 263 0 min 0,000 mm 19 W/m 0,4 C -2,1 C 40,2 km/h (6 Bft) 100,00 %
04.01.2012 15:20 7,9 C 59 % 1015,7 hPa 0,0 l/m 27,2 km/h (4 Bft) W 275 0 min 0,000 mm 18 W/m 0,4 C -1,6 C 45,1 km/h (6 Bft) 100,00 %
04.01.2012 15:21 7,9 C 59 % 1015,7 hPa 0,0 l/m 22,1 km/h (4 Bft) W-SW 245 0 min 0,000 mm 18 W/m 0,4 C -0,1 C 32,2 km/h (5 Bft) 100,00 %
04.01.2012 15:22 7,9 C 59 % 1015,6 hPa 0,0 l/m 27,6 km/h (4 Bft) W-SW 240 0 min 0,000 mm 18 W/m 0,4 C -1,7 C 43,5 km/h (6 Bft) 100,00 %
04.01.2012 15:23 7,9 C 58 % 1015,7 hPa 0,0 l/m 33,0 km/h (5 Bft) W 268 0 min 0,000 mm 16 W/m 0,2 C -3,0 C 41,8 km/h (6 Bft) 100,00 %
04.01.2012 15:24 7,9 C 58 % 1015,6 hPa 0,0 l/m 28,4 km/h (4 Bft) W 267 0 min 0,000 mm 16 W/m 0,2 C -1,9 C 40,2 km/h (6 Bft) 100,00 %
04.01.2012 15:25 7,9 C 58 % 1015,7 hPa 0,0 l/m 26,9 km/h (4 Bft) W 261 0 min 0,000 mm 16 W/m 0,2 C -1,5 C 40,2 km/h (6 Bft) 100,00 %
04.01.2012 15:26 7,9 C 58 % 1015,7 hPa 0,0 l/m 25,5 km/h (4 Bft) W 261 0 min 0,000 mm 16 W/m 0,2 C -1,2 C 37,0 km/h (5 Bft) 100,00 %
04.01.2012 15:27 7,9 C 58 % 1015,6 hPa 0,0 l/m 21,1 km/h (4 Bft) W 269 0 min 0,000 mm 16 W/m 0,2 C 0,2 C 29,0 km/h (5 Bft) 100,00 %
04.01.2012 15:28 7,9 C 58 % 1015,8 hPa 0,0 l/m 28,9 km/h (5 Bft) W-NW 282 0 min 0,000 mm 16 W/m 0,2 C -2,0 C 38,6 km/h (5 Bft) 100,00 %
04.01.2012 15:29 7,9 C 58 % 1015,8 hPa 0,0 l/m 26,4 km/h (4 Bft) W 265 0 min 0,000 mm 16 W/m 0,2 C -1,4 C 38,6 km/h (5 Bft) 100,00 %
04.01.2012 15:30 7,9 C 58 % 1015,8 hPa 0,0 l/m 20,6 km/h (4 Bft) W 271 0 min 0,000 mm 18 W/m 0,2 C 0,4 C 30,6 km/h (5 Bft) 100,00 %
04.01.2012 15:31 7,9 C 58 % 1015,8 hPa 0,0 l/m 16,8 km/h (3 Bft) W 271 0 min 0,000 mm 18 W/m 0,2 C 1,8 C 24,1 km/h (4 Bft) 100,00 %
04.01.2012 15:32 7,9 C 58 % 1016,0 hPa 0,0 l/m 19,2 km/h (3 Bft) W 269 0 min 0,000 mm 18 W/m 0,2 C 0,9 C 27,4 km/h (4 Bft) 100,00 %
04.01.2012 15:33 7,9 C 58 % 1016,0 hPa 0,0 l/m 21,8 km/h (4 Bft) W-SW 257 0 min 0,000 mm 18 W/m 0,2 C -0,0 C 27,4 km/h (4 Bft) 100,00 %
04.01.2012 15:34 7,9 C 58 % 1016,0 hPa 0,0 l/m 17,9 km/h (3 Bft) W 259 0 min 0,000 mm 18 W/m 0,2 C 1,4 C 29,0 km/h (5 Bft) 100,00 %
04.01.2012 15:35 7,9 C 58 % 1016,1 hPa 0,0 l/m 21,8 km/h (4 Bft) W 259 0 min 0,000 mm 18 W/m 0,2 C -0,0 C 33,8 km/h (5 Bft) 100,00 %
04.01.2012 15:36 7,9 C 58 % 1016,1 hPa 0,0 l/m 26,4 km/h (4 Bft) W 260 0 min 0,000 mm 18 W/m 0,2 C -1,4 C 35,4 km/h (5 Bft) 100,00 %
04.01.2012 15:37 7,9 C 58 % 1016,1 hPa 0,0 l/m 22,8 km/h (4 Bft) W 275 0 min 0,000 mm 18 W/m 0,2 C -0,4 C 38,6 km/h (5 Bft) 100,00 %
04.01.2012 15:38 7,9 C 58 % 1016,2 hPa 0,0 l/m 21,3 km/h (4 Bft) W 266 0 min 0,000 mm 18 W/m 0,2 C 0,1 C 38,6 km/h (5 Bft) 100,00 %
04.01.2012 15:39 7,9 C 57 % 1016,1 hPa 0,0 l/m 26,5 km/h (4 Bft) W 267 0 min 0,000 mm 16 W/m -0,1 C -1,4 C 35,4 km/h (5 Bft) 100,00 %
04.01.2012 15:40 7,9 C 57 % 1016,2 hPa 0,0 l/m 17,6 km/h (3 Bft) W 276 0 min 0,000 mm 16 W/m -0,1 C 1,5 C 29,0 km/h (5 Bft) 100,00 %
04.01.2012 15:41 7,9 C 58 % 1016,2 hPa 0,0 l/m 24,4 km/h (4 Bft) W-SW 254 0 min 0,000 mm 16 W/m 0,2 C -0,8 C 33,8 km/h (5 Bft) 100,00 %
04.01.2012 15:42 7,9 C 57 % 1016,2 hPa 0,0 l/m 24,8 km/h (4 Bft) W 261 0 min 0,000 mm 16 W/m -0,1 C -1,0 C 37,0 km/h (5 Bft) 100,00 %
04.01.2012 15:43 7,9 C 57 % 1016,4 hPa 0,0 l/m 22,8 km/h (4 Bft) W 263 0 min 0,000 mm 16 W/m -0,1 C -0,4 C 33,8 km/h (5 Bft) 100,00 %
04.01.2012 15:44 7,9 C 57 % 1016,4 hPa 0,0 l/m 25,3 km/h (4 Bft) NW 311 0 min 0,000 mm 16 W/m -0,1 C -1,1 C 41,8 km/h (6 Bft) 96,43 %
04.01.2012 15:45 7,9 C 57 % 1016,4 hPa 0,0 l/m 20,5 km/h (4 Bft) W-NW 298 0 min 0,000 mm 16 W/m -0,1 C 0,4 C 33,8 km/h (5 Bft) 100,00 %
04.01.2012 15:46 7,9 C 58 % 1016,5 hPa 0,0 l/m 15,5 km/h (3 Bft) W 281 0 min 0,000 mm 14 W/m 0,2 C 2,4 C 29,0 km/h (5 Bft) 100,00 %
04.01.2012 15:47 7,9 C 58 % 1016,4 hPa 0,0 l/m 18,9 km/h (3 Bft) W 269 0 min 0,000 mm 14 W/m 0,2 C 1,0 C 27,4 km/h (4 Bft) 100,00 %
04.01.2012 15:48 7,9 C 58 % 1016,4 hPa 0,0 l/m 16,7 km/h (3 Bft) W-SW 258 0 min 0,000 mm 12 W/m 0,2 C 1,8 C 30,6 km/h (5 Bft) 100,00 %
04.01.2012 15:49 7,9 C 58 % 1016,5 hPa 0,0 l/m 17,1 km/h (3 Bft) W 270 0 min 0,000 mm 11 W/m 0,2 C 1,7 C 32,2 km/h (5 Bft) 100,00 %
04.01.2012 15:50 7,9 C 59 % 1016,5 hPa 0,0 l/m 15,5 km/h (3 Bft) W 267 0 min 0,000 mm 9 W/m 0,4 C 2,4 C 20,9 km/h (4 Bft) 100,00 %
04.01.2012 15:51 7,8 C 59 % 1016,4 hPa 0,0 l/m 11,8 km/h (2 Bft) W 280 0 min 0,000 mm 9 W/m 0,3 C 4,1 C 19,3 km/h (3 Bft) 100,00 %
04.01.2012 15:52 7,8 C 59 % 1016,4 hPa 0,0 l/m 15,0 km/h (3 Bft) W-NW 288 0 min 0,000 mm 9 W/m 0,3 C 2,5 C 27,4 km/h (4 Bft) 100,00 %
04.01.2012 15:53 7,8 C 59 % 1016,4 hPa 0,0 l/m 23,5 km/h (4 Bft) W 269 0 min 0,000 mm 7 W/m 0,3 C -0,7 C 33,8 km/h (5 Bft) 100,00 %
04.01.2012 15:54 7,8 C 59 % 1016,4 hPa 0,0 l/m 20,6 km/h (4 Bft) W 277 0 min 0,000 mm 7 W/m 0,3 C 0,2 C 32,2 km/h (5 Bft) 100,00 %
04.01.2012 15:55 7,8 C 59 % 1016,4 hPa 0,0 l/m 22,8 km/h (4 Bft) W 277 0 min 0,000 mm 7 W/m 0,3 C -0,5 C 41,8 km/h (6 Bft) 100,00 %
04.01.2012 15:56 7,8 C 59 % 1016,3 hPa 0,0 l/m 24,2 km/h (4 Bft) W 281 0 min 0,000 mm 7 W/m 0,3 C -0,9 C 35,4 km/h (5 Bft) 100,00 %
04.01.2012 15:57 7,8 C 59 % 1016,4 hPa 0,0 l/m 28,6 km/h (4 Bft) W-SW 240 0 min 0,000 mm 7 W/m 0,3 C -2,1 C 40,2 km/h (6 Bft) 100,00 %
04.01.2012 15:58 7,8 C 60 % 1016,5 hPa 0,0 l/m 21,5 km/h (4 Bft) W 259 0 min 0,000 mm 5 W/m 0,5 C -0,1 C 32,2 km/h (5 Bft) 100,00 %
04.01.2012 15:59 7,7 C 60 % 1016,5 hPa 0,0 l/m 26,8 km/h (4 Bft) W-SW 250 0 min 0,000 mm 5 W/m 0,4 C -1,8 C 41,8 km/h (6 Bft) 100,00 %
04.01.2012 16:00 7,7 C 60 % 1016,3 hPa 0,0 l/m 22,6 km/h (4 Bft) W 275 0 min 0,000 mm 5 W/m 0,4 C -0,6 C 37,0 km/h (5 Bft) 100,00 %
04.01.2012 16:01 7,7 C 60 % 1016,5 hPa 0,0 l/m 25,5 km/h (4 Bft) W 277 0 min 0,101 mm 5 W/m 0,4 C -1,4 C 35,4 km/h (5 Bft) 100,00 %
04.01.2012 16:02 7,7 C 60 % 1016,5 hPa 0,0 l/m 23,1 km/h (4 Bft) W 276 0 min 0,000 mm 5 W/m 0,4 C -0,7 C 33,8 km/h (5 Bft) 100,00 %
04.01.2012 16:03 7,7 C 60 % 1016,5 hPa 0,0 l/m 23,6 km/h (4 Bft) W 271 0 min 0,000 mm 5 W/m 0,4 C -0,9 C 38,6 km/h (5 Bft) 100,00 %
04.01.2012 16:04 7,7 C 60 % 1016,5 hPa 0,0 l/m 30,6 km/h (5 Bft) W-SW 256 0 min 0,000 mm 5 W/m 0,4 C -2,7 C 46,7 km/h (6 Bft) 95,83 %
04.01.2012 16:05 7,7 C 61 % 1016,5 hPa 0,0 l/m 16,9 km/h (3 Bft) NW 313 0 min 0,000 mm 0 W/m 0,7 C 1,5 C 32,2 km/h (5 Bft) 100,00 %
04.01.2012 16:06 7,7 C 61 % 1016,4 hPa 0,0 l/m 19,8 km/h (3 Bft) W 280 0 min 0,000 mm 0 W/m 0,7 C 0,4 C 32,2 km/h (5 Bft) 100,00 %
04.01.2012 16:07 7,7 C 61 % 1016,6 hPa 0,0 l/m 25,9 km/h (4 Bft) W-SW 258 0 min 0,000 mm 0 W/m 0,7 C -1,5 C 45,1 km/h (6 Bft) 100,00 %
04.01.2012 16:08 7,7 C 61 % 1016,5 hPa 0,0 l/m 36,9 km/h (5 Bft) W 274 0 min 0,000 mm 0 W/m 0,7 C -4,0 C 51,5 km/h (7 Bft) 100,00 %
04.01.2012 16:09 7,7 C 61 % 1016,6 hPa 0,0 l/m 25,9 km/h (4 Bft) W 271 0 min 0,000 mm 0 W/m 0,7 C -1,5 C 37,0 km/h (5 Bft) 100,00 %
04.01.2012 16:10 7,7 C 61 % 1016,7 hPa 0,0 l/m 19,2 km/h (3 Bft) W-NW 301 0 min 0,000 mm 0 W/m 0,7 C 0,6 C 27,4 km/h (4 Bft) 100,00 %
04.01.2012 16:11 7,7 C 61 % 1016,6 hPa 0,0 l/m 25,5 km/h (4 Bft) W 271 0 min 0,000 mm 0 W/m 0,7 C -1,4 C 48,3 km/h (6 Bft) 100,00 %
04.01.2012 16:12 7,7 C 61 % 1016,8 hPa 0,0 l/m 23,4 km/h (4 Bft) W 273 0 min 0,000 mm 0 W/m 0,7 C -0,8 C 40,2 km/h (6 Bft) 100,00 %
04.01.2012 16:13 7,7 C 62 % 1016,8 hPa 0,0 l/m 23,6 km/h (4 Bft) W 273 0 min 0,000 mm 0 W/m 0,9 C -0,9 C 38,6 km/h (5 Bft) 100,00 %
04.01.2012 16:14 7,6 C 62 % 1016,7 hPa 0,0 l/m 23,2 km/h (4 Bft) W 269 0 min 0,000 mm 0 W/m 0,8 C -0,9 C 33,8 km/h (5 Bft) 100,00 %
04.01.2012 16:15 7,6 C 62 % 1016,7 hPa 0,0 l/m 27,8 km/h (4 Bft) W 277 0 min 0,000 mm 0 W/m 0,8 C -2,2 C 35,4 km/h (5 Bft) 100,00 %
04.01.2012 16:16 7,6 C 62 % 1016,8 hPa 0,0 l/m 22,5 km/h (4 Bft) W 271 0 min 0,000 mm 0 W/m 0,8 C -0,7 C 32,2 km/h (5 Bft) 100,00 %
04.01.2012 16:17 7,6 C 62 % 1016,7 hPa 0,0 l/m 21,3 km/h (4 Bft) W-SW 248 0 min 0,000 mm 0 W/m 0,8 C -0,3 C 37,0 km/h (5 Bft) 100,00 %
04.01.2012 16:18 7,6 C 62 % 1016,7 hPa 0,0 l/m 34,1 km/h (5 Bft) W-SW 249 0 min 0,000 mm 0 W/m 0,8 C -3,6 C 54,7 km/h (7 Bft) 100,00 %
04.01.2012 16:19 7,6 C 61 % 1016,8 hPa 0,0 l/m 42,3 km/h (6 Bft) W 279 0 min 0,000 mm 0 W/m 0,6 C -5,0 C 57,9 km/h (7 Bft) 100,00 %
04.01.2012 16:20 7,6 C 61 % 1016,8 hPa 0,0 l/m 23,7 km/h (4 Bft) W-NW 292 0 min 0,000 mm 0 W/m 0,6 C -1,0 C 35,4 km/h (5 Bft) 100,00 %
04.01.2012 16:21 7,6 C 61 % 1016,8 hPa 0,0 l/m 18,2 km/h (3 Bft) W 264 0 min 0,000 mm 0 W/m 0,6 C 0,9 C 27,4 km/h (4 Bft) 100,00 %
04.01.2012 16:22 7,6 C 62 % 1016,9 hPa 0,0 l/m 20,6 km/h (4 Bft) W-NW 298 0 min 0,000 mm 0 W/m 0,8 C -0,0 C 32,2 km/h (5 Bft) 100,00 %
04.01.2012 16:24 7,6 C 61 % 1016,7 hPa 0,0 l/m 33,0 km/h (5 Bft) W-NW 287 0 min 0,000 mm 0 W/m 0,6 C -3,4 C 56,3 km/h (7 Bft) 100,00 %
04.01.2012 16:25 7,6 C 61 % 1016,8 hPa 0,0 l/m 27,4 km/h (4 Bft) SW 225 0 min 0,000 mm 0 W/m 0,6 C -2,1 C 38,6 km/h (5 Bft) 95,83 %
04.01.2012 16:26 7,6 C 61 % 1016,8 hPa 0,0 l/m 25,5 km/h (4 Bft) W 279 0 min 0,000 mm 0 W/m 0,6 C -1,6 C 45,1 km/h (6 Bft) 95,83 %
04.01.2012 16:27 7,6 C 61 % 1016,8 hPa 0,0 l/m 19,9 km/h (4 Bft) W 267 0 min 0,000 mm 0 W/m 0,6 C 0,2 C 45,1 km/h (6 Bft) 100,00 %
04.01.2012 16:28 7,6 C 61 % 1016,9 hPa 0,0 l/m 25,6 km/h (4 Bft) W 264 0 min 0,000 mm 0 W/m 0,6 C -1,6 C 41,8 km/h (6 Bft) 100,00 %
04.01.2012 16:29 7,6 C 62 % 1016,9 hPa 0,0 l/m 22,2 km/h (4 Bft) W 269 0 min 0,000 mm 0 W/m 0,8 C -0,6 C 32,2 km/h (5 Bft) 100,00 %
04.01.2012 16:30 7,6 C 62 % 1017,0 hPa 0,0 l/m 21,6 km/h (4 Bft) NW 308 0 min 0,000 mm 0 W/m 0,8 C -0,4 C 49,9 km/h (6 Bft) 100,00 %
04.01.2012 16:31 7,6 C 61 % 1016,9 hPa 0,0 l/m 28,1 km/h (4 Bft) W 277 0 min 0,000 mm 0 W/m 0,6 C -2,3 C 40,2 km/h (6 Bft) 100,00 %
04.01.2012 16:32 7,6 C 61 % 1016,9 hPa 0,0 l/m 29,9 km/h (5 Bft) W 265 0 min 0,000 mm 0 W/m 0,6 C -2,7 C 51,5 km/h (7 Bft) 100,00 %
04.01.2012 16:33 7,6 C 61 % 1017,0 hPa 0,0 l/m 29,4 km/h (5 Bft) W 264 0 min 0,000 mm 0 W/m 0,6 C -2,6 C 43,5 km/h (6 Bft) 100,00 %
04.01.2012 16:34 7,6 C 61 % 1017,0 hPa 0,0 l/m 29,9 km/h (5 Bft) W-SW 254 0 min 0,000 mm 0 W/m 0,6 C -2,7 C 38,6 km/h (5 Bft) 100,00 %
04.01.2012 16:35 7,6 C 61 % 1017,0 hPa 0,0 l/m 28,3 km/h (4 Bft) NW 322 0 min 0,000 mm 0 W/m 0,6 C -2,3 C 35,4 km/h (5 Bft) 100,00 %
04.01.2012 16:36 7,6 C 61 % 1017,0 hPa 0,0 l/m 26,9 km/h (4 Bft) W-SW 251 0 min 0,000 mm 0 W/m 0,6 C -1,9 C 37,0 km/h (5 Bft) 100,00 %
04.01.2012 16:37 7,6 C 61 % 1017,0 hPa 0,0 l/m 22,7 km/h (4 Bft) W 275 0 min 0,000 mm 0 W/m 0,6 C -0,7 C 35,4 km/h (5 Bft) 100,00 %
04.01.2012 16:38 7,6 C 61 % 1017,0 hPa 0,0 l/m 24,3 km/h (4 Bft) W-SW 254 0 min 0,000 mm 0 W/m 0,6 C -1,2 C 35,4 km/h (5 Bft) 100,00 %
04.01.2012 16:39 7,5 C 61 % 1017,0 hPa 0,0 l/m 21,6 km/h (4 Bft) NW 323 0 min 0,000 mm 0 W/m 0,5 C -0,5 C 37,0 km/h (5 Bft) 100,00 %
04.01.2012 16:40 7,5 C 61 % 1017,2 hPa 0,0 l/m 24,3 km/h (4 Bft) W-SW 252 0 min 0,000 mm 0 W/m 0,5 C -1,4 C 43,5 km/h (6 Bft) 100,00 %
04.01.2012 16:41 7,5 C 61 % 1017,2 hPa 0,0 l/m 22,7 km/h (4 Bft) W 270 0 min 0,000 mm 0 W/m 0,5 C -0,9 C 43,5 km/h (6 Bft) 100,00 %
04.01.2012 16:42 7,5 C 61 % 1017,2 hPa 0,0 l/m 30,4 km/h (5 Bft) W-SW 257 0 min 0,000 mm 0 W/m 0,5 C -3,0 C 45,1 km/h (6 Bft) 100,00 %
04.01.2012 16:43 7,5 C 61 % 1017,2 hPa 0,0 l/m 26,2 km/h (4 Bft) W-SW 239 0 min 0,000 mm 0 W/m 0,5 C -1,9 C 40,2 km/h (6 Bft) 100,00 %
04.01.2012 16:44 7,5 C 60 % 1017,3 hPa 0,0 l/m 33,8 km/h (5 Bft) W 262 0 min 0,000 mm 0 W/m 0,2 C -3,7 C 49,9 km/h (6 Bft) 100,00 %
04.01.2012 16:45 7,6 C 60 % 1017,4 hPa 0,0 l/m 25,5 km/h (4 Bft) W 271 0 min 0,000 mm 0 W/m 0,3 C -1,6 C 40,2 km/h (6 Bft) 100,00 %
04.01.2012 16:46 7,6 C 60 % 1017,4 hPa 0,0 l/m 21,3 km/h (4 Bft) W 268 0 min 0,000 mm 0 W/m 0,3 C -0,3 C 38,6 km/h (5 Bft) 100,00 %
04.01.2012 16:47 7,6 C 60 % 1017,4 hPa 0,0 l/m 27,4 km/h (4 Bft) W-NW 287 0 min 0,000 mm 0 W/m 0,3 C -2,1 C 35,4 km/h (5 Bft) 100,00 %
04.01.2012 16:48 7,6 C 60 % 1017,3 hPa 0,0 l/m 24,1 km/h (4 Bft) W-SW 244 0 min 0,000 mm 0 W/m 0,3 C -1,2 C 38,6 km/h (5 Bft) 100,00 %
04.01.2012 16:49 7,6 C 60 % 1017,4 hPa 0,0 l/m 27,4 km/h (4 Bft) W 261 0 min 0,000 mm 0 W/m 0,3 C -2,1 C 41,8 km/h (6 Bft) 100,00 %
04.01.2012 16:50 7,6 C 60 % 1017,4 hPa 0,0 l/m 24,9 km/h (4 Bft) W-SW 250 0 min 0,000 mm 0 W/m 0,3 C -1,4 C 45,1 km/h (6 Bft) 100,00 %
04.01.2012 16:51 7,6 C 60 % 1017,4 hPa 0,0 l/m 27,7 km/h (4 Bft) W-NW 302 0 min 0,000 mm 0 W/m 0,3 C -2,2 C 41,8 km/h (6 Bft) 100,00 %
04.01.2012 16:52 7,6 C 60 % 1017,4 hPa 0,0 l/m 25,6 km/h (4 Bft) W 268 0 min 0,000 mm 0 W/m 0,3 C -1,6 C 41,8 km/h (6 Bft) 100,00 %
04.01.2012 16:53 7,6 C 60 % 1017,5 hPa 0,0 l/m 31,5 km/h (5 Bft) W 267 0 min 0,000 mm 0 W/m 0,3 C -3,1 C 45,1 km/h (6 Bft) 100,00 %
04.01.2012 16:54 7,6 C 60 % 1017,5 hPa 0,0 l/m 20,4 km/h (4 Bft) W-SW 248 0 min 0,000 mm 0 W/m 0,3 C 0,0 C 33,8 km/h (5 Bft) 100,00 %
04.01.2012 16:55 7,6 C 61 % 1017,5 hPa 0,0 l/m 24,5 km/h (4 Bft) W 261 0 min 0,000 mm 0 W/m 0,6 C -1,3 C 35,4 km/h (5 Bft) 100,00 %
04.01.2012 16:56 7,6 C 61 % 1017,6 hPa 0,0 l/m 24,7 km/h (4 Bft) W 280 0 min 0,000 mm 0 W/m 0,6 C -1,3 C 37,0 km/h (5 Bft) 100,00 %
04.01.2012 16:57 7,6 C 61 % 1017,6 hPa 0,0 l/m 25,0 km/h (4 Bft) W 262 0 min 0,000 mm 0 W/m 0,6 C -1,4 C 33,8 km/h (5 Bft) 100,00 %
04.01.2012 16:59 7,5 C 61 % 1017,6 hPa 0,0 l/m 23,4 km/h (4 Bft) W-SW 246 0 min 0,000 mm 0 W/m 0,5 C -1,1 C 35,4 km/h (5 Bft) 100,00 %
04.01.2012 17:00 7,5 C 61 % 1017,7 hPa 0,0 l/m 19,2 km/h (3 Bft) W 259 0 min 0,000 mm 0 W/m 0,5 C 0,4 C 32,2 km/h (5 Bft) 100,00 %
04.01.2012 17:01 7,5 C 61 % 1017,7 hPa 0,0 l/m 28,5 km/h (4 Bft) W-NW 297 0 min 0,102 mm 0 W/m 0,5 C -2,5 C 40,2 km/h (6 Bft) 100,00 %
04.01.2012 17:02 7,5 C 61 % 1017,7 hPa 0,0 l/m 22,5 km/h (4 Bft) W 263 0 min 0,000 mm 0 W/m 0,5 C -0,8 C 37,0 km/h (5 Bft) 100,00 %
04.01.2012 17:03 7,5 C 61 % 1017,7 hPa 0,0 l/m 33,0 km/h (5 Bft) W 268 0 min 0,000 mm 0 W/m 0,5 C -3,5 C 45,1 km/h (6 Bft) 100,00 %
04.01.2012 17:04 7,4 C 61 % 1017,7 hPa 0,0 l/m 25,7 km/h (4 Bft) W 275 0 min 0,000 mm 0 W/m 0,4 C -1,9 C 32,2 km/h (5 Bft) 100,00 %
04.01.2012 17:05 7,5 C 61 % 1017,7 hPa 0,0 l/m 28,8 km/h (4 Bft) W-SW 256 0 min 0,000 mm 0 W/m 0,5 C -2,6 C 37,0 km/h (5 Bft) 100,00 %
04.01.2012 17:06 7,5 C 61 % 1017,8 hPa 0,0 l/m 27,4 km/h (4 Bft) W 261 0 min 0,000 mm 0 W/m 0,5 C -2,2 C 41,8 km/h (6 Bft) 100,00 %
04.01.2012 17:07 7,4 C 62 % 1017,7 hPa 0,0 l/m 19,1 km/h (3 Bft) W 261 0 min 0,000 mm 0 W/m 0,6 C 0,3 C 25,7 km/h (4 Bft) 100,00 %
04.01.2012 17:08 7,4 C 62 % 1017,7 hPa 0,0 l/m 25,6 km/h (4 Bft) W 261 0 min 0,000 mm 0 W/m 0,6 C -1,9 C 43,5 km/h (6 Bft) 100,00 %
04.01.2012 17:09 7,4 C 62 % 1017,7 hPa 0,0 l/m 30,7 km/h (5 Bft) W 260 0 min 0,000 mm 0 W/m 0,6 C -3,2 C 38,6 km/h (5 Bft) 100,00 %
04.01.2012 17:10 7,4 C 62 % 1017,7 hPa 0,0 l/m 26,4 km/h (4 Bft) W-SW 256 0 min 0,000 mm 0 W/m 0,6 C -2,1 C 35,4 km/h (5 Bft) 100,00 %
04.01.2012 17:11 7,4 C 62 % 1017,8 hPa 0,0 l/m 21,1 km/h (4 Bft) W 262 0 min 0,000 mm 0 W/m 0,6 C -0,5 C 33,8 km/h (5 Bft) 100,00 %
04.01.2012 17:12 7,4 C 62 % 1017,9 hPa 0,0 l/m 22,3 km/h (4 Bft) W 275 0 min 0,000 mm 0 W/m 0,6 C -0,9 C 35,4 km/h (5 Bft) 100,00 %
04.01.2012 17:13 7,4 C 62 % 1017,9 hPa 0,0 l/m 25,3 km/h (4 Bft) W 265 0 min 0,000 mm 0 W/m 0,6 C -1,8 C 37,0 km/h (5 Bft) 100,00 %
04.01.2012 17:14 7,4 C 61 % 1017,9 hPa 0,0 l/m 23,2 km/h (4 Bft) W-NW 283 0 min 0,000 mm 0 W/m 0,4 C -1,1 C 37,0 km/h (5 Bft) 100,00 %
04.01.2012 17:15 7,4 C 61 % 1017,9 hPa 0,0 l/m 24,8 km/h (4 Bft) W 267 0 min 0,000 mm 0 W/m 0,4 C -1,6 C 37,0 km/h (5 Bft) 100,00 %
04.01.2012 17:16 7,4 C 61 % 1017,9 hPa 0,0 l/m 22,7 km/h (4 Bft) W-SW 250 0 min 0,000 mm 0 W/m 0,4 C -1,0 C 32,2 km/h (5 Bft) 100,00 %
04.01.2012 17:17 7,4 C 62 % 1017,9 hPa 0,0 l/m 24,4 km/h (4 Bft) W-SW 253 0 min 0,000 mm 0 W/m 0,6 C -1,5 C 41,8 km/h (6 Bft) 100,00 %
04.01.2012 17:18 7,4 C 61 % 1017,9 hPa 0,0 l/m 21,6 km/h (4 Bft) W 260 0 min 0,000 mm 0 W/m 0,4 C -0,6 C 33,8 km/h (5 Bft) 100,00 %
04.01.2012 17:19 7,4 C 62 % 1017,9 hPa 0,0 l/m 24,1 km/h (4 Bft) W-SW 240 0 min 0,000 mm 0 W/m 0,6 C -1,4 C 30,6 km/h (5 Bft) 100,00 %
04.01.2012 17:20 7,4 C 62 % 1018,0 hPa 0,0 l/m 22,6 km/h (4 Bft) W-SW 250 0 min 0,000 mm 0 W/m 0,6 C -1,0 C 40,2 km/h (6 Bft) 100,00 %
04.01.2012 17:21 7,4 C 62 % 1017,9 hPa 0,0 l/m 23,3 km/h (4 Bft) W 264 0 min 0,000 mm 0 W/m 0,6 C -1,2 C 37,0 km/h (5 Bft) 100,00 %
04.01.2012 17:22 7,4 C 62 % 1017,9 hPa 0,0 l/m 22,0 km/h (4 Bft) W-SW 244 0 min 0,000 mm 0 W/m 0,6 C -0,8 C 33,8 km/h (5 Bft) 100,00 %
04.01.2012 17:23 7,4 C 62 % 1017,8 hPa 0,0 l/m 24,1 km/h (4 Bft) W-NW 300 0 min 0,000 mm 0 W/m 0,6 C -1,4 C 33,8 km/h (5 Bft) 100,00 %
04.01.2012 17:24 7,3 C 62 % 1017,8 hPa 0,0 l/m 19,7 km/h (3 Bft) W 281 0 min 0,000 mm 0 W/m 0,5 C -0,1 C 30,6 km/h (5 Bft) 100,00 %
04.01.2012 17:25 7,3 C 62 % 1017,8 hPa 0,0 l/m 16,0 km/h (3 Bft) W 259 0 min 0,000 mm 0 W/m 0,5 C 1,4 C 25,7 km/h (4 Bft) 100,00 %
04.01.2012 17:26 7,3 C 62 % 1017,8 hPa 0,0 l/m 23,1 km/h (4 Bft) W 276 0 min 0,000 mm 0 W/m 0,5 C -1,3 C 43,5 km/h (6 Bft) 90,91 %
04.01.2012 17:27 7,3 C 62 % 1017,8 hPa 0,0 l/m 17,7 km/h (3 Bft) W 273 0 min 0,000 mm 0 W/m 0,5 C 0,7 C 38,6 km/h (5 Bft) 96,15 %
04.01.2012 17:28 7,3 C 62 % 1017,9 hPa 0,0 l/m 19,8 km/h (3 Bft) W 268 0 min 0,000 mm 0 W/m 0,5 C -0,1 C 27,4 km/h (4 Bft) 95,83 %
04.01.2012 17:29 7,3 C 62 % 1017,9 hPa 0,0 l/m 18,3 km/h (3 Bft) W-NW 290 0 min 0,000 mm 0 W/m 0,5 C 0,4 C 27,4 km/h (4 Bft) 100,00 %
04.01.2012 17:30 7,3 C 63 % 1017,9 hPa 0,0 l/m 13,0 km/h (3 Bft) W 273 0 min 0,000 mm 0 W/m 0,7 C 2,9 C 25,7 km/h (4 Bft) 95,83 %
04.01.2012 17:31 7,3 C 63 % 1017,9 hPa 0,0 l/m 19,8 km/h (3 Bft) W 263 0 min 0,000 mm 0 W/m 0,7 C -0,1 C 30,6 km/h (5 Bft) 100,00 %
04.01.2012 17:32 7,3 C 63 % 1017,9 hPa 0,0 l/m 28,3 km/h (4 Bft) W-SW 255 0 min 0,000 mm 0 W/m 0,7 C -2,7 C 35,4 km/h (5 Bft) 100,00 %
04.01.2012 17:33 7,3 C 63 % 1017,9 hPa 0,0 l/m 21,6 km/h (4 Bft) W 265 0 min 0,000 mm 0 W/m 0,7 C -0,8 C 35,4 km/h (5 Bft) 100,00 %
04.01.2012 17:34 7,3 C 63 % 1017,9 hPa 0,0 l/m 22,7 km/h (4 Bft) W-SW 254 0 min 0,000 mm 0 W/m 0,7 C -1,1 C 33,8 km/h (5 Bft) 100,00 %
04.01.2012 17:35 7,3 C 63 % 1018,0 hPa 0,0 l/m 23,0 km/h (4 Bft) W 275 0 min 0,000 mm 0 W/m 0,7 C -1,2 C 33,8 km/h (5 Bft) 100,00 %
04.01.2012 17:36 7,3 C 63 % 1018,0 hPa 0,0 l/m 18,7 km/h (3 Bft) W 279 0 min 0,000 mm 0 W/m 0,7 C 0,3 C 24,1 km/h (4 Bft) 100,00 %
04.01.2012 17:37 7,3 C 63 % 1018,0 hPa 0,0 l/m 17,0 km/h (3 Bft) W-SW 257 0 min 0,000 mm 0 W/m 0,7 C 1,0 C 30,6 km/h (5 Bft) 100,00 %
04.01.2012 17:38 7,2 C 63 % 1018,0 hPa 0,0 l/m 19,7 km/h (3 Bft) W-SW 254 0 min 0,000 mm 0 W/m 0,6 C -0,2 C 27,4 km/h (4 Bft) 100,00 %
04.01.2012 17:39 7,2 C 63 % 1018,0 hPa 0,0 l/m 16,4 km/h (3 Bft) W-SW 257 0 min 0,000 mm 0 W/m 0,6 C 1,1 C 25,7 km/h (4 Bft) 100,00 %
04.01.2012 17:40 7,2 C 63 % 1018,0 hPa 0,0 l/m 17,1 km/h (3 Bft) W-SW 252 0 min 0,000 mm 0 W/m 0,6 C 0,8 C 30,6 km/h (5 Bft) 100,00 %
04.01.2012 17:41 7,2 C 63 % 1018,0 hPa 0,0 l/m 28,2 km/h (4 Bft) W 272 0 min 0,000 mm 0 W/m 0,6 C -2,8 C 35,4 km/h (5 Bft) 100,00 %
04.01.2012 17:42 7,2 C 63 % 1018,0 hPa 0,0 l/m 21,5 km/h (4 Bft) NW 309 0 min 0,000 mm 0 W/m 0,6 C -0,9 C 32,2 km/h (5 Bft) 100,00 %
04.01.2012 17:43 7,2 C 63 % 1018,0 hPa 0,0 l/m 23,4 km/h (4 Bft) W 269 0 min 0,000 mm 0 W/m 0,6 C -1,5 C 27,4 km/h (4 Bft) 100,00 %
04.01.2012 17:44 7,2 C 63 % 1018,0 hPa 0,0 l/m 20,3 km/h (4 Bft) W 262 0 min 0,000 mm 0 W/m 0,6 C -0,4 C 32,2 km/h (5 Bft) 100,00 %
04.01.2012 17:45 7,2 C 64 % 1017,9 hPa 0,0 l/m 13,6 km/h (3 Bft) W-NW 284 0 min 0,000 mm 0 W/m 0,9 C 2,4 C 24,1 km/h (4 Bft) 100,00 %
04.01.2012 17:46 7,2 C 64 % 1017,9 hPa 0,0 l/m 17,4 km/h (3 Bft) W-SW 248 0 min 0,000 mm 0 W/m 0,9 C 0,7 C 27,4 km/h (4 Bft) 100,00 %
04.01.2012 17:47 7,2 C 64 % 1018,0 hPa 0,0 l/m 15,6 km/h (3 Bft) W-SW 253 0 min 0,000 mm 0 W/m 0,9 C 1,5 C 27,4 km/h (4 Bft) 100,00 %
04.01.2012 17:48 7,2 C 64 % 1017,9 hPa 0,0 l/m 20,4 km/h (4 Bft) W-SW 250 0 min 0,000 mm 0 W/m 0,9 C -0,5 C 27,4 km/h (4 Bft) 100,00 %
04.01.2012 17:49 7,2 C 64 % 1018,0 hPa 0,0 l/m 24,5 km/h (4 Bft) W 260 0 min 0,000 mm 0 W/m 0,9 C -1,8 C 33,8 km/h (5 Bft) 100,00 %
04.01.2012 17:50 7,1 C 64 % 1017,9 hPa 0,0 l/m 22,5 km/h (4 Bft) W-NW 285 0 min 0,000 mm 0 W/m 0,8 C -1,3 C 32,2 km/h (5 Bft) 100,00 %
04.01.2012 17:51 7,2 C 64 % 1018,0 hPa 0,0 l/m 17,3 km/h (3 Bft) W-NW 286 0 min 0,000 mm 0 W/m 0,9 C 0,7 C 27,4 km/h (4 Bft) 100,00 %
04.01.2012 17:52 7,2 C 64 % 1018,0 hPa 0,0 l/m 29,9 km/h (5 Bft) W-SW 250 0 min 0,000 mm 0 W/m 0,9 C -3,3 C 43,5 km/h (6 Bft) 100,00 %
04.01.2012 17:53 7,2 C 64 % 1018,0 hPa 0,0 l/m 19,1 km/h (3 Bft) W-SW 256 0 min 0,000 mm 0 W/m 0,9 C 0,0 C 29,0 km/h (5 Bft) 100,00 %
04.01.2012 17:54 7,2 C 64 % 1018,0 hPa 0,0 l/m 26,7 km/h (4 Bft) W 261 0 min 0,000 mm 0 W/m 0,9 C -2,4 C 35,4 km/h (5 Bft) 100,00 %
04.01.2012 17:55 7,2 C 64 % 1018,0 hPa 0,0 l/m 18,6 km/h (3 Bft) W 263 0 min 0,000 mm 0 W/m 0,9 C 0,2 C 25,7 km/h (4 Bft) 95,83 %
04.01.2012 17:56 7,2 C 64 % 1018,0 hPa 0,0 l/m 22,7 km/h (4 Bft) W-SW 244 0 min 0,000 mm 0 W/m 0,9 C -1,3 C 37,0 km/h (5 Bft) 100,00 %
04.01.2012 17:57 7,2 C 64 % 1018,0 hPa 0,0 l/m 27,6 km/h (4 Bft) W 263 0 min 0,000 mm 0 W/m 0,9 C -2,7 C 35,4 km/h (5 Bft) 100,00 %
04.01.2012 17:58 7,1 C 64 % 1018,0 hPa 0,0 l/m 29,8 km/h (5 Bft) W 259 0 min 0,000 mm 0 W/m 0,8 C -3,4 C 43,5 km/h (6 Bft) 100,00 %
04.01.2012 17:59 7,2 C 64 % 1018,0 hPa 0,0 l/m 22,7 km/h (4 Bft) W-SW 242 0 min 0,000 mm 0 W/m 0,9 C -1,3 C 32,2 km/h (5 Bft) 100,00 %
04.01.2012 18:00 7,2 C 64 % 1018,0 hPa 0,0 l/m 26,4 km/h (4 Bft) W-SW 257 0 min 0,000 mm 0 W/m 0,9 C -2,4 C 40,2 km/h (6 Bft) 100,00 %
04.01.2012 18:01 7,2 C 64 % 1017,9 hPa 0,0 l/m 26,7 km/h (4 Bft) W-SW 249 0 min 0,076 mm 0 W/m 0,9 C -2,4 C 35,4 km/h (5 Bft) 96,00 %
04.01.2012 18:02 7,2 C 64 % 1018,0 hPa 0,0 l/m 30,0 km/h (5 Bft) W 265 0 min 0,000 mm 0 W/m 0,9 C -3,3 C 40,2 km/h (6 Bft) 100,00 %
04.01.2012 18:03 7,2 C 64 % 1018,0 hPa 0,0 l/m 26,8 km/h (4 Bft) W 264 0 min 0,000 mm 0 W/m 0,9 C -2,5 C 37,0 km/h (5 Bft) 100,00 %
04.01.2012 18:04 7,2 C 64 % 1017,9 hPa 0,0 l/m 33,7 km/h (5 Bft) W-SW 244 0 min 0,000 mm 0 W/m 0,9 C -4,1 C 48,3 km/h (6 Bft) 100,00 %
04.01.2012 18:05 7,2 C 64 % 1018,0 hPa 0,0 l/m 34,4 km/h (5 Bft) W 261 0 min 0,000 mm 0 W/m 0,9 C -4,2 C 41,8 km/h (6 Bft) 100,00 %
04.01.2012 18:06 7,2 C 64 % 1017,9 hPa 0,0 l/m 27,6 km/h (4 Bft) W-SW 256 0 min 0,000 mm 0 W/m 0,9 C -2,7 C 37,0 km/h (5 Bft) 100,00 %
04.01.2012 18:07 7,2 C 64 % 1017,9 hPa 0,0 l/m 23,7 km/h (4 Bft) W-NW 288 0 min 0,000 mm 0 W/m 0,9 C -1,6 C 30,6 km/h (5 Bft) 100,00 %
04.01.2012 18:08 7,2 C 64 % 1017,9 hPa 0,0 l/m 20,6 km/h (4 Bft) W-NW 303 0 min 0,000 mm 0 W/m 0,9 C -0,5 C 30,6 km/h (5 Bft) 100,00 %
04.01.2012 18:09 7,2 C 64 % 1018,0 hPa 0,0 l/m 19,9 km/h (4 Bft) W-SW 243 0 min 0,000 mm 0 W/m 0,9 C -0,3 C 27,4 km/h (4 Bft) 100,00 %
04.01.2012 18:10 7,2 C 64 % 1018,0 hPa 0,0 l/m 29,9 km/h (5 Bft) W-SW 258 0 min 0,000 mm 0 W/m 0,9 C -3,3 C 41,8 km/h (6 Bft) 100,00 %
04.01.2012 18:11 7,2 C 64 % 1017,9 hPa 0,0 l/m 28,7 km/h (4 Bft) W-SW 253 0 min 0,000 mm 0 W/m 0,9 C -3,0 C 37,0 km/h (5 Bft) 100,00 %
04.01.2012 18:12 7,2 C 64 % 1017,9 hPa 0,0 l/m 22,3 km/h (4 Bft) W-SW 240 0 min 0,000 mm 0 W/m 0,9 C -1,1 C 33,8 km/h (5 Bft) 100,00 %
04.01.2012 18:13 7,2 C 64 % 1017,9 hPa 0,0 l/m 29,8 km/h (5 Bft) W 274 0 min 0,000 mm 0 W/m 0,9 C -3,2 C 40,2 km/h (6 Bft) 100,00 %
04.01.2012 18:14 7,3 C 64 % 1017,9 hPa 0,0 l/m 27,3 km/h (4 Bft) NW 309 0 min 0,000 mm 0 W/m 1,0 C -2,5 C 40,2 km/h (6 Bft) 100,00 %
04.01.2012 18:15 7,2 C 64 % 1017,9 hPa 0,0 l/m 33,0 km/h (5 Bft) W 262 0 min 0,000 mm 0 W/m 0,9 C -4,0 C 45,1 km/h (6 Bft) 95,83 %
04.01.2012 18:16 7,3 C 64 % 1017,9 hPa 0,0 l/m 26,0 km/h (4 Bft) W 274 0 min 0,000 mm 0 W/m 1,0 C -2,1 C 33,8 km/h (5 Bft) 100,00 %
04.01.2012 18:17 7,3 C 64 % 1017,9 hPa 0,0 l/m 27,2 km/h (4 Bft) W 265 0 min 0,000 mm 0 W/m 1,0 C -2,4 C 37,0 km/h (5 Bft) 100,00 %
04.01.2012 18:18 7,3 C 64 % 1018,0 hPa 0,0 l/m 21,0 km/h (4 Bft) W-SW 249 0 min 0,000 mm 0 W/m 1,0 C -0,6 C 32,2 km/h (5 Bft) 100,00 %
04.01.2012 18:19 7,3 C 64 % 1018,0 hPa 0,0 l/m 25,2 km/h (4 Bft) W-SW 256 0 min 0,000 mm 0 W/m 1,0 C -1,9 C 41,8 km/h (6 Bft) 100,00 %
04.01.2012 18:20 7,2 C 64 % 1018,0 hPa 0,0 l/m 28,1 km/h (4 Bft) W 261 0 min 0,000 mm 0 W/m 0,9 C -2,8 C 38,6 km/h (5 Bft) 100,00 %
04.01.2012 18:21 7,3 C 64 % 1018,0 hPa 0,0 l/m 28,6 km/h (4 Bft) W 267 0 min 0,000 mm 0 W/m 1,0 C -2,8 C 45,1 km/h (6 Bft) 100,00 %
04.01.2012 18:22 7,2 C 64 % 1018,0 hPa 0,0 l/m 25,3 km/h (4 Bft) SW 225 0 min 0,000 mm 0 W/m 0,9 C -2,0 C 35,4 km/h (5 Bft) 100,00 %
04.01.2012 18:23 7,2 C 64 % 1018,0 hPa 0,0 l/m 28,3 km/h (4 Bft) W 263 0 min 0,000 mm 0 W/m 0,9 C -2,9 C 33,8 km/h (5 Bft) 100,00 %
04.01.2012 18:24 7,2 C 64 % 1018,0 hPa 0,0 l/m 26,8 km/h (4 Bft) W 259 0 min 0,000 mm 0 W/m 0,9 C -2,5 C 35,4 km/h (5 Bft) 100,00 %
04.01.2012 18:25 7,3 C 64 % 1018,0 hPa 0,0 l/m 23,6 km/h (4 Bft) W 267 0 min 0,000 mm 0 W/m 1,0 C -1,4 C 40,2 km/h (6 Bft) 100,00 %
04.01.2012 18:26 7,2 C 64 % 1018,0 hPa 0,0 l/m 22,4 km/h (4 Bft) W 267 0 min 0,000 mm 0 W/m 0,9 C -1,2 C 33,8 km/h (5 Bft) 100,00 %
04.01.2012 18:27 7,3 C 64 % 1018,0 hPa 0,0 l/m 27,9 km/h (4 Bft) W-SW 249 0 min 0,000 mm 0 W/m 1,0 C -2,6 C 37,0 km/h (5 Bft) 100,00 %
04.01.2012 18:28 7,2 C 64 % 1018,0 hPa 0,0 l/m 26,7 km/h (4 Bft) W 265 0 min 0,000 mm 0 W/m 0,9 C -2,4 C 37,0 km/h (5 Bft) 100,00 %
04.01.2012 18:29 7,2 C 64 % 1018,1 hPa 0,0 l/m 14,6 km/h (3 Bft) W 265 0 min 0,000 mm 0 W/m 0,9 C 1,9 C 27,4 km/h (4 Bft) 100,00 %
04.01.2012 18:30 7,2 C 64 % 1018,1 hPa 0,0 l/m 20,0 km/h (4 Bft) W 263 0 min 0,000 mm 0 W/m 0,9 C -0,3 C 30,6 km/h (5 Bft) 100,00 %
04.01.2012 18:31 7,2 C 64 % 1018,0 hPa 0,0 l/m 25,7 km/h (4 Bft) SW 236 0 min 0,000 mm 0 W/m 0,9 C -2,2 C 33,8 km/h (5 Bft) 100,00 %
04.01.2012 18:32 7,2 C 65 % 1018,0 hPa 0,0 l/m 27,6 km/h (4 Bft) W-SW 254 0 min 0,000 mm 0 W/m 1,1 C -2,7 C 33,8 km/h (5 Bft) 100,00 %
04.01.2012 18:33 7,2 C 65 % 1018,1 hPa 0,0 l/m 20,9 km/h (4 Bft) W 262 0 min 0,000 mm 0 W/m 1,1 C -0,7 C 29,0 km/h (5 Bft) 100,00 %
04.01.2012 18:34 7,2 C 65 % 1018,0 hPa 0,0 l/m 19,9 km/h (4 Bft) W-SW 257 0 min 0,000 mm 0 W/m 1,1 C -0,3 C 30,6 km/h (5 Bft) 100,00 %
04.01.2012 18:35 7,2 C 65 % 1018,0 hPa 0,0 l/m 21,6 km/h (4 Bft) W-SW 249 0 min 0,000 mm 0 W/m 1,1 C -0,9 C 27,4 km/h (4 Bft) 100,00 %
04.01.2012 18:36 7,1 C 65 % 1018,0 hPa 0,0 l/m 19,2 km/h (3 Bft) W-SW 254 0 min 0,000 mm 0 W/m 1,0 C -0,2 C 30,6 km/h (5 Bft) 100,00 %
04.01.2012 18:37 7,1 C 65 % 1018,0 hPa 0,0 l/m 14,9 km/h (3 Bft) W 261 0 min 0,000 mm 0 W/m 1,0 C 1,7 C 29,0 km/h (5 Bft) 100,00 %
04.01.2012 18:38 7,1 C 65 % 1018,0 hPa 0,0 l/m 26,1 km/h (4 Bft) W 259 0 min 0,000 mm 0 W/m 1,0 C -2,4 C 33,8 km/h (5 Bft) 95,83 %
04.01.2012 18:39 7,1 C 65 % 1018,1 hPa 0,0 l/m 19,9 km/h (4 Bft) W 268 0 min 0,000 mm 0 W/m 1,0 C -0,4 C 27,4 km/h (4 Bft) 100,00 %
04.01.2012 18:40 7,1 C 65 % 1018,1 hPa 0,0 l/m 20,3 km/h (4 Bft) W 270 0 min 0,000 mm 0 W/m 1,0 C -0,6 C 35,4 km/h (5 Bft) 100,00 %
04.01.2012 18:41 7,1 C 65 % 1018,0 hPa 0,0 l/m 24,3 km/h (4 Bft) W 268 0 min 0,000 mm 0 W/m 1,0 C -1,9 C 33,8 km/h (5 Bft) 100,00 %
04.01.2012 18:42 7,1 C 66 % 1018,1 hPa 0,0 l/m 17,2 km/h (3 Bft) W 267 0 min 0,000 mm 0 W/m 1,2 C 0,6 C 27,4 km/h (4 Bft) 100,00 %
04.01.2012 18:43 7,1 C 66 % 1018,1 hPa 0,0 l/m 23,4 km/h (4 Bft) W-SW 257 0 min 0,000 mm 0 W/m 1,2 C -1,6 C 32,2 km/h (5 Bft) 100,00 %
04.01.2012 18:44 7,1 C 66 % 1018,2 hPa 0,0 l/m 16,2 km/h (3 Bft) W 275 0 min 0,000 mm 0 W/m 1,2 C 1,1 C 22,5 km/h (4 Bft) 100,00 %
04.01.2012 18:45 7,1 C 66 % 1018,3 hPa 0,0 l/m 13,4 km/h (3 Bft) W-SW 252 0 min 0,000 mm 0 W/m 1,2 C 2,4 C 17,7 km/h (3 Bft) 100,00 %
04.01.2012 18:46 7,0 C 66 % 1018,3 hPa 0,0 l/m 17,5 km/h (3 Bft) W 272 0 min 0,000 mm 0 W/m 1,1 C 0,4 C 30,6 km/h (5 Bft) 100,00 %
04.01.2012 18:47 7,0 C 66 % 1018,4 hPa 0,0 l/m 25,9 km/h (4 Bft) NW 311 0 min 0,000 mm 0 W/m 1,1 C -2,5 C 33,8 km/h (5 Bft) 100,00 %
04.01.2012 18:48 7,0 C 65 % 1018,3 hPa 0,0 l/m 18,6 km/h (3 Bft) W-SW 244 0 min 0,000 mm 0 W/m 0,9 C -0,1 C 30,6 km/h (5 Bft) 100,00 %
04.01.2012 18:49 6,9 C 66 % 1018,4 hPa 0,0 l/m 14,9 km/h (3 Bft) W-SW 253 0 min 0,000 mm 0 W/m 1,0 C 1,4 C 22,5 km/h (4 Bft) 100,00 %
04.01.2012 18:50 7,0 C 65 % 1018,4 hPa 0,0 l/m 18,1 km/h (3 Bft) W-SW 237 0 min 0,000 mm 0 W/m 0,9 C 0,1 C 20,9 km/h (4 Bft) 100,00 %
04.01.2012 18:51 6,9 C 65 % 1018,4 hPa 0,0 l/m 14,6 km/h (3 Bft) W 261 0 min 0,000 mm 0 W/m 0,8 C 1,6 C 20,9 km/h (4 Bft) 100,00 %
04.01.2012 18:52 6,9 C 65 % 1018,4 hPa 0,0 l/m 15,1 km/h (3 Bft) W 280 0 min 0,000 mm 0 W/m 0,8 C 1,3 C 20,9 km/h (4 Bft) 100,00 %
04.01.2012 18:53 6,9 C 65 % 1018,5 hPa 0,0 l/m 19,0 km/h (3 Bft) W 262 0 min 0,000 mm 0 W/m 0,8 C -0,3 C 30,6 km/h (5 Bft) 100,00 %
04.01.2012 18:54 6,9 C 65 % 1018,5 hPa 0,0 l/m 17,7 km/h (3 Bft) W 269 0 min 0,000 mm 0 W/m 0,8 C 0,2 C 25,7 km/h (4 Bft) 100,00 %
04.01.2012 18:55 6,9 C 65 % 1018,5 hPa 0,0 l/m 15,3 km/h (3 Bft) W 260 0 min 0,000 mm 0 W/m 0,8 C 1,2 C 20,9 km/h (4 Bft) 100,00 %
04.01.2012 18:56 6,9 C 65 % 1018,6 hPa 0,0 l/m 15,9 km/h (3 Bft) W 264 0 min 0,000 mm 0 W/m 0,8 C 1,0 C 24,1 km/h (4 Bft) 100,00 %
04.01.2012 18:57 6,9 C 65 % 1018,6 hPa 0,0 l/m 13,6 km/h (3 Bft) W 261 0 min 0,000 mm 0 W/m 0,8 C 2,1 C 20,9 km/h (4 Bft) 100,00 %
04.01.2012 18:58 6,9 C 65 % 1018,7 hPa 0,0 l/m 20,0 km/h (4 Bft) W 270 0 min 0,000 mm 0 W/m 0,8 C -0,7 C 24,1 km/h (4 Bft) 100,00 %
04.01.2012 18:59 6,9 C 65 % 1018,7 hPa 0,0 l/m 13,2 km/h (3 Bft) W 267 0 min 0,000 mm 0 W/m 0,8 C 2,3 C 22,5 km/h (4 Bft) 100,00 %
04.01.2012 19:00 6,9 C 65 % 1018,7 hPa 0,0 l/m 18,5 km/h (3 Bft) W 261 0 min 0,000 mm 0 W/m 0,8 C -0,1 C 29,0 km/h (5 Bft) 95,83 %
04.01.2012 19:01 6,9 C 65 % 1018,7 hPa 0,0 l/m 18,5 km/h (3 Bft) W-SW 249 0 min 0,076 mm 0 W/m 0,8 C -0,1 C 25,7 km/h (4 Bft) 96,00 %
04.01.2012 19:02 6,8 C 64 % 1018,7 hPa 0,0 l/m 25,7 km/h (4 Bft) W-SW 254 0 min 0,000 mm 0 W/m 0,5 C -2,7 C 38,6 km/h (5 Bft) 100,00 %
04.01.2012 19:03 6,8 C 64 % 1018,7 hPa 0,0 l/m 17,4 km/h (3 Bft) W-SW 247 0 min 0,000 mm 0 W/m 0,5 C 0,2 C 25,7 km/h (4 Bft) 95,83 %
04.01.2012 19:04 6,8 C 64 % 1018,7 hPa 0,0 l/m 17,3 km/h (3 Bft) W 259 0 min 0,000 mm 0 W/m 0,5 C 0,2 C 25,7 km/h (4 Bft) 100,00 %
04.01.2012 19:05 6,8 C 65 % 1018,7 hPa 0,0 l/m 26,7 km/h (4 Bft) W 268 0 min 0,000 mm 0 W/m 0,7 C -3,0 C 40,2 km/h (6 Bft) 100,00 %
04.01.2012 19:06 6,8 C 64 % 1018,7 hPa 0,0 l/m 19,0 km/h (3 Bft) W 270 0 min 0,000 mm 0 W/m 0,5 C -0,5 C 32,2 km/h (5 Bft) 100,00 %
04.01.2012 19:07 6,8 C 65 % 1018,7 hPa 0,0 l/m 22,6 km/h (4 Bft) W 273 0 min 0,000 mm 0 W/m 0,7 C -1,8 C 29,0 km/h (5 Bft) 100,00 %
04.01.2012 19:08 6,8 C 65 % 1018,6 hPa 0,0 l/m 28,2 km/h (4 Bft) W-SW 250 0 min 0,000 mm 0 W/m 0,7 C -3,4 C 40,2 km/h (6 Bft) 100,00 %
04.01.2012 19:09 6,8 C 64 % 1018,6 hPa 0,0 l/m 25,3 km/h (4 Bft) W-SW 253 0 min 0,000 mm 0 W/m 0,5 C -2,6 C 33,8 km/h (5 Bft) 100,00 %
04.01.2012 19:10 6,8 C 64 % 1018,5 hPa 0,0 l/m 22,0 km/h (4 Bft) W 261 0 min 0,000 mm 0 W/m 0,5 C -1,6 C 33,8 km/h (5 Bft) 100,00 %
04.01.2012 19:11 6,8 C 64 % 1018,5 hPa 0,0 l/m 24,3 km/h (4 Bft) W 265 0 min 0,000 mm 0 W/m 0,5 C -2,3 C 35,4 km/h (5 Bft) 100,00 %
04.01.2012 19:12 6,8 C 64 % 1018,6 hPa 0,0 l/m 25,6 km/h (4 Bft) W-SW 252 0 min 0,000 mm 0 W/m 0,5 C -2,7 C 35,4 km/h (5 Bft) 100,00 %
04.01.2012 19:13 6,8 C 64 % 1018,6 hPa 0,0 l/m 24,8 km/h (4 Bft) W-SW 248 0 min 0,000 mm 0 W/m 0,5 C -2,4 C 30,6 km/h (5 Bft) 100,00 %
04.01.2012 19:14 6,8 C 64 % 1018,6 hPa 0,0 l/m 27,0 km/h (4 Bft) W-SW 239 0 min 0,000 mm 0 W/m 0,5 C -3,1 C 40,2 km/h (6 Bft) 100,00 %
04.01.2012 19:15 6,8 C 64 % 1018,6 hPa 0,0 l/m 27,7 km/h (4 Bft) W 265 0 min 0,000 mm 0 W/m 0,5 C -3,3 C 38,6 km/h (5 Bft) 100,00 %
04.01.2012 19:16 6,8 C 64 % 1018,5 hPa 0,0 l/m 28,5 km/h (4 Bft) W-SW 257 0 min 0,000 mm 0 W/m 0,5 C -3,5 C 37,0 km/h (5 Bft) 100,00 %
04.01.2012 19:17 6,8 C 64 % 1018,5 hPa 0,0 l/m 31,0 km/h (5 Bft) W-NW 288 0 min 0,000 mm 0 W/m 0,5 C -4,1 C 43,5 km/h (6 Bft) 100,00 %
04.01.2012 19:18 6,8 C 64 % 1018,4 hPa 0,0 l/m 30,9 km/h (5 Bft) W 264 0 min 0,000 mm 0 W/m 0,5 C -4,1 C 46,7 km/h (6 Bft) 100,00 %
04.01.2012 19:19 6,8 C 63 % 1018,6 hPa 0,0 l/m 31,5 km/h (5 Bft) W 271 0 min 0,000 mm 0 W/m 0,3 C -4,2 C 43,5 km/h (6 Bft) 100,00 %
04.01.2012 19:20 6,8 C 63 % 1018,6 hPa 0,0 l/m 39,7 km/h (6 Bft) W 275 0 min 0,000 mm 0 W/m 0,3 C -5,8 C 51,5 km/h (7 Bft) 100,00 %
04.01.2012 19:21 6,8 C 63 % 1018,6 hPa 0,0 l/m 35,1 km/h (5 Bft) W-NW 296 0 min 0,000 mm 0 W/m 0,3 C -5,0 C 53,1 km/h (7 Bft) 96,00 %
04.01.2012 19:22 6,9 C 63 % 1018,8 hPa 0,0 l/m 39,8 km/h (6 Bft) W 267 0 min 0,000 mm 0 W/m 0,4 C -5,7 C 59,5 km/h (7 Bft) 100,00 %
04.01.2012 19:23 6,9 C 63 % 1018,8 hPa 0,0 l/m 37,2 km/h (5 Bft) W-SW 257 0 min 0,000 mm 0 W/m 0,4 C -5,2 C 53,1 km/h (7 Bft) 100,00 %
04.01.2012 19:24 6,9 C 63 % 1018,8 hPa 0,0 l/m 32,5 km/h (5 Bft) W-SW 252 0 min 0,000 mm 0 W/m 0,4 C -4,3 C 41,8 km/h (6 Bft) 100,00 %
04.01.2012 19:25 6,9 C 62 % 1018,7 hPa 0,0 l/m 29,2 km/h (5 Bft) W-SW 244 0 min 0,000 mm 0 W/m 0,1 C -3,5 C 43,5 km/h (6 Bft) 100,00 %
04.01.2012 19:26 6,9 C 62 % 1018,8 hPa 0,0 l/m 29,2 km/h (5 Bft) W 278 0 min 0,000 mm 0 W/m 0,1 C -3,5 C 48,3 km/h (6 Bft) 100,00 %
04.01.2012 19:27 6,9 C 62 % 1018,9 hPa 0,0 l/m 28,6 km/h (4 Bft) W 270 0 min 0,000 mm 0 W/m 0,1 C -3,4 C 51,5 km/h (7 Bft) 100,00 %
04.01.2012 19:28 6,9 C 62 % 1018,7 hPa 0,0 l/m 15,3 km/h (3 Bft) W-SW 257 0 min 0,000 mm 0 W/m 0,1 C 1,2 C 27,4 km/h (4 Bft) 100,00 %
04.01.2012 19:29 6,9 C 62 % 1018,7 hPa 0,0 l/m 38,8 km/h (5 Bft) W 265 0 min 0,000 mm 0 W/m 0,1 C -5,5 C 57,9 km/h (7 Bft) 100,00 %
04.01.2012 19:30 6,9 C 62 % 1018,9 hPa 0,0 l/m 26,7 km/h (4 Bft) W 268 0 min 0,000 mm 0 W/m 0,1 C -2,9 C 43,5 km/h (6 Bft) 100,00 %
04.01.2012 19:31 6,9 C 62 % 1018,8 hPa 0,0 l/m 38,1 km/h (5 Bft) W 281 0 min 0,000 mm 0 W/m 0,1 C -5,4 C 49,9 km/h (6 Bft) 100,00 %
04.01.2012 19:32 6,9 C 62 % 1018,9 hPa 0,0 l/m 29,0 km/h (5 Bft) W 278 0 min 0,000 mm 0 W/m 0,1 C -3,5 C 48,3 km/h (6 Bft) 100,00 %
04.01.2012 19:33 6,9 C 62 % 1018,8 hPa 0,0 l/m 31,8 km/h (5 Bft) W-NW 289 0 min 0,000 mm 0 W/m 0,1 C -4,1 C 49,9 km/h (6 Bft) 100,00 %
04.01.2012 19:34 6,9 C 62 % 1019,0 hPa 0,0 l/m 29,3 km/h (5 Bft) W 278 0 min 0,000 mm 0 W/m 0,1 C -3,5 C 40,2 km/h (6 Bft) 100,00 %
04.01.2012 19:35 6,9 C 62 % 1018,9 hPa 0,0 l/m 23,4 km/h (4 Bft) W 265 0 min 0,000 mm 0 W/m 0,1 C -1,9 C 40,2 km/h (6 Bft) 100,00 %
04.01.2012 19:36 6,9 C 62 % 1019,1 hPa 0,0 l/m 26,4 km/h (4 Bft) W-SW 242 0 min 0,000 mm 0 W/m 0,1 C -2,8 C 40,2 km/h (6 Bft) 100,00 %
04.01.2012 19:37 6,9 C 62 % 1019,0 hPa 0,0 l/m 29,8 km/h (5 Bft) W-NW 289 0 min 0,000 mm 0 W/m 0,1 C -3,7 C 37,0 km/h (5 Bft) 100,00 %
04.01.2012 19:38 6,9 C 63 % 1019,1 hPa 0,0 l/m 19,7 km/h (3 Bft) NW 319 0 min 0,000 mm 0 W/m 0,4 C -0,6 C 35,4 km/h (5 Bft) 100,00 %
04.01.2012 19:39 6,8 C 63 % 1019,1 hPa 0,0 l/m 27,7 km/h (4 Bft) W 267 0 min 0,000 mm 0 W/m 0,3 C -3,3 C 41,8 km/h (6 Bft) 100,00 %
04.01.2012 19:40 6,8 C 63 % 1019,1 hPa 0,0 l/m 22,9 km/h (4 Bft) W-NW 286 0 min 0,000 mm 0 W/m 0,3 C -1,9 C 30,6 km/h (5 Bft) 100,00 %
04.01.2012 19:41 6,8 C 63 % 1019,1 hPa 0,0 l/m 20,3 km/h (4 Bft) W 260 0 min 0,000 mm 0 W/m 0,3 C -1,0 C 37,0 km/h (5 Bft) 100,00 %
04.01.2012 19:42 6,8 C 63 % 1019,1 hPa 0,0 l/m 27,3 km/h (4 Bft) W 273 0 min 0,000 mm 0 W/m 0,3 C -3,2 C 41,8 km/h (6 Bft) 100,00 %
04.01.2012 19:43 6,8 C 63 % 1019,0 hPa 0,0 l/m 27,7 km/h (4 Bft) W 260 0 min 0,000 mm 0 W/m 0,3 C -3,3 C 51,5 km/h (7 Bft) 100,00 %
04.01.2012 19:44 6,8 C 63 % 1019,0 hPa 0,0 l/m 29,2 km/h (5 Bft) W 281 0 min 0,000 mm 0 W/m 0,3 C -3,6 C 40,2 km/h (6 Bft) 100,00 %
04.01.2012 19:45 6,8 C 63 % 1019,0 hPa 0,0 l/m 28,5 km/h (4 Bft) W 268 0 min 0,000 mm 0 W/m 0,3 C -3,5 C 41,8 km/h (6 Bft) 100,00 %
04.01.2012 19:46 6,8 C 63 % 1019,1 hPa 0,0 l/m 29,2 km/h (5 Bft) W 267 0 min 0,000 mm 0 W/m 0,3 C -3,6 C 38,6 km/h (5 Bft) 100,00 %
04.01.2012 19:47 6,8 C 63 % 1018,9 hPa 0,0 l/m 23,5 km/h (4 Bft) W-NW 290 0 min 0,000 mm 0 W/m 0,3 C -2,0 C 30,6 km/h (5 Bft) 100,00 %
04.01.2012 19:48 6,8 C 63 % 1018,9 hPa 0,0 l/m 19,8 km/h (3 Bft) W 266 0 min 0,000 mm 0 W/m 0,3 C -0,8 C 27,4 km/h (4 Bft) 100,00 %
04.01.2012 19:49 6,7 C 63 % 1018,9 hPa 0,0 l/m 21,1 km/h (4 Bft) W 260 0 min 0,000 mm 0 W/m 0,2 C -1,4 C 29,0 km/h (5 Bft) 100,00 %
04.01.2012 19:50 6,7 C 63 % 1018,9 hPa 0,0 l/m 26,8 km/h (4 Bft) W-NW 294 0 min 0,000 mm 0 W/m 0,2 C -3,2 C 43,5 km/h (6 Bft) 100,00 %
04.01.2012 19:51 6,7 C 63 % 1019,0 hPa 0,0 l/m 25,6 km/h (4 Bft) W-NW 292 0 min 0,000 mm 0 W/m 0,2 C -2,8 C 38,6 km/h (5 Bft) 100,00 %
04.01.2012 19:52 6,7 C 63 % 1018,9 hPa 0,0 l/m 21,9 km/h (4 Bft) W 260 0 min 0,000 mm 0 W/m 0,2 C -1,7 C 30,6 km/h (5 Bft) 100,00 %
04.01.2012 19:53 6,7 C 63 % 1018,9 hPa 0,0 l/m 25,0 km/h (4 Bft) W 264 0 min 0,000 mm 0 W/m 0,2 C -2,6 C 38,6 km/h (5 Bft) 100,00 %
04.01.2012 19:54 6,7 C 63 % 1018,9 hPa 0,0 l/m 17,7 km/h (3 Bft) W-NW 295 0 min 0,000 mm 0 W/m 0,2 C -0,1 C 32,2 km/h (5 Bft) 100,00 %
04.01.2012 19:55 6,7 C 63 % 1018,8 hPa 0,0 l/m 30,5 km/h (5 Bft) W 265 0 min 0,000 mm 0 W/m 0,2 C -4,1 C 43,5 km/h (6 Bft) 100,00 %
04.01.2012 19:56 6,7 C 63 % 1018,9 hPa 0,0 l/m 26,2 km/h (4 Bft) W 275 0 min 0,000 mm 0 W/m 0,2 C -3,0 C 38,6 km/h (5 Bft) 100,00 %
04.01.2012 19:57 6,6 C 63 % 1018,8 hPa 0,0 l/m 23,5 km/h (4 Bft) W-NW 294 0 min 0,000 mm 0 W/m 0,1 C -2,3 C 40,2 km/h (6 Bft) 100,00 %
04.01.2012 19:58 6,6 C 63 % 1018,9 hPa 0,0 l/m 24,8 km/h (4 Bft) W 268 0 min 0,000 mm 0 W/m 0,1 C -2,7 C 35,4 km/h (5 Bft) 100,00 %
04.01.2012 19:59 6,6 C 63 % 1018,8 hPa 0,0 l/m 27,2 km/h (4 Bft) W 279 0 min 0,000 mm 0 W/m 0,1 C -3,4 C 45,1 km/h (6 Bft) 100,00 %
04.01.2012 20:00 6,6 C 63 % 1018,9 hPa 0,0 l/m 24,9 km/h (4 Bft) W-SW 257 0 min 0,000 mm 0 W/m 0,1 C -2,7 C 35,4 km/h (5 Bft) 100,00 %
04.01.2012 20:01 6,6 C 63 % 1018,9 hPa 0,0 l/m 28,7 km/h (4 Bft) W 264 0 min 0,076 mm 0 W/m 0,1 C -3,8 C 43,5 km/h (6 Bft) 100,00 %
04.01.2012 20:02 6,6 C 63 % 1018,9 hPa 0,0 l/m 21,8 km/h (4 Bft) W 265 0 min 0,000 mm 0 W/m 0,1 C -1,7 C 30,6 km/h (5 Bft) 100,00 %
04.01.2012 20:03 6,6 C 63 % 1018,9 hPa 0,0 l/m 23,6 km/h (4 Bft) W 263 0 min 0,000 mm 0 W/m 0,1 C -2,3 C 33,8 km/h (5 Bft) 100,00 %
04.01.2012 20:04 6,6 C 63 % 1018,8 hPa 0,0 l/m 26,0 km/h (4 Bft) W 271 0 min 0,000 mm 0 W/m 0,1 C -3,1 C 43,5 km/h (6 Bft) 100,00 %
04.01.2012 20:05 6,5 C 63 % 1018,9 hPa 0,0 l/m 23,9 km/h (4 Bft) W-SW 241 0 min 0,000 mm 0 W/m -0,0 C -2,6 C 30,6 km/h (5 Bft) 100,00 %
04.01.2012 20:06 6,5 C 63 % 1018,8 hPa 0,0 l/m 20,9 km/h (4 Bft) W 267 0 min 0,000 mm 0 W/m -0,0 C -1,6 C 33,8 km/h (5 Bft) 100,00 %
04.01.2012 20:07 6,5 C 63 % 1018,8 hPa 0,0 l/m 21,9 km/h (4 Bft) W 259 0 min 0,000 mm 0 W/m -0,0 C -1,9 C 27,4 km/h (4 Bft) 100,00 %
04.01.2012 20:08 6,4 C 63 % 1018,8 hPa 0,0 l/m 15,7 km/h (3 Bft) W-SW 250 0 min 0,000 mm 0 W/m -0,1 C 0,4 C 24,1 km/h (4 Bft) 100,00 %
04.01.2012 20:09 6,4 C 63 % 1018,9 hPa 0,0 l/m 27,6 km/h (4 Bft) W 259 0 min 0,000 mm 0 W/m -0,1 C -3,8 C 40,2 km/h (6 Bft) 100,00 %
04.01.2012 20:10 6,4 C 63 % 1018,9 hPa 0,0 l/m 22,2 km/h (4 Bft) W 269 0 min 0,000 mm 0 W/m -0,1 C -2,2 C 29,0 km/h (5 Bft) 100,00 %
04.01.2012 20:11 6,4 C 63 % 1018,9 hPa 0,0 l/m 25,3 km/h (4 Bft) W 279 0 min 0,000 mm 0 W/m -0,1 C -3,1 C 41,8 km/h (6 Bft) 100,00 %
04.01.2012 20:12 6,4 C 62 % 1018,9 hPa 0,0 l/m 31,4 km/h (5 Bft) W-SW 254 0 min 0,000 mm 0 W/m -0,3 C -4,7 C 43,5 km/h (6 Bft) 100,00 %
04.01.2012 20:13 6,4 C 62 % 1018,9 hPa 0,0 l/m 23,9 km/h (4 Bft) W-NW 282 0 min 0,000 mm 0 W/m -0,3 C -2,7 C 37,0 km/h (5 Bft) 100,00 %
04.01.2012 20:14 6,4 C 62 % 1018,9 hPa 0,0 l/m 25,3 km/h (4 Bft) W-NW 298 0 min 0,000 mm 0 W/m -0,3 C -3,1 C 40,2 km/h (6 Bft) 100,00 %
04.01.2012 20:15 6,4 C 62 % 1019,0 hPa 0,0 l/m 29,8 km/h (5 Bft) W 268 0 min 0,000 mm 0 W/m -0,3 C -4,4 C 45,1 km/h (6 Bft) 100,00 %
04.01.2012 20:16 6,4 C 62 % 1019,0 hPa 0,0 l/m 31,8 km/h (5 Bft) W 271 0 min 0,000 mm 0 W/m -0,3 C -4,8 C 43,5 km/h (6 Bft) 100,00 %
04.01.2012 20:17 6,5 C 62 % 1018,9 hPa 0,0 l/m 30,0 km/h (5 Bft) W-SW 256 0 min 0,000 mm 0 W/m -0,2 C -4,3 C 37,0 km/h (5 Bft) 100,00 %
04.01.2012 20:18 6,5 C 62 % 1019,0 hPa 0,0 l/m 20,7 km/h (4 Bft) W-SW 257 0 min 0,000 mm 0 W/m -0,2 C -1,5 C 27,4 km/h (4 Bft) 100,00 %
04.01.2012 20:19 6,5 C 62 % 1019,0 hPa 0,0 l/m 23,5 km/h (4 Bft) W 264 0 min 0,000 mm 0 W/m -0,2 C -2,4 C 38,6 km/h (5 Bft) 100,00 %
04.01.2012 20:20 6,5 C 62 % 1018,9 hPa 0,0 l/m 25,7 km/h (4 Bft) W-SW 250 0 min 0,000 mm 0 W/m -0,2 C -3,1 C 40,2 km/h (6 Bft) 100,00 %
04.01.2012 20:21 6,5 C 62 % 1019,0 hPa 0,0 l/m 25,1 km/h (4 Bft) W 273 0 min 0,000 mm 0 W/m -0,2 C -2,9 C 45,1 km/h (6 Bft) 100,00 %
04.01.2012 20:22 6,5 C 63 % 1019,0 hPa 0,0 l/m 31,1 km/h (5 Bft) W 268 0 min 0,000 mm 0 W/m -0,0 C -4,5 C 40,2 km/h (6 Bft) 100,00 %
04.01.2012 20:23 6,5 C 63 % 1019,0 hPa 0,0 l/m 32,3 km/h (5 Bft) W 260 0 min 0,000 mm 0 W/m -0,0 C -4,8 C 46,7 km/h (6 Bft) 100,00 %
04.01.2012 20:24 6,5 C 63 % 1019,0 hPa 0,0 l/m 26,9 km/h (4 Bft) W 269 0 min 0,000 mm 0 W/m -0,0 C -3,5 C 35,4 km/h (5 Bft) 100,00 %
04.01.2012 20:25 6,5 C 63 % 1019,0 hPa 0,0 l/m 22,2 km/h (4 Bft) W 277 0 min 0,000 mm 0 W/m -0,0 C -2,0 C 33,8 km/h (5 Bft) 100,00 %
04.01.2012 20:26 6,5 C 63 % 1019,0 hPa 0,0 l/m 20,6 km/h (4 Bft) W-SW 240 0 min 0,000 mm 0 W/m -0,0 C -1,5 C 30,6 km/h (5 Bft) 100,00 %
04.01.2012 20:27 6,4 C 63 % 1019,0 hPa 0,0 l/m 21,3 km/h (4 Bft) W-SW 249 0 min 0,000 mm 0 W/m -0,1 C -1,8 C 29,0 km/h (5 Bft) 100,00 %
04.01.2012 20:28 6,4 C 63 % 1019,1 hPa 0,0 l/m 33,1 km/h (5 Bft) W-SW 254 0 min 0,000 mm 0 W/m -0,1 C -5,1 C 49,9 km/h (6 Bft) 96,00 %
04.01.2012 20:29 6,5 C 63 % 1019,0 hPa 0,0 l/m 27,4 km/h (4 Bft) W-SW 254 0 min 0,000 mm 0 W/m -0,0 C -3,6 C 48,3 km/h (6 Bft) 100,00 %
04.01.2012 20:30 6,5 C 63 % 1019,0 hPa 0,0 l/m 22,7 km/h (4 Bft) W-SW 257 0 min 0,000 mm 0 W/m -0,0 C -2,2 C 37,0 km/h (5 Bft) 100,00 %
04.01.2012 20:31 6,5 C 63 % 1019,0 hPa 0,0 l/m 23,2 km/h (4 Bft) W 279 0 min 0,000 mm 0 W/m -0,0 C -2,3 C 33,8 km/h (5 Bft) 100,00 %
04.01.2012 20:32 6,5 C 63 % 1019,0 hPa 0,0 l/m 28,3 km/h (4 Bft) W-SW 254 0 min 0,000 mm 0 W/m -0,0 C -3,8 C 49,9 km/h (6 Bft) 100,00 %
04.01.2012 20:33 6,5 C 63 % 1019,0 hPa 0,0 l/m 32,5 km/h (5 Bft) W 265 0 min 0,000 mm 0 W/m -0,0 C -4,8 C 45,1 km/h (6 Bft) 100,00 %
04.01.2012 20:34 6,5 C 63 % 1019,0 hPa 0,0 l/m 25,0 km/h (4 Bft) W-SW 250 0 min 0,000 mm 0 W/m -0,0 C -2,9 C 32,2 km/h (5 Bft) 100,00 %
04.01.2012 20:35 6,5 C 63 % 1019,0 hPa 0,0 l/m 25,2 km/h (4 Bft) W 273 0 min 0,000 mm 0 W/m -0,0 C -3,0 C 33,8 km/h (5 Bft) 100,00 %
04.01.2012 20:36 6,5 C 63 % 1019,0 hPa 0,0 l/m 26,9 km/h (4 Bft) W 280 0 min 0,000 mm 0 W/m -0,0 C -3,5 C 38,6 km/h (5 Bft) 100,00 %
04.01.2012 20:37 6,5 C 63 % 1019,0 hPa 0,0 l/m 24,6 km/h (4 Bft) W 281 0 min 0,000 mm 0 W/m -0,0 C -2,8 C 40,2 km/h (6 Bft) 100,00 %
04.01.2012 20:38 6,4 C 63 % 1019,0 hPa 0,0 l/m 23,4 km/h (4 Bft) W-NW 300 0 min 0,000 mm 0 W/m -0,1 C -2,5 C 38,6 km/h (5 Bft) 100,00 %
04.01.2012 20:39 6,4 C 63 % 1019,0 hPa 0,0 l/m 18,2 km/h (3 Bft) W 267 0 min 0,000 mm 0 W/m -0,1 C -0,7 C 25,7 km/h (4 Bft) 100,00 %
04.01.2012 20:40 6,4 C 63 % 1019,0 hPa 0,0 l/m 19,5 km/h (3 Bft) W 276 0 min 0,000 mm 0 W/m -0,1 C -1,2 C 38,6 km/h (5 Bft) 96,15 %
04.01.2012 20:41 6,4 C 63 % 1019,0 hPa 0,0 l/m 25,8 km/h (4 Bft) W 260 0 min 0,000 mm 0 W/m -0,1 C -3,3 C 37,0 km/h (5 Bft) 100,00 %
04.01.2012 20:42 6,4 C 63 % 1019,0 hPa 0,0 l/m 21,1 km/h (4 Bft) W 271 0 min 0,000 mm 0 W/m -0,1 C -1,8 C 35,4 km/h (5 Bft) 100,00 %
04.01.2012 20:43 6,4 C 63 % 1019,0 hPa 0,0 l/m 24,1 km/h (4 Bft) W-SW 248 0 min 0,000 mm 0 W/m -0,1 C -2,8 C 38,6 km/h (5 Bft) 100,00 %
04.01.2012 20:44 6,4 C 63 % 1019,0 hPa 0,0 l/m 19,9 km/h (4 Bft) W-NW 288 0 min 0,000 mm 0 W/m -0,1 C -1,3 C 29,0 km/h (5 Bft) 100,00 %
04.01.2012 20:45 6,3 C 63 % 1018,9 hPa 0,0 l/m 21,1 km/h (4 Bft) W-SW 254 0 min 0,000 mm 0 W/m -0,2 C -1,9 C 32,2 km/h (5 Bft) 100,00 %
04.01.2012 20:46 6,3 C 63 % 1019,0 hPa 0,0 l/m 21,4 km/h (4 Bft) W 264 0 min 0,000 mm 0 W/m -0,2 C -2,0 C 30,6 km/h (5 Bft) 100,00 %
04.01.2012 20:47 6,3 C 63 % 1019,0 hPa 0,0 l/m 20,9 km/h (4 Bft) W 274 0 min 0,000 mm 0 W/m -0,2 C -1,8 C 30,6 km/h (5 Bft) 100,00 %
04.01.2012 20:48 6,3 C 63 % 1019,0 hPa 0,0 l/m 18,0 km/h (3 Bft) NW 319 0 min 0,000 mm 0 W/m -0,2 C -0,7 C 29,0 km/h (5 Bft) 96,00 %
04.01.2012 20:49 6,3 C 63 % 1018,9 hPa 0,0 l/m 25,0 km/h (4 Bft) W 276 0 min 0,000 mm 0 W/m -0,2 C -3,2 C 38,6 km/h (5 Bft) 100,00 %
04.01.2012 20:50 6,3 C 63 % 1018,9 hPa 0,0 l/m 22,5 km/h (4 Bft) W 263 0 min 0,000 mm 0 W/m -0,2 C -2,4 C 40,2 km/h (6 Bft) 100,00 %
04.01.2012 20:51 6,3 C 62 % 1018,9 hPa 0,0 l/m 23,6 km/h (4 Bft) W 267 0 min 0,000 mm 0 W/m -0,4 C -2,7 C 38,6 km/h (5 Bft) 100,00 %
04.01.2012 20:52 6,3 C 62 % 1019,0 hPa 0,0 l/m 23,0 km/h (4 Bft) W-SW 246 0 min 0,000 mm 0 W/m -0,4 C -2,6 C 35,4 km/h (5 Bft) 100,00 %
04.01.2012 20:53 6,3 C 62 % 1019,0 hPa 0,0 l/m 21,1 km/h (4 Bft) W 267 0 min 0,000 mm 0 W/m -0,4 C -1,9 C 32,2 km/h (5 Bft) 100,00 %
04.01.2012 20:54 6,3 C 62 % 1018,9 hPa 0,0 l/m 21,8 km/h (4 Bft) W-SW 254 0 min 0,000 mm 0 W/m -0,4 C -2,1 C 33,8 km/h (5 Bft) 100,00 %
04.01.2012 20:55 6,3 C 62 % 1019,0 hPa 0,0 l/m 29,0 km/h (5 Bft) W-NW 286 0 min 0,000 mm 0 W/m -0,4 C -4,3 C 38,6 km/h (5 Bft) 100,00 %
04.01.2012 20:56 6,3 C 62 % 1018,9 hPa 0,0 l/m 23,8 km/h (4 Bft) W-NW 286 0 min 0,000 mm 0 W/m -0,4 C -2,8 C 40,2 km/h (6 Bft) 100,00 %
04.01.2012 20:57 6,3 C 61 % 1018,9 hPa 0,0 l/m 27,4 km/h (4 Bft) W 269 0 min 0,000 mm 0 W/m -0,7 C -3,9 C 40,2 km/h (6 Bft) 100,00 %
04.01.2012 20:58 6,3 C 61 % 1018,9 hPa 0,0 l/m 29,2 km/h (5 Bft) W 273 0 min 0,000 mm 0 W/m -0,7 C -4,3 C 45,1 km/h (6 Bft) 100,00 %
04.01.2012 20:59 6,4 C 61 % 1019,0 hPa 0,0 l/m 20,9 km/h (4 Bft) W 273 0 min 0,000 mm 0 W/m -0,6 C -1,7 C 30,6 km/h (5 Bft) 100,00 %
04.01.2012 21:00 6,4 C 61 % 1019,0 hPa 0,0 l/m 15,0 km/h (3 Bft) W-SW 257 0 min 0,000 mm 0 W/m -0,6 C 0,8 C 30,6 km/h (5 Bft) 100,00 %
04.01.2012 21:01 6,4 C 61 % 1019,0 hPa 0,0 l/m 21,0 km/h (4 Bft) W 264 0 min 0,076 mm 0 W/m -0,6 C -1,7 C 35,4 km/h (5 Bft) 100,00 %
04.01.2012 21:02 6,4 C 61 % 1019,0 hPa 0,0 l/m 22,4 km/h (4 Bft) W 275 0 min 0,001 mm 0 W/m -0,6 C -2,2 C 27,4 km/h (4 Bft) 100,00 %
04.01.2012 21:03 6,4 C 60 % 1019,0 hPa 0,0 l/m 20,2 km/h (4 Bft) W 274 0 min 0,000 mm 0 W/m -0,8 C -1,4 C 30,6 km/h (5 Bft) 100,00 %
04.01.2012 21:04 6,4 C 60 % 1019,0 hPa 0,0 l/m 23,4 km/h (4 Bft) W-SW 256 0 min 0,000 mm 0 W/m -0,8 C -2,5 C 33,8 km/h (5 Bft) 100,00 %
04.01.2012 21:05 6,4 C 60 % 1019,0 hPa 0,0 l/m 22,7 km/h (4 Bft) W 265 0 min 0,000 mm 0 W/m -0,8 C -2,3 C 32,2 km/h (5 Bft) 100,00 %
04.01.2012 21:06 6,4 C 60 % 1019,0 hPa 0,0 l/m 20,6 km/h (4 Bft) W 264 0 min 0,000 mm 0 W/m -0,8 C -1,6 C 32,2 km/h (5 Bft) 100,00 %
04.01.2012 21:07 6,4 C 60 % 1019,0 hPa 0,0 l/m 15,4 km/h (3 Bft) W 259 0 min 0,000 mm 0 W/m -0,8 C 0,6 C 22,5 km/h (4 Bft) 100,00 %
04.01.2012 21:08 6,4 C 60 % 1019,1 hPa 0,0 l/m 18,3 km/h (3 Bft) W-SW 251 0 min 0,000 mm 0 W/m -0,8 C -0,7 C 32,2 km/h (5 Bft) 100,00 %
04.01.2012 21:09 6,4 C 60 % 1019,1 hPa 0,0 l/m 20,5 km/h (4 Bft) W 271 0 min 0,000 mm 0 W/m -0,8 C -1,5 C 27,4 km/h (4 Bft) 100,00 %
04.01.2012 21:10 6,4 C 60 % 1019,1 hPa 0,0 l/m 17,4 km/h (3 Bft) W 265 0 min 0,000 mm 0 W/m -0,8 C -0,3 C 24,1 km/h (4 Bft) 100,00 %
04.01.2012 21:11 6,4 C 59 % 1019,1 hPa 0,0 l/m 22,9 km/h (4 Bft) W-SW 257 0 min 0,000 mm 0 W/m -1,0 C -2,4 C 27,4 km/h (4 Bft) 100,00 %
04.01.2012 21:12 6,4 C 59 % 1019,1 hPa 0,0 l/m 13,2 km/h (3 Bft) W-SW 245 0 min 0,000 mm 0 W/m -1,0 C 1,7 C 17,7 km/h (3 Bft) 100,00 %
04.01.2012 21:13 6,4 C 59 % 1019,1 hPa 0,0 l/m 16,5 km/h (3 Bft) W-SW 258 0 min 0,000 mm 0 W/m -1,0 C 0,1 C 22,5 km/h (4 Bft) 100,00 %
04.01.2012 21:14 6,3 C 59 % 1019,1 hPa 0,0 l/m 17,4 km/h (3 Bft) W-SW 245 0 min 0,000 mm 0 W/m -1,1 C -0,4 C 24,1 km/h (4 Bft) 100,00 %
04.01.2012 21:15 6,3 C 59 % 1019,1 hPa 0,0 l/m 18,3 km/h (3 Bft) W-SW 252 0 min 0,000 mm 0 W/m -1,1 C -0,8 C 24,1 km/h (4 Bft) 100,00 %
04.01.2012 21:16 6,3 C 59 % 1019,1 hPa 0,0 l/m 18,1 km/h (3 Bft) W 259 0 min 0,000 mm 0 W/m -1,1 C -0,7 C 29,0 km/h (5 Bft) 100,00 %
04.01.2012 21:17 6,3 C 59 % 1019,1 hPa 0,0 l/m 13,4 km/h (3 Bft) W-SW 252 0 min 0,000 mm 0 W/m -1,1 C 1,5 C 22,5 km/h (4 Bft) 100,00 %
04.01.2012 21:18 6,3 C 59 % 1019,2 hPa 0,0 l/m 21,8 km/h (4 Bft) W 259 0 min 0,000 mm 0 W/m -1,1 C -2,1 C 37,0 km/h (5 Bft) 100,00 %
04.01.2012 21:19 6,3 C 58 % 1019,1 hPa 0,0 l/m 17,8 km/h (3 Bft) W 261 0 min 0,000 mm 0 W/m -1,3 C -0,6 C 25,7 km/h (4 Bft) 100,00 %
04.01.2012 21:20 6,3 C 59 % 1019,1 hPa 0,0 l/m 14,7 km/h (3 Bft) W-SW 244 0 min 0,000 mm 0 W/m -1,1 C 0,8 C 24,1 km/h (4 Bft) 100,00 %
04.01.2012 21:21 6,3 C 59 % 1019,1 hPa 0,0 l/m 22,0 km/h (4 Bft) W-SW 252 0 min 0,000 mm 0 W/m -1,1 C -2,2 C 30,6 km/h (5 Bft) 100,00 %
04.01.2012 21:22 6,3 C 59 % 1019,1 hPa 0,0 l/m 16,2 km/h (3 Bft) W 264 0 min 0,000 mm 0 W/m -1,1 C 0,1 C 24,1 km/h (4 Bft) 100,00 %
04.01.2012 21:23 6,3 C 58 % 1019,1 hPa 0,0 l/m 18,7 km/h (3 Bft) W-SW 251 0 min 0,000 mm 0 W/m -1,3 C -1,0 C 25,7 km/h (4 Bft) 100,00 %
04.01.2012 21:24 6,2 C 58 % 1019,0 hPa 0,0 l/m 13,6 km/h (3 Bft) W-SW 257 0 min 0,000 mm 0 W/m -1,4 C 1,2 C 22,5 km/h (4 Bft) 100,00 %
04.01.2012 21:25 6,2 C 58 % 1019,0 hPa 0,0 l/m 21,1 km/h (4 Bft) SW 236 0 min 0,000 mm 0 W/m -1,4 C -2,0 C 27,4 km/h (4 Bft) 100,00 %
04.01.2012 21:26 6,2 C 58 % 1019,0 hPa 0,0 l/m 19,1 km/h (3 Bft) W-SW 250 0 min 0,000 mm 0 W/m -1,4 C -1,3 C 27,4 km/h (4 Bft) 100,00 %
04.01.2012 21:27 6,2 C 59 % 1018,9 hPa 0,0 l/m 19,5 km/h (3 Bft) W 259 0 min 0,000 mm 0 W/m -1,2 C -1,4 C 24,1 km/h (4 Bft) 100,00 %
04.01.2012 21:28 6,2 C 59 % 1018,9 hPa 0,0 l/m 19,4 km/h (3 Bft) W 273 0 min 0,000 mm 0 W/m -1,2 C -1,4 C 25,7 km/h (4 Bft) 100,00 %
04.01.2012 21:29 6,2 C 58 % 1018,9 hPa 0,0 l/m 27,8 km/h (4 Bft) W 262 0 min 0,000 mm 0 W/m -1,4 C -4,1 C 40,2 km/h (6 Bft) 100,00 %
04.01.2012 21:30 6,2 C 58 % 1018,9 hPa 0,0 l/m 21,1 km/h (4 Bft) W-SW 248 0 min 0,000 mm 0 W/m -1,4 C -2,0 C 30,6 km/h (5 Bft) 100,00 %
04.01.2012 21:31 6,1 C 58 % 1018,9 hPa 0,0 l/m 21,2 km/h (4 Bft) W 265 0 min 0,000 mm 0 W/m -1,5 C -2,2 C 27,4 km/h (4 Bft) 100,00 %
04.01.2012 21:32 6,1 C 58 % 1018,9 hPa 0,0 l/m 19,5 km/h (3 Bft) W-SW 238 0 min 0,000 mm 0 W/m -1,5 C -1,6 C 27,4 km/h (4 Bft) 100,00 %
04.01.2012 21:33 6,1 C 58 % 1018,9 hPa 0,0 l/m 19,2 km/h (3 Bft) W-SW 252 0 min 0,000 mm 0 W/m -1,5 C -1,4 C 27,4 km/h (4 Bft) 96,00 %
04.01.2012 21:34 6,1 C 58 % 1018,9 hPa 0,0 l/m 21,3 km/h (4 Bft) W-SW 254 0 min 0,000 mm 0 W/m -1,5 C -2,2 C 27,4 km/h (4 Bft) 95,83 %
04.01.2012 21:35 6,1 C 58 % 1018,9 hPa 0,0 l/m 19,1 km/h (3 Bft) W-SW 257 0 min 0,000 mm 0 W/m -1,5 C -1,4 C 24,1 km/h (4 Bft) 100,00 %
04.01.2012 21:36 6,1 C 58 % 1018,9 hPa 0,0 l/m 14,1 km/h (3 Bft) W-SW 246 0 min 0,000 mm 0 W/m -1,5 C 0,9 C 19,3 km/h (3 Bft) 100,00 %
04.01.2012 21:37 6,1 C 58 % 1018,9 hPa 0,0 l/m 17,4 km/h (3 Bft) W-SW 251 0 min 0,000 mm 0 W/m -1,5 C -0,7 C 24,1 km/h (4 Bft) 100,00 %
04.01.2012 21:38 6,1 C 58 % 1018,9 hPa 0,0 l/m 16,7 km/h (3 Bft) W 259 0 min 0,000 mm 0 W/m -1,5 C -0,4 C 22,5 km/h (4 Bft) 100,00 %
04.01.2012 21:39 6,1 C 58 % 1019,0 hPa 0,0 l/m 19,3 km/h (3 Bft) W 267 0 min 0,000 mm 0 W/m -1,5 C -1,5 C 27,4 km/h (4 Bft) 100,00 %
04.01.2012 21:40 6,0 C 58 % 1019,0 hPa 0,0 l/m 18,2 km/h (3 Bft) W 262 0 min 0,000 mm 0 W/m -1,6 C -1,2 C 25,7 km/h (4 Bft) 100,00 %
04.01.2012 21:41 6,0 C 58 % 1019,0 hPa 0,0 l/m 18,3 km/h (3 Bft) W 269 0 min 0,000 mm 0 W/m -1,6 C -1,2 C 22,5 km/h (4 Bft) 100,00 %
04.01.2012 21:42 6,0 C 58 % 1018,9 hPa 0,0 l/m 16,7 km/h (3 Bft) W 266 0 min 0,000 mm 0 W/m -1,6 C -0,5 C 22,5 km/h (4 Bft) 100,00 %
04.01.2012 21:43 5,9 C 58 % 1018,9 hPa 0,0 l/m 20,6 km/h (4 Bft) W 261 0 min 0,000 mm 0 W/m -1,7 C -2,2 C 30,6 km/h (5 Bft) 100,00 %
04.01.2012 21:44 6,0 C 58 % 1018,9 hPa 0,0 l/m 10,8 km/h (2 Bft) W-SW 257 0 min 0,000 mm 0 W/m -1,6 C 2,6 C 17,7 km/h (3 Bft) 100,00 %
04.01.2012 21:45 5,9 C 58 % 1019,0 hPa 0,0 l/m 17,1 km/h (3 Bft) W 264 0 min 0,000 mm 0 W/m -1,7 C -0,8 C 22,5 km/h (4 Bft) 100,00 %
04.01.2012 21:46 5,9 C 58 % 1019,0 hPa 0,0 l/m 14,8 km/h (3 Bft) W-SW 257 0 min 0,000 mm 0 W/m -1,7 C 0,3 C 27,4 km/h (4 Bft) 96,43 %
04.01.2012 21:47 5,9 C 57 % 1019,0 hPa 0,0 l/m 15,3 km/h (3 Bft) W 259 0 min 0,000 mm 0 W/m -2,0 C 0,0 C 22,5 km/h (4 Bft) 100,00 %
04.01.2012 21:48 5,9 C 57 % 1019,0 hPa 0,0 l/m 13,0 km/h (3 Bft) W-SW 250 0 min 0,000 mm 0 W/m -2,0 C 1,2 C 20,9 km/h (4 Bft) 100,00 %
04.01.2012 21:49 5,9 C 57 % 1019,1 hPa 0,0 l/m 13,0 km/h (3 Bft) W 261 0 min 0,000 mm 0 W/m -2,0 C 1,2 C 19,3 km/h (3 Bft) 100,00 %
04.01.2012 21:50 5,9 C 57 % 1019,1 hPa 0,0 l/m 18,1 km/h (3 Bft) W-SW 240 0 min 0,000 mm 0 W/m -2,0 C -1,2 C 25,7 km/h (4 Bft) 100,00 %
04.01.2012 21:51 5,9 C 57 % 1019,1 hPa 0,0 l/m 18,7 km/h (3 Bft) W-SW 249 0 min 0,000 mm 0 W/m -2,0 C -1,5 C 24,1 km/h (4 Bft) 100,00 %
04.01.2012 21:52 6,0 C 57 % 1019,1 hPa 0,0 l/m 21,6 km/h (4 Bft) W-SW 253 0 min 0,000 mm 0 W/m -1,9 C -2,5 C 37,0 km/h (5 Bft) 100,00 %
04.01.2012 21:53 6,0 C 55 % 1019,1 hPa 0,0 l/m 29,4 km/h (5 Bft) W 268 0 min 0,000 mm 0 W/m -2,3 C -4,8 C 37,0 km/h (5 Bft) 100,00 %
04.01.2012 21:54 6,1 C 55 % 1019,1 hPa 0,0 l/m 24,6 km/h (4 Bft) W-SW 248 0 min 0,000 mm 0 W/m -2,2 C -3,3 C 33,8 km/h (5 Bft) 100,00 %
04.01.2012 21:55 6,1 C 55 % 1019,2 hPa 0,0 l/m 18,3 km/h (3 Bft) W-SW 245 0 min 0,000 mm 0 W/m -2,2 C -1,1 C 32,2 km/h (5 Bft) 100,00 %
04.01.2012 21:56 6,2 C 54 % 1019,2 hPa 0,0 l/m 24,0 km/h (4 Bft) W-SW 258 0 min 0,000 mm 0 W/m -2,4 C -3,0 C 32,2 km/h (5 Bft) 100,00 %
04.01.2012 21:57 6,2 C 54 % 1019,2 hPa 0,0 l/m 21,4 km/h (4 Bft) W-SW 251 0 min 0,000 mm 0 W/m -2,4 C -2,1 C 27,4 km/h (4 Bft) 100,00 %
04.01.2012 21:58 6,2 C 54 % 1019,2 hPa 0,0 l/m 16,0 km/h (3 Bft) W-NW 287 0 min 0,000 mm 0 W/m -2,4 C 0,1 C 29,0 km/h (5 Bft) 100,00 %
04.01.2012 21:59 6,3 C 54 % 1019,1 hPa 0,0 l/m 22,0 km/h (4 Bft) W-NW 288 0 min 0,000 mm 0 W/m -2,3 C -2,2 C 35,4 km/h (5 Bft) 100,00 %
04.01.2012 22:00 6,3 C 54 % 1019,2 hPa 0,0 l/m 14,1 km/h (3 Bft) W 267 0 min 0,000 mm 0 W/m -2,3 C 1,1 C 19,3 km/h (3 Bft) 100,00 %
04.01.2012 22:01 6,3 C 54 % 1019,1 hPa 0,0 l/m 18,7 km/h (3 Bft) W 259 0 min 0,076 mm 0 W/m -2,3 C -1,0 C 29,0 km/h (5 Bft) 100,00 %
04.01.2012 22:02 6,3 C 54 % 1019,1 hPa 0,0 l/m 24,2 km/h (4 Bft) W-SW 243 0 min 0,000 mm 0 W/m -2,3 C -2,9 C 29,0 km/h (5 Bft) 100,00 %
04.01.2012 22:03 6,4 C 54 % 1019,1 hPa 0,0 l/m 17,4 km/h (3 Bft) W 267 0 min 0,000 mm 0 W/m -2,2 C -0,3 C 30,6 km/h (5 Bft) 100,00 %
04.01.2012 22:04 6,4 C 54 % 1019,0 hPa 0,0 l/m 15,7 km/h (3 Bft) W 263 0 min 0,000 mm 0 W/m -2,2 C 0,4 C 24,1 km/h (4 Bft) 95,83 %
04.01.2012 22:05 6,4 C 54 % 1019,1 hPa 0,0 l/m 16,7 km/h (3 Bft) W 266 0 min 0,000 mm 0 W/m -2,2 C -0,0 C 24,1 km/h (4 Bft) 100,00 %
04.01.2012 22:06 6,4 C 54 % 1019,1 hPa 0,0 l/m 20,8 km/h (4 Bft) W 279 0 min 0,000 mm 0 W/m -2,2 C -1,7 C 29,0 km/h (5 Bft) 100,00 %
04.01.2012 22:07 6,4 C 53 % 1019,1 hPa 0,0 l/m 19,1 km/h (3 Bft) W 263 0 min 0,000 mm 0 W/m -2,5 C -1,0 C 32,2 km/h (5 Bft) 100,00 %
04.01.2012 22:08 6,4 C 54 % 1019,1 hPa 0,0 l/m 17,7 km/h (3 Bft) W 276 0 min 0,000 mm 0 W/m -2,2 C -0,4 C 25,7 km/h (4 Bft) 100,00 %
04.01.2012 22:09 6,4 C 54 % 1019,0 hPa 0,0 l/m 16,1 km/h (3 Bft) W 279 0 min 0,000 mm 0 W/m -2,2 C 0,3 C 20,9 km/h (4 Bft) 100,00 %
04.01.2012 22:10 6,4 C 54 % 1019,0 hPa 0,0 l/m 20,6 km/h (4 Bft) W 276 0 min 0,000 mm 0 W/m -2,2 C -1,6 C 33,8 km/h (5 Bft) 100,00 %
04.01.2012 22:11 6,4 C 54 % 1019,0 hPa 0,0 l/m 14,6 km/h (3 Bft) W-SW 255 0 min 0,000 mm 0 W/m -2,2 C 1,0 C 24,1 km/h (4 Bft) 100,00 %
04.01.2012 22:12 6,4 C 54 % 1019,0 hPa 0,0 l/m 13,6 km/h (3 Bft) W 270 0 min 0,000 mm 0 W/m -2,2 C 1,5 C 20,9 km/h (4 Bft) 100,00 %
04.01.2012 22:13 6,4 C 54 % 1019,0 hPa 0,0 l/m 17,1 km/h (3 Bft) W 264 0 min 0,000 mm 0 W/m -2,2 C -0,2 C 27,4 km/h (4 Bft) 100,00 %
04.01.2012 22:14 6,4 C 54 % 1019,0 hPa 0,0 l/m 20,9 km/h (4 Bft) W 271 0 min 0,000 mm 0 W/m -2,2 C -1,7 C 30,6 km/h (5 Bft) 100,00 %
04.01.2012 22:15 6,4 C 54 % 1019,0 hPa 0,0 l/m 23,8 km/h (4 Bft) W 279 0 min 0,000 mm 0 W/m -2,2 C -2,7 C 33,8 km/h (5 Bft) 100,00 %
04.01.2012 22:16 6,4 C 54 % 1019,0 hPa 0,0 l/m 23,0 km/h (4 Bft) W 280 0 min 0,000 mm 0 W/m -2,2 C -2,4 C 30,6 km/h (5 Bft) 100,00 %
04.01.2012 22:17 6,4 C 54 % 1019,1 hPa 0,0 l/m 16,9 km/h (3 Bft) W 272 0 min 0,000 mm 0 W/m -2,2 C -0,1 C 25,7 km/h (4 Bft) 100,00 %
04.01.2012 22:18 6,4 C 54 % 1019,1 hPa 0,0 l/m 12,7 km/h (3 Bft) W 259 0 min 0,000 mm 0 W/m -2,2 C 2,0 C 22,5 km/h (4 Bft) 100,00 %
04.01.2012 22:19 6,4 C 54 % 1019,1 hPa 0,0 l/m 13,2 km/h (3 Bft) W 274 0 min 0,000 mm 0 W/m -2,2 C 1,7 C 20,9 km/h (4 Bft) 100,00 %
04.01.2012 22:20 6,4 C 54 % 1019,1 hPa 0,0 l/m 11,9 km/h (2 Bft) W 267 0 min 0,000 mm 0 W/m -2,2 C 2,4 C 19,3 km/h (3 Bft) 100,00 %
04.01.2012 22:21 6,4 C 54 % 1019,1 hPa 0,0 l/m 13,1 km/h (3 Bft) W 271 0 min 0,000 mm 0 W/m -2,2 C 1,7 C 24,1 km/h (4 Bft) 100,00 %
04.01.2012 22:22 6,4 C 54 % 1019,1 hPa 0,0 l/m 14,4 km/h (3 Bft) W 271 0 min 0,000 mm 0 W/m -2,2 C 1,1 C 22,5 km/h (4 Bft) 100,00 %
04.01.2012 22:23 6,4 C 54 % 1019,1 hPa 0,0 l/m 15,3 km/h (3 Bft) W 261 0 min 0,000 mm 0 W/m -2,2 C 0,6 C 24,1 km/h (4 Bft) 100,00 %
04.01.2012 22:24 6,4 C 54 % 1019,1 hPa 0,0 l/m 11,0 km/h (2 Bft) W 271 0 min 0,000 mm 0 W/m -2,2 C 3,0 C 17,7 km/h (3 Bft) 100,00 %
04.01.2012 22:25 6,4 C 55 % 1019,1 hPa 0,0 l/m 13,3 km/h (3 Bft) W 275 0 min 0,000 mm 0 W/m -2,0 C 1,6 C 17,7 km/h (3 Bft) 100,00 %
04.01.2012 22:26 6,4 C 55 % 1019,1 hPa 0,0 l/m 11,4 km/h (2 Bft) W 269 0 min 0,000 mm 0 W/m -2,0 C 2,7 C 20,9 km/h (4 Bft) 100,00 %
04.01.2012 22:27 6,4 C 55 % 1019,0 hPa 0,0 l/m 14,2 km/h (3 Bft) W 259 0 min 0,000 mm 0 W/m -2,0 C 1,2 C 20,9 km/h (4 Bft) 92,00 %
04.01.2012 22:28 6,4 C 55 % 1019,0 hPa 0,0 l/m 15,1 km/h (3 Bft) W 267 0 min 0,000 mm 0 W/m -2,0 C 0,7 C 24,1 km/h (4 Bft) 100,00 %
04.01.2012 22:29 6,3 C 55 % 1019,0 hPa 0,0 l/m 13,9 km/h (3 Bft) W-SW 242 0 min 0,000 mm 0 W/m -2,1 C 1,2 C 22,5 km/h (4 Bft) 100,00 %
04.01.2012 22:30 6,3 C 55 % 1019,0 hPa 0,0 l/m 16,1 km/h (3 Bft) W 267 0 min 0,000 mm 0 W/m -2,1 C 0,1 C 25,7 km/h (4 Bft) 95,83 %
04.01.2012 22:31 6,3 C 55 % 1019,0 hPa 0,0 l/m 11,7 km/h (2 Bft) W 273 0 min 0,000 mm 0 W/m -2,1 C 2,4 C 20,9 km/h (4 Bft) 100,00 %
04.01.2012 22:32 6,3 C 55 % 1019,0 hPa 0,0 l/m 8,4 km/h (2 Bft) W 260 0 min 0,000 mm 0 W/m -2,1 C 4,7 C 19,3 km/h (3 Bft) 100,00 %
04.01.2012 22:33 6,3 C 55 % 1019,0 hPa 0,0 l/m 10,4 km/h (2 Bft) W-SW 253 0 min 0,000 mm 0 W/m -2,1 C 3,2 C 16,1 km/h (3 Bft) 100,00 %
04.01.2012 22:34 6,3 C 55 % 1019,0 hPa 0,0 l/m 7,9 km/h (2 Bft) W 261 0 min 0,000 mm 0 W/m -2,1 C 5,0 C 16,1 km/h (3 Bft) 100,00 %
04.01.2012 22:35 6,3 C 55 % 1019,1 hPa 0,0 l/m 8,9 km/h (2 Bft) W-SW 249 0 min 0,000 mm 0 W/m -2,1 C 4,3 C 14,5 km/h (3 Bft) 100,00 %
04.01.2012 22:36 6,3 C 55 % 1019,1 hPa 0,0 l/m 8,1 km/h (2 Bft) W-SW 256 0 min 0,000 mm 0 W/m -2,1 C 4,9 C 11,3 km/h (2 Bft) 100,00 %
04.01.2012 22:37 6,3 C 55 % 1019,1 hPa 0,0 l/m 10,2 km/h (2 Bft) W-SW 252 0 min 0,000 mm 0 W/m -2,1 C 3,4 C 17,7 km/h (3 Bft) 100,00 %
04.01.2012 22:38 6,3 C 55 % 1019,1 hPa 0,0 l/m 11,1 km/h (2 Bft) W-SW 251 0 min 0,000 mm 0 W/m -2,1 C 2,8 C 16,1 km/h (3 Bft) 100,00 %
04.01.2012 22:39 6,3 C 55 % 1019,0 hPa 0,0 l/m 13,4 km/h (3 Bft) W-SW 252 0 min 0,000 mm 0 W/m -2,1 C 1,5 C 27,4 km/h (4 Bft) 100,00 %
04.01.2012 22:40 6,2 C 55 % 1019,0 hPa 0,0 l/m 7,2 km/h (2 Bft) W 261 0 min 0,000 mm 0 W/m -2,2 C 5,5 C 9,7 km/h (2 Bft) 100,00 %
04.01.2012 22:41 6,2 C 56 % 1019,0 hPa 0,0 l/m 11,0 km/h (2 Bft) W 261 0 min 0,000 mm 0 W/m -1,9 C 2,7 C 16,1 km/h (3 Bft) 100,00 %
04.01.2012 22:42 6,2 C 55 % 1019,0 hPa 0,0 l/m 10,9 km/h (2 Bft) W-SW 250 0 min 0,000 mm 0 W/m -2,2 C 2,8 C 16,1 km/h (3 Bft) 100,00 %
04.01.2012 22:43 6,2 C 56 % 1019,0 hPa 0,0 l/m 8,3 km/h (2 Bft) W-SW 252 0 min 0,000 mm 0 W/m -1,9 C 4,6 C 9,7 km/h (2 Bft) 100,00 %
04.01.2012 22:44 6,2 C 56 % 1019,0 hPa 0,0 l/m 8,3 km/h (2 Bft) W 260 0 min 0,000 mm 0 W/m -1,9 C 4,6 C 12,9 km/h (3 Bft) 100,00 %
04.01.2012 22:45 6,2 C 56 % 1019,0 hPa 0,0 l/m 7,0 km/h (2 Bft) W 263 0 min 0,000 mm 0 W/m -1,9 C 5,7 C 11,3 km/h (2 Bft) 100,00 %
04.01.2012 22:46 6,2 C 56 % 1019,0 hPa 0,0 l/m 6,6 km/h (2 Bft) W 259 0 min 0,000 mm 0 W/m -1,9 C 6,1 C 9,7 km/h (2 Bft) 100,00 %
04.01.2012 22:47 6,1 C 56 % 1019,0 hPa 0,0 l/m 7,5 km/h (2 Bft) W-SW 256 0 min 0,000 mm 0 W/m -2,0 C 5,2 C 14,5 km/h (3 Bft) 100,00 %
04.01.2012 22:48 6,1 C 56 % 1019,0 hPa 0,0 l/m 6,8 km/h (2 Bft) W 260 0 min 0,000 mm 0 W/m -2,0 C 5,8 C 11,3 km/h (2 Bft) 100,00 %
04.01.2012 22:49 6,1 C 57 % 1019,0 hPa 0,0 l/m 5,8 km/h (2 Bft) W-SW 250 0 min 0,000 mm 0 W/m -1,8 C 6,1 C 9,7 km/h (2 Bft) 100,00 %
04.01.2012 22:50 6,1 C 57 % 1019,0 hPa 0,0 l/m 8,5 km/h (2 Bft) W-SW 249 0 min 0,000 mm 0 W/m -1,8 C 4,4 C 11,3 km/h (2 Bft) 100,00 %
04.01.2012 22:51 6,0 C 57 % 1019,1 hPa 0,0 l/m 7,0 km/h (2 Bft) W-SW 252 0 min 0,000 mm 0 W/m -1,9 C 5,5 C 11,3 km/h (2 Bft) 100,00 %
04.01.2012 22:52 5,9 C 57 % 1019,1 hPa 0,0 l/m 6,4 km/h (2 Bft) W-SW 253 0 min 0,000 mm 0 W/m -2,0 C 5,9 C 11,3 km/h (2 Bft) 100,00 %
04.01.2012 22:53 5,9 C 57 % 1019,1 hPa 0,0 l/m 7,6 km/h (2 Bft) W-SW 252 0 min 0,000 mm 0 W/m -2,0 C 4,9 C 9,7 km/h (2 Bft) 100,00 %
04.01.2012 22:54 5,8 C 57 % 1019,0 hPa 0,0 l/m 7,0 km/h (2 Bft) W-SW 256 0 min 0,000 mm 0 W/m -2,0 C 5,3 C 9,7 km/h (2 Bft) 100,00 %
04.01.2012 22:55 5,8 C 57 % 1019,0 hPa 0,0 l/m 6,0 km/h (2 Bft) W-SW 257 0 min 0,000 mm 0 W/m -2,0 C 5,8 C 9,7 km/h (2 Bft) 100,00 %
04.01.2012 22:56 5,8 C 57 % 1018,9 hPa 0,0 l/m 6,6 km/h (2 Bft) W-SW 257 0 min 0,000 mm 0 W/m -2,0 C 5,7 C 9,7 km/h (2 Bft) 100,00 %
04.01.2012 22:57 5,7 C 58 % 1019,0 hPa 0,0 l/m 8,5 km/h (2 Bft) W-SW 255 0 min 0,000 mm 0 W/m -1,9 C 3,9 C 11,3 km/h (2 Bft) 100,00 %
04.01.2012 22:58 5,7 C 58 % 1019,0 hPa 0,0 l/m 6,6 km/h (2 Bft) W-SW 255 0 min 0,000 mm 0 W/m -1,9 C 5,6 C 9,7 km/h (2 Bft) 100,00 %
04.01.2012 22:59 5,7 C 58 % 1019,0 hPa 0,0 l/m 7,0 km/h (2 Bft) W 259 0 min 0,000 mm 0 W/m -1,9 C 5,2 C 9,7 km/h (2 Bft) 100,00 %
04.01.2012 23:00 5,6 C 58 % 1018,9 hPa 0,0 l/m 7,0 km/h (2 Bft) W-SW 257 0 min 0,000 mm 0 W/m -2,0 C 5,1 C 9,7 km/h (2 Bft) 100,00 %
04.01.2012 23:01 5,6 C 58 % 1018,9 hPa 0,0 l/m 5,8 km/h (2 Bft) W-SW 256 0 min 0,051 mm 0 W/m -2,0 C 5,6 C 8,0 km/h (2 Bft) 100,00 %
04.01.2012 23:02 5,6 C 58 % 1018,8 hPa 0,0 l/m 7,0 km/h (2 Bft) W-SW 254 0 min 0,000 mm 0 W/m -2,0 C 5,1 C 9,7 km/h (2 Bft) 100,00 %
04.01.2012 23:03 5,6 C 58 % 1018,9 hPa 0,0 l/m 6,7 km/h (2 Bft) W-SW 254 0 min 0,000 mm 0 W/m -2,0 C 5,4 C 9,7 km/h (2 Bft) 100,00 %
04.01.2012 23:04 5,5 C 59 % 1018,9 hPa 0,0 l/m 5,8 km/h (2 Bft) W-SW 253 0 min 0,000 mm 0 W/m -1,9 C 5,5 C 8,0 km/h (2 Bft) 100,00 %
04.01.2012 23:05 5,4 C 59 % 1018,9 hPa 0,0 l/m 5,2 km/h (1 Bft) W-SW 253 0 min 0,000 mm 0 W/m -2,0 C 5,4 C 8,0 km/h (2 Bft) 100,00 %
04.01.2012 23:06 5,4 C 59 % 1018,9 hPa 0,0 l/m 6,3 km/h (2 Bft) W-SW 253 0 min 0,000 mm 0 W/m -2,0 C 5,4 C 8,0 km/h (2 Bft) 100,00 %
04.01.2012 23:07 5,4 C 59 % 1018,9 hPa 0,0 l/m 4,4 km/h (1 Bft) W-SW 253 0 min 0,000 mm 0 W/m -2,0 C 5,4 C 6,4 km/h (2 Bft) 100,00 %
04.01.2012 23:08 5,3 C 59 % 1018,9 hPa 0,0 l/m 3,9 km/h (1 Bft) W-SW 253 0 min 0,000 mm 0 W/m -2,0 C 5,3 C 4,8 km/h (1 Bft) 100,00 %
04.01.2012 23:09 5,3 C 59 % 1018,9 hPa 0,0 l/m 4,5 km/h (1 Bft) W-SW 253 0 min 0,000 mm 0 W/m -2,0 C 5,3 C 6,4 km/h (2 Bft) 100,00 %
04.01.2012 23:10 5,3 C 59 % 1018,9 hPa 0,0 l/m 5,5 km/h (1 Bft) W-SW 253 0 min 0,000 mm 0 W/m -2,0 C 5,3 C 8,0 km/h (2 Bft) 100,00 %
04.01.2012 23:11 5,2 C 59 % 1019,0 hPa 0,0 l/m 5,0 km/h (1 Bft) W-SW 253 0 min 0,000 mm 0 W/m -2,1 C 5,2 C 6,4 km/h (2 Bft) 100,00 %
04.01.2012 23:12 5,2 C 59 % 1019,0 hPa 0,0 l/m 5,9 km/h (2 Bft) W-SW 256 0 min 0,000 mm 0 W/m -2,1 C 5,2 C 8,0 km/h (2 Bft) 100,00 %
04.01.2012 23:13 5,2 C 59 % 1019,0 hPa 0,0 l/m 5,0 km/h (1 Bft) W-SW 257 0 min 0,000 mm 0 W/m -2,1 C 5,2 C 8,0 km/h (2 Bft) 100,00 %
04.01.2012 23:14 5,1 C 60 % 1019,0 hPa 0,0 l/m 2,4 km/h (1 Bft) W-SW 256 0 min 0,000 mm 0 W/m -2,0 C 5,1 C 4,8 km/h (1 Bft) 100,00 %
04.01.2012 23:15 5,1 C 60 % 1019,1 hPa 0,0 l/m 3,8 km/h (1 Bft) W-SW 256 0 min 0,000 mm 0 W/m -2,0 C 5,1 C 6,4 km/h (2 Bft) 100,00 %
04.01.2012 23:16 5,1 C 60 % 1019,0 hPa 0,0 l/m 3,6 km/h (1 Bft) W-SW 257 0 min 0,000 mm 0 W/m -2,0 C 5,1 C 6,4 km/h (2 Bft) 100,00 %
04.01.2012 23:17 5,1 C 60 % 1018,9 hPa 0,0 l/m 3,3 km/h (1 Bft) W-SW 256 0 min 0,000 mm 0 W/m -2,0 C 5,1 C 4,8 km/h (1 Bft) 100,00 %
04.01.2012 23:18 5,1 C 60 % 1018,9 hPa 0,0 l/m 3,0 km/h (1 Bft) W-SW 257 0 min 0,000 mm 0 W/m -2,0 C 5,1 C 4,8 km/h (1 Bft) 100,00 %
04.01.2012 23:19 5,1 C 60 % 1019,0 hPa 0,0 l/m 3,4 km/h (1 Bft) W-SW 257 0 min 0,000 mm 0 W/m -2,0 C 5,1 C 4,8 km/h (1 Bft) 100,00 %
04.01.2012 23:20 5,0 C 60 % 1018,9 hPa 0,0 l/m 6,3 km/h (2 Bft) W 267 0 min 0,000 mm 0 W/m -2,1 C 5,0 C 16,1 km/h (3 Bft) 100,00 %
04.01.2012 23:21 5,0 C 60 % 1018,9 hPa 0,0 l/m 7,9 km/h (2 Bft) W-SW 253 0 min 0,000 mm 0 W/m -2,1 C 3,7 C 11,3 km/h (2 Bft) 100,00 %
04.01.2012 23:22 5,0 C 60 % 1018,9 hPa 0,0 l/m 7,6 km/h (2 Bft) W-SW 237 0 min 0,000 mm 0 W/m -2,1 C 3,9 C 14,5 km/h (3 Bft) 100,00 %
04.01.2012 23:23 5,0 C 59 % 1018,8 hPa 0,0 l/m 11,5 km/h (2 Bft) W-SW 253 0 min 0,000 mm 0 W/m -2,3 C 1,1 C 17,7 km/h (3 Bft) 95,83 %
04.01.2012 23:24 5,1 C 58 % 1018,7 hPa 0,0 l/m 6,9 km/h (2 Bft) W 259 0 min 0,000 mm 0 W/m -2,5 C 4,7 C 11,3 km/h (2 Bft) 100,00 %
04.01.2012 23:25 5,1 C 58 % 1018,8 hPa 0,0 l/m 4,9 km/h (1 Bft) W 259 0 min 0,000 mm 0 W/m -2,5 C 5,1 C 6,4 km/h (2 Bft) 100,00 %
04.01.2012 23:26 5,1 C 58 % 1018,8 hPa 0,0 l/m 7,1 km/h (2 Bft) W-SW 257 0 min 0,000 mm 0 W/m -2,5 C 4,5 C 9,7 km/h (2 Bft) 100,00 %
04.01.2012 23:27 5,1 C 58 % 1018,7 hPa 0,0 l/m 5,5 km/h (1 Bft) W-SW 256 0 min 0,000 mm 0 W/m -2,5 C 5,1 C 8,0 km/h (2 Bft) 100,00 %
04.01.2012 23:28 5,2 C 58 % 1018,8 hPa 0,0 l/m 6,1 km/h (2 Bft) W-SW 257 0 min 0,000 mm 0 W/m -2,4 C 5,2 C 11,3 km/h (2 Bft) 100,00 %
04.01.2012 23:29 5,2 C 58 % 1018,7 hPa 0,0 l/m 7,8 km/h (2 Bft) W 259 0 min 0,000 mm 0 W/m -2,4 C 4,0 C 11,3 km/h (2 Bft) 100,00 %
04.01.2012 23:30 5,2 C 58 % 1018,7 hPa 0,0 l/m 5,1 km/h (1 Bft) W 259 0 min 0,000 mm 0 W/m -2,4 C 5,2 C 6,4 km/h (2 Bft) 100,00 %
04.01.2012 23:31 5,2 C 58 % 1018,7 hPa 0,0 l/m 5,5 km/h (1 Bft) W 261 0 min 0,000 mm 0 W/m -2,4 C 5,2 C 8,0 km/h (2 Bft) 100,00 %
04.01.2012 23:32 5,3 C 58 % 1018,7 hPa 0,0 l/m 3,8 km/h (1 Bft) W 261 0 min 0,000 mm 0 W/m -2,3 C 5,3 C 6,4 km/h (2 Bft) 100,00 %
04.01.2012 23:33 5,3 C 58 % 1018,7 hPa 0,0 l/m 4,8 km/h (1 Bft) W 261 0 min 0,000 mm 0 W/m -2,3 C 5,3 C 6,4 km/h (2 Bft) 100,00 %
04.01.2012 23:34 5,3 C 58 % 1018,6 hPa 0,0 l/m 4,3 km/h (1 Bft) W 261 0 min 0,000 mm 0 W/m -2,3 C 5,3 C 6,4 km/h (2 Bft) 100,00 %
04.01.2012 23:35 5,3 C 58 % 1018,6 hPa 0,0 l/m 3,1 km/h (1 Bft) W 261 0 min 0,000 mm 0 W/m -2,3 C 5,3 C 4,8 km/h (1 Bft) 100,00 %
04.01.2012 23:36 5,3 C 58 % 1018,6 hPa 0,0 l/m 3,1 km/h (1 Bft) W 260 0 min 0,000 mm 0 W/m -2,3 C 5,3 C 4,8 km/h (1 Bft) 100,00 %
04.01.2012 23:37 5,3 C 58 % 1018,7 hPa 0,0 l/m 3,8 km/h (1 Bft) W 259 0 min 0,000 mm 0 W/m -2,3 C 5,3 C 8,0 km/h (2 Bft) 100,00 %
04.01.2012 23:38 5,3 C 58 % 1018,7 hPa 0,0 l/m 3,8 km/h (1 Bft) W 259 0 min 0,000 mm 0 W/m -2,3 C 5,3 C 6,4 km/h (2 Bft) 100,00 %
04.01.2012 23:39 5,3 C 58 % 1018,7 hPa 0,0 l/m 4,2 km/h (1 Bft) W 259 0 min 0,000 mm 0 W/m -2,3 C 5,3 C 6,4 km/h (2 Bft) 100,00 %
04.01.2012 23:40 5,3 C 58 % 1018,7 hPa 0,0 l/m 1,8 km/h (1 Bft) W 259 0 min 0,000 mm 0 W/m -2,3 C 5,3 C 3,2 km/h (1 Bft) 100,00 %
04.01.2012 23:41 5,3 C 58 % 1018,7 hPa 0,0 l/m 2,3 km/h (1 Bft) W 259 0 min 0,000 mm 0 W/m -2,3 C 5,3 C 4,8 km/h (1 Bft) 100,00 %
04.01.2012 23:42 5,3 C 58 % 1018,7 hPa 0,0 l/m 0,7 km/h (0 Bft) W 259 0 min 0,000 mm 0 W/m -2,3 C 5,3 C 1,6 km/h (1 Bft) 100,00 %
04.01.2012 23:43 5,3 C 58 % 1018,7 hPa 0,0 l/m 1,4 km/h (1 Bft) W 259 0 min 0,000 mm 0 W/m -2,3 C 5,3 C 1,6 km/h (1 Bft) 100,00 %
04.01.2012 23:44 5,3 C 58 % 1018,7 hPa 0,0 l/m 2,7 km/h (1 Bft) W 259 0 min 0,000 mm 0 W/m -2,3 C 5,3 C 6,4 km/h (2 Bft) 100,00 %
04.01.2012 23:45 5,3 C 58 % 1018,7 hPa 0,0 l/m 4,0 km/h (1 Bft) W 259 0 min 0,000 mm 0 W/m -2,3 C 5,3 C 6,4 km/h (2 Bft) 100,00 %
04.01.2012 23:46 5,3 C 58 % 1018,7 hPa 0,0 l/m 3,7 km/h (1 Bft) W 259 0 min 0,000 mm 0 W/m -2,3 C 5,3 C 6,4 km/h (2 Bft) 100,00 %
04.01.2012 23:47 5,3 C 58 % 1018,7 hPa 0,0 l/m 4,8 km/h (1 Bft) W-SW 257 0 min 0,000 mm 0 W/m -2,3 C 5,3 C 8,0 km/h (2 Bft) 100,00 %
04.01.2012 23:48 5,3 C 58 % 1018,7 hPa 0,0 l/m 5,2 km/h (1 Bft) W-SW 250 0 min 0,000 mm 0 W/m -2,3 C 5,3 C 9,7 km/h (2 Bft) 100,00 %
04.01.2012 23:49 5,3 C 57 % 1018,7 hPa 0,0 l/m 8,0 km/h (2 Bft) W-SW 254 0 min 0,000 mm 0 W/m -2,5 C 3,9 C 16,1 km/h (3 Bft) 100,00 %
04.01.2012 23:50 5,3 C 57 % 1018,7 hPa 0,0 l/m 6,7 km/h (2 Bft) W-SW 249 0 min 0,000 mm 0 W/m -2,5 C 5,1 C 11,3 km/h (2 Bft) 100,00 %
04.01.2012 23:51 5,3 C 57 % 1018,7 hPa 0,0 l/m 4,5 km/h (1 Bft) W-SW 249 0 min 0,000 mm 0 W/m -2,5 C 5,3 C 6,4 km/h (2 Bft) 100,00 %
04.01.2012 23:52 5,3 C 57 % 1018,6 hPa 0,0 l/m 4,3 km/h (1 Bft) W-SW 250 0 min 0,000 mm 0 W/m -2,5 C 5,3 C 4,8 km/h (1 Bft) 100,00 %
04.01.2012 23:53 5,3 C 57 % 1018,6 hPa 0,0 l/m 4,8 km/h (1 Bft) W-SW 254 0 min 0,000 mm 0 W/m -2,5 C 5,3 C 9,7 km/h (2 Bft) 100,00 %
04.01.2012 23:54 5,4 C 56 % 1018,6 hPa 0,0 l/m 6,2 km/h (2 Bft) W-SW 255 0 min 0,000 mm 0 W/m -2,7 C 5,4 C 8,0 km/h (2 Bft) 100,00 %
04.01.2012 23:55 5,4 C 56 % 1018,6 hPa 0,0 l/m 8,6 km/h (2 Bft) W-SW 241 0 min 0,000 mm 0 W/m -2,7 C 3,5 C 19,3 km/h (3 Bft) 100,00 %
04.01.2012 23:56 5,4 C 56 % 1018,6 hPa 0,0 l/m 6,2 km/h (2 Bft) W-SW 252 0 min 0,000 mm 0 W/m -2,7 C 5,4 C 8,0 km/h (2 Bft) 100,00 %
04.01.2012 23:57 5,4 C 56 % 1018,6 hPa 0,0 l/m 4,3 km/h (1 Bft) W-SW 250 0 min 0,000 mm 0 W/m -2,7 C 5,4 C 6,4 km/h (2 Bft) 100,00 %
04.01.2012 23:58 5,4 C 55 % 1018,6 hPa 0,0 l/m 5,7 km/h (1 Bft) W-SW 248 0 min 0,000 mm 0 W/m -2,9 C 5,4 C 9,7 km/h (2 Bft) 100,00 %
04.01.2012 23:59 5,5 C 55 % 1018,6 hPa 0,0 l/m 9,6 km/h (2 Bft) W-SW 248 0 min 0,000 mm 0 W/m -2,8 C 2,9 C 14,5 km/h (3 Bft) 100,00 %
_ Min-Zeit 08:26 22:07 08:51 - 11:43 - - - - - 23:58 19:20 11:43 17:26
Minimum _ 2,9 C 53 % 1012,3 hPa - 0,0 km/h (0 Bft) - - - - - -2,9 C -5,8 C 0,0 km/h (0 Bft) 90,91 %
_ Max-Zeit 12:28 09:41 22:00 23:59 14:38 - - 23:59 17:01 10:01 12:00 12:42 14:38 23:59
Maximum _ 9,5 C 93 % 1019,2 hPa 0,0 l/m 45,0 km/h
W-SW (6 Bft)
- - 0 min 0,102 mm 135 W/m 5,5 C 6,9 C 64,4 km/h
W-SW (8 Bft)
100,00 %
Durchschnitt _ 5,6 C 76 % 1015,5 hPa #0,0 l/m 10,9 km/h (2 Bft) N-NO - #0 min. #0,991 mm 50 W/m 1,5 C 1,9 C 16,8 km/h (3 Bft) 99,82 %